Wetterdaten: Donnerstag, 10.08.2017
Datum Zeit Temp. A. Pool Temp. Feuchte A. Luftdruck Regen Wind Richtung Richtung Sonnenschein ET UV Solar Taupunkt Windchill Windben Empfang
10.08.2017 00:00 20,7 C 24,4 C 87 % 1013,6 hPa 0,0 l/m 11,6 km/h (2 Bft) W-SW 239 0 min 0,000 mm 0,0 UV-I 0 W/m 18,5 C 18,9 C 17,7 km/h (3 Bft) 97,87 %
10.08.2017 00:02 20,6 C 24,4 C 87 % 1013,7 hPa 0,0 l/m 11,6 km/h (2 Bft) SW 221 0 min 0,000 mm 0,0 UV-I 0 W/m 18,4 C 18,8 C 16,1 km/h (3 Bft) 95,00 %
10.08.2017 00:04 20,6 C 24,4 C 87 % 1013,7 hPa 0,0 l/m 10,2 km/h (2 Bft) W-SW 258 0 min 0,000 mm 0,0 UV-I 0 W/m 18,4 C 19,2 C 14,5 km/h (3 Bft) 98,11 %
10.08.2017 00:06 20,6 C 24,4 C 87 % 1013,9 hPa 0,0 l/m 11,0 km/h (2 Bft) SW 232 0 min 0,000 mm 0,0 UV-I 0 W/m 18,4 C 19,0 C 14,5 km/h (3 Bft) 95,45 %
10.08.2017 00:08 20,5 C 24,4 C 87 % 1014,0 hPa 0,0 l/m 12,3 km/h (3 Bft) SW 214 0 min 0,000 mm 0,0 UV-I 0 W/m 18,3 C 18,5 C 17,7 km/h (3 Bft) 97,73 %
10.08.2017 00:10 20,5 C 24,4 C 87 % 1014,2 hPa 0,0 l/m 12,6 km/h (3 Bft) SW 229 0 min 0,000 mm 0,0 UV-I 0 W/m 18,3 C 18,4 C 19,3 km/h (3 Bft) 98,00 %
10.08.2017 00:12 20,5 C 24,4 C 88 % 1014,1 hPa 0,0 l/m 13,5 km/h (3 Bft) W-SW 241 0 min 0,000 mm 0,0 UV-I 0 W/m 18,4 C 18,2 C 19,3 km/h (3 Bft) 97,87 %
10.08.2017 00:14 20,5 C 24,4 C 88 % 1014,1 hPa 0,0 l/m 11,4 km/h (2 Bft) W-SW 248 0 min 0,000 mm 0,0 UV-I 0 W/m 18,4 C 18,8 C 16,1 km/h (3 Bft) 97,22 %
10.08.2017 00:16 20,4 C 24,4 C 87 % 1014,3 hPa 0,0 l/m 13,6 km/h (3 Bft) W-SW 240 0 min 0,000 mm 0,0 UV-I 0 W/m 18,2 C 18,1 C 24,1 km/h (4 Bft) 98,31 %
10.08.2017 00:18 20,4 C 24,4 C 87 % 1014,3 hPa 0,0 l/m 13,0 km/h (3 Bft) SW 229 0 min 0,000 mm 0,0 UV-I 0 W/m 18,2 C 18,2 C 17,7 km/h (3 Bft) 97,87 %
10.08.2017 00:20 20,4 C 24,4 C 87 % 1014,5 hPa 0,0 l/m 14,1 km/h (3 Bft) W 261 0 min 0,000 mm 0,0 UV-I 0 W/m 18,2 C 17,9 C 20,9 km/h (4 Bft) 97,73 %
10.08.2017 00:22 20,4 C 24,4 C 87 % 1014,7 hPa 0,0 l/m 13,5 km/h (3 Bft) W 263 0 min 0,000 mm 0,0 UV-I 0 W/m 18,2 C 18,1 C 17,7 km/h (3 Bft) 97,73 %
10.08.2017 00:24 20,4 C 24,4 C 87 % 1014,8 hPa 0,0 l/m 11,7 km/h (2 Bft) W-SW 250 0 min 0,000 mm 0,0 UV-I 0 W/m 18,2 C 18,6 C 17,7 km/h (3 Bft) 95,74 %
10.08.2017 00:26 20,4 C 24,4 C 87 % 1014,8 hPa 0,0 l/m 11,5 km/h (2 Bft) S-SW 211 0 min 0,000 mm 0,0 UV-I 0 W/m 18,2 C 18,6 C 22,5 km/h (4 Bft) 98,00 %
10.08.2017 00:28 20,4 C 24,4 C 87 % 1014,8 hPa 0,0 l/m 8,6 km/h (2 Bft) W-SW 242 0 min 0,000 mm 0,0 UV-I 0 W/m 18,2 C 19,6 C 14,5 km/h (3 Bft) 100,00 %
10.08.2017 00:30 20,4 C 24,4 C 87 % 1014,9 hPa 0,0 l/m 9,0 km/h (2 Bft) SW 225 0 min 0,000 mm 0,0 UV-I 0 W/m 18,2 C 19,4 C 14,5 km/h (3 Bft) 100,00 %
10.08.2017 00:32 20,4 C 24,4 C 87 % 1015,1 hPa 0,0 l/m 12,0 km/h (2 Bft) W-SW 237 0 min 0,000 mm 0,0 UV-I 0 W/m 18,2 C 18,5 C 17,7 km/h (3 Bft) 97,56 %
10.08.2017 00:34 20,4 C 24,4 C 87 % 1015,1 hPa 0,0 l/m 9,3 km/h (2 Bft) W-SW 246 0 min 0,000 mm 0,0 UV-I 0 W/m 18,2 C 19,3 C 14,5 km/h (3 Bft) 98,21 %
10.08.2017 00:36 20,4 C 24,4 C 87 % 1015,1 hPa 0,0 l/m 6,5 km/h (2 Bft) W-SW 253 0 min 0,000 mm 0,0 UV-I 0 W/m 18,2 C 20,4 C 9,7 km/h (2 Bft) 100,00 %
10.08.2017 00:38 20,4 C 24,4 C 87 % 1014,7 hPa 0,0 l/m 6,2 km/h (2 Bft) W 273 0 min 0,000 mm 0,0 UV-I 0 W/m 18,2 C 20,4 C 11,3 km/h (2 Bft) 100,00 %
10.08.2017 00:40 20,4 C 24,4 C 87 % 1014,5 hPa 0,0 l/m 5,4 km/h (1 Bft) W 279 0 min 0,000 mm 0,0 UV-I 0 W/m 18,2 C 20,4 C 9,7 km/h (2 Bft) 100,00 %
10.08.2017 00:42 20,4 C 24,4 C 87 % 1014,3 hPa 0,0 l/m 4,9 km/h (1 Bft) W-SW 244 0 min 0,000 mm 0,0 UV-I 0 W/m 18,2 C 20,4 C 8,0 km/h (2 Bft) 100,00 %
10.08.2017 00:44 20,4 C 24,4 C 87 % 1014,3 hPa 0,0 l/m 5,3 km/h (1 Bft) W 262 0 min 0,000 mm 0,0 UV-I 0 W/m 18,2 C 20,4 C 9,7 km/h (2 Bft) 100,00 %
10.08.2017 00:46 20,4 C 24,4 C 87 % 1014,4 hPa 0,0 l/m 4,2 km/h (1 Bft) W-SW 258 0 min 0,000 mm 0,0 UV-I 0 W/m 18,2 C 20,4 C 6,4 km/h (2 Bft) 100,00 %
10.08.2017 00:48 20,4 C 24,4 C 87 % 1014,5 hPa 0,0 l/m 4,8 km/h (1 Bft) W-SW 254 0 min 0,000 mm 0,0 UV-I 0 W/m 18,2 C 20,4 C 9,7 km/h (2 Bft) 97,44 %
10.08.2017 00:50 20,3 C 24,4 C 87 % 1014,5 hPa 0,0 l/m 6,4 km/h (2 Bft) W-SW 256 0 min 0,000 mm 0,0 UV-I 0 W/m 18,1 C 20,3 C 9,7 km/h (2 Bft) 100,00 %
10.08.2017 00:52 20,3 C 24,4 C 87 % 1014,4 hPa 0,0 l/m 7,6 km/h (2 Bft) W 267 0 min 0,000 mm 0,0 UV-I 0 W/m 18,1 C 19,8 C 11,3 km/h (2 Bft) 100,00 %
10.08.2017 00:54 20,3 C 24,4 C 88 % 1014,4 hPa 0,0 l/m 3,8 km/h (1 Bft) W 263 0 min 0,000 mm 0,0 UV-I 0 W/m 18,2 C 20,3 C 9,7 km/h (2 Bft) 100,00 %
10.08.2017 00:56 20,3 C 24,4 C 88 % 1014,4 hPa 0,0 l/m 4,2 km/h (1 Bft) W-SW 248 0 min 0,000 mm 0,0 UV-I 0 W/m 18,2 C 20,3 C 9,7 km/h (2 Bft) 100,00 %
10.08.2017 00:58 20,2 C 24,4 C 88 % 1014,4 hPa 0,0 l/m 5,9 km/h (2 Bft) W-SW 250 0 min 0,000 mm 0,0 UV-I 0 W/m 18,1 C 20,2 C 9,7 km/h (2 Bft) 100,00 %
10.08.2017 01:00 20,2 C 24,4 C 88 % 1014,4 hPa 0,0 l/m 1,4 km/h (1 Bft) W-SW 250 0 min 0,025 mm 0,0 UV-I 0 W/m 18,1 C 20,2 C 3,2 km/h (1 Bft) 100,00 %
10.08.2017 01:02 20,2 C 24,4 C 88 % 1014,2 hPa 0,0 l/m 1,2 km/h (1 Bft) W-SW 250 0 min 0,000 mm 0,0 UV-I 0 W/m 18,1 C 20,2 C 3,2 km/h (1 Bft) 100,00 %
10.08.2017 01:04 20,2 C 24,4 C 88 % 1014,1 hPa 0,0 l/m 1,0 km/h (0 Bft) W-SW 250 0 min 0,000 mm 0,0 UV-I 0 W/m 18,1 C 20,2 C 3,2 km/h (1 Bft) 100,00 %
10.08.2017 01:06 20,1 C 24,4 C 88 % 1013,9 hPa 0,0 l/m 3,9 km/h (1 Bft) NO 34 0 min 0,000 mm 0,0 UV-I 0 W/m 18,0 C 20,1 C 6,4 km/h (2 Bft) 100,00 %
10.08.2017 01:08 20,0 C 24,4 C 88 % 1013,8 hPa 0,0 l/m 4,8 km/h (1 Bft) NO 51 0 min 0,000 mm 0,0 UV-I 0 W/m 17,9 C 20,0 C 6,4 km/h (2 Bft) 100,00 %
10.08.2017 01:10 19,9 C 24,4 C 88 % 1013,9 hPa 0,0 l/m 3,7 km/h (1 Bft) NO 51 0 min 0,000 mm 0,0 UV-I 0 W/m 17,8 C 19,9 C 6,4 km/h (2 Bft) 100,00 %
10.08.2017 01:12 19,9 C 24,4 C 89 % 1014,0 hPa 0,0 l/m 0,3 km/h (0 Bft) NO 51 0 min 0,000 mm 0,0 UV-I 0 W/m 18,0 C 19,9 C 1,6 km/h (1 Bft) 100,00 %
10.08.2017 01:14 19,9 C 24,4 C 89 % 1014,1 hPa 0,0 l/m 2,4 km/h (1 Bft) O-NO 78 0 min 0,000 mm 0,0 UV-I 0 W/m 18,0 C 19,9 C 4,8 km/h (1 Bft) 100,00 %
10.08.2017 01:16 19,9 C 24,4 C 89 % 1014,0 hPa 0,0 l/m 4,2 km/h (1 Bft) O 90 0 min 0,000 mm 0,0 UV-I 0 W/m 18,0 C 19,9 C 6,4 km/h (2 Bft) 100,00 %
10.08.2017 01:18 19,8 C 24,4 C 90 % 1014,0 hPa 0,0 l/m 4,0 km/h (1 Bft) O 90 0 min 0,000 mm 0,0 UV-I 0 W/m 18,1 C 19,8 C 4,8 km/h (1 Bft) 100,00 %
10.08.2017 01:20 19,7 C 24,4 C 90 % 1013,9 hPa 0,0 l/m 2,9 km/h (1 Bft) O 90 0 min 0,000 mm 0,0 UV-I 0 W/m 18,0 C 19,7 C 4,8 km/h (1 Bft) 100,00 %
10.08.2017 01:22 19,7 C 24,4 C 90 % 1013,8 hPa 0,0 l/m 2,7 km/h (1 Bft) O 90 0 min 0,000 mm 0,0 UV-I 0 W/m 18,0 C 19,7 C 3,2 km/h (1 Bft) 97,87 %
10.08.2017 01:24 19,6 C 24,4 C 90 % 1013,9 hPa 0,0 l/m 3,1 km/h (1 Bft) O 90 0 min 0,000 mm 0,0 UV-I 0 W/m 17,9 C 19,6 C 4,8 km/h (1 Bft) 100,00 %
10.08.2017 01:26 19,6 C 24,4 C 90 % 1013,9 hPa 0,0 l/m 3,8 km/h (1 Bft) O 90 0 min 0,000 mm 0,0 UV-I 0 W/m 17,9 C 19,6 C 6,4 km/h (2 Bft) 96,08 %
10.08.2017 01:28 19,5 C 24,4 C 91 % 1013,8 hPa 0,0 l/m 4,8 km/h (1 Bft) O 90 0 min 0,000 mm 0,0 UV-I 0 W/m 18,0 C 19,5 C 6,4 km/h (2 Bft) 97,96 %
10.08.2017 01:30 19,5 C 24,4 C 91 % 1013,9 hPa 0,0 l/m 3,6 km/h (1 Bft) O 90 0 min 0,000 mm 0,0 UV-I 0 W/m 18,0 C 19,5 C 4,8 km/h (1 Bft) 98,00 %
10.08.2017 01:32 19,4 C 24,4 C 91 % 1013,9 hPa 0,0 l/m 0,2 km/h (0 Bft) O 90 0 min 0,000 mm 0,0 UV-I 0 W/m 17,9 C 19,4 C 1,6 km/h (1 Bft) 97,92 %
10.08.2017 01:34 19,4 C 24,4 C 91 % 1013,9 hPa 0,0 l/m 1,3 km/h (1 Bft) O 90 0 min 0,000 mm 0,0 UV-I 0 W/m 17,9 C 19,4 C 4,8 km/h (1 Bft) 97,37 %
10.08.2017 01:36 19,4 C 24,4 C 91 % 1013,9 hPa 0,0 l/m 5,0 km/h (1 Bft) O 90 0 min 0,000 mm 0,0 UV-I 0 W/m 17,9 C 19,4 C 6,4 km/h (2 Bft) 98,00 %
10.08.2017 01:38 19,3 C 24,4 C 91 % 1013,9 hPa 0,0 l/m 6,7 km/h (2 Bft) O 88 0 min 0,000 mm 0,0 UV-I 0 W/m 17,8 C 19,2 C 9,7 km/h (2 Bft) 97,87 %
10.08.2017 01:40 19,3 C 24,4 C 91 % 1013,9 hPa 0,0 l/m 8,4 km/h (2 Bft) O 87 0 min 0,000 mm 0,0 UV-I 0 W/m 17,8 C 18,5 C 11,3 km/h (2 Bft) 96,00 %
10.08.2017 01:42 19,3 C 24,4 C 91 % 1013,9 hPa 0,0 l/m 11,4 km/h (2 Bft) O-SO 105 0 min 0,000 mm 0,0 UV-I 0 W/m 17,8 C 17,4 C 14,5 km/h (3 Bft) 97,56 %
10.08.2017 01:44 19,4 C 24,4 C 91 % 1013,6 hPa 0,0 l/m 10,4 km/h (2 Bft) O 92 0 min 0,000 mm 0,0 UV-I 0 W/m 17,9 C 17,8 C 12,9 km/h (3 Bft) 98,11 %
10.08.2017 01:46 19,4 C 24,4 C 91 % 1013,5 hPa 0,0 l/m 10,6 km/h (2 Bft) O 79 0 min 0,000 mm 0,0 UV-I 0 W/m 17,9 C 17,8 C 16,1 km/h (3 Bft) 98,00 %
10.08.2017 01:48 19,5 C 24,4 C 90 % 1013,5 hPa 0,0 l/m 5,7 km/h (1 Bft) O 85 0 min 0,000 mm 0,0 UV-I 0 W/m 17,8 C 19,5 C 11,3 km/h (2 Bft) 97,37 %
10.08.2017 01:50 19,6 C 24,4 C 90 % 1013,7 hPa 0,0 l/m 6,6 km/h (2 Bft) O 86 0 min 0,000 mm 0,0 UV-I 0 W/m 17,9 C 19,5 C 11,3 km/h (2 Bft) 98,21 %
10.08.2017 01:52 19,6 C 24,4 C 90 % 1013,8 hPa 0,0 l/m 8,1 km/h (2 Bft) O-NO 75 0 min 0,000 mm 0,0 UV-I 0 W/m 17,9 C 18,9 C 12,9 km/h (3 Bft) 97,56 %
10.08.2017 01:54 19,6 C 24,4 C 90 % 1014,0 hPa 0,0 l/m 13,3 km/h (3 Bft) O-NO 77 0 min 0,000 mm 0,0 UV-I 0 W/m 17,9 C 17,2 C 20,9 km/h (4 Bft) 97,87 %
10.08.2017 01:56 19,6 C 24,4 C 90 % 1014,0 hPa 0,0 l/m 16,7 km/h (3 Bft) O-NO 64 0 min 0,000 mm 0,0 UV-I 0 W/m 17,9 C 16,4 C 22,5 km/h (4 Bft) 98,11 %
10.08.2017 01:58 19,6 C 24,4 C 90 % 1013,9 hPa 0,0 l/m 13,9 km/h (3 Bft) O 82 0 min 0,000 mm 0,0 UV-I 0 W/m 17,9 C 17,0 C 19,3 km/h (3 Bft) 100,00 %
10.08.2017 02:00 19,6 C 24,4 C 90 % 1013,9 hPa 0,0 l/m 10,9 km/h (2 Bft) O 89 0 min 0,000 mm 0,0 UV-I 0 W/m 17,9 C 17,9 C 17,7 km/h (3 Bft) 100,00 %
10.08.2017 02:02 19,6 C 24,4 C 90 % 1013,8 hPa 0,0 l/m 13,7 km/h (3 Bft) O 84 0 min 0,000 mm 0,0 UV-I 0 W/m 17,9 C 17,1 C 17,7 km/h (3 Bft) 100,00 %
10.08.2017 02:04 19,6 C 24,4 C 90 % 1013,8 hPa 0,0 l/m 14,9 km/h (3 Bft) O 96 0 min 0,000 mm 0,0 UV-I 0 W/m 17,9 C 16,8 C 22,5 km/h (4 Bft) 100,00 %
10.08.2017 02:06 19,6 C 24,4 C 91 % 1013,8 hPa 0,0 l/m 15,0 km/h (3 Bft) O-NO 72 0 min 0,000 mm 0,0 UV-I 0 W/m 18,1 C 16,8 C 19,3 km/h (3 Bft) 100,00 %
10.08.2017 02:08 19,6 C 24,4 C 91 % 1013,9 hPa 0,0 l/m 13,0 km/h (3 Bft) O-NO 74 0 min 0,000 mm 0,0 UV-I 0 W/m 18,1 C 17,3 C 20,9 km/h (4 Bft) 100,00 %
10.08.2017 02:10 19,5 C 24,4 C 91 % 1013,9 hPa 0,0 l/m 9,1 km/h (2 Bft) O 95 0 min 0,000 mm 0,0 UV-I 0 W/m 18,0 C 18,4 C 16,1 km/h (3 Bft) 100,00 %
10.08.2017 02:12 19,5 C 24,4 C 91 % 1013,9 hPa 0,0 l/m 13,0 km/h (3 Bft) NO 49 0 min 0,000 mm 0,0 UV-I 0 W/m 18,0 C 17,2 C 17,7 km/h (3 Bft) 100,00 %
10.08.2017 02:14 19,5 C 24,4 C 91 % 1013,8 hPa 0,0 l/m 16,3 km/h (3 Bft) O-NO 63 0 min 0,000 mm 0,0 UV-I 0 W/m 18,0 C 16,3 C 24,1 km/h (4 Bft) 100,00 %
10.08.2017 02:16 19,5 C 24,4 C 91 % 1013,8 hPa 0,0 l/m 17,9 km/h (3 Bft) O-NO 70 0 min 0,000 mm 0,0 UV-I 0 W/m 18,0 C 16,0 C 24,1 km/h (4 Bft) 98,21 %
10.08.2017 02:18 19,6 C 24,4 C 91 % 1013,8 hPa 0,0 l/m 16,7 km/h (3 Bft) O 82 0 min 0,000 mm 0,0 UV-I 0 W/m 18,1 C 16,4 C 20,9 km/h (4 Bft) 100,00 %
10.08.2017 02:20 19,6 C 24,4 C 91 % 1013,6 hPa 0,0 l/m 13,6 km/h (3 Bft) O-NO 78 0 min 0,000 mm 0,0 UV-I 0 W/m 18,1 C 17,1 C 20,9 km/h (4 Bft) 98,00 %
10.08.2017 02:22 19,6 C 24,4 C 91 % 1013,5 hPa 0,0 l/m 14,5 km/h (3 Bft) O-NO 68 0 min 0,000 mm 0,0 UV-I 0 W/m 18,1 C 16,9 C 22,5 km/h (4 Bft) 100,00 %
10.08.2017 02:24 19,6 C 24,4 C 90 % 1013,5 hPa 0,0 l/m 15,2 km/h (3 Bft) O-NO 77 0 min 0,000 mm 0,0 UV-I 0 W/m 17,9 C 16,7 C 22,5 km/h (4 Bft) 100,00 %
10.08.2017 02:26 19,6 C 24,4 C 90 % 1013,4 hPa 0,0 l/m 13,7 km/h (3 Bft) O-SO 118 0 min 0,000 mm 0,0 UV-I 0 W/m 17,9 C 17,1 C 19,3 km/h (3 Bft) 100,00 %
10.08.2017 02:28 19,6 C 24,4 C 90 % 1013,3 hPa 0,0 l/m 14,4 km/h (3 Bft) O 88 0 min 0,000 mm 0,0 UV-I 0 W/m 17,9 C 16,9 C 20,9 km/h (4 Bft) 100,00 %
10.08.2017 02:30 19,5 C 24,4 C 90 % 1013,3 hPa 0,0 l/m 13,2 km/h (3 Bft) O-NO 78 0 min 0,000 mm 0,0 UV-I 0 W/m 17,8 C 17,1 C 20,9 km/h (4 Bft) 100,00 %
10.08.2017 02:32 19,6 C 24,4 C 90 % 1013,3 hPa 0,0 l/m 16,6 km/h (3 Bft) O-NO 76 0 min 0,000 mm 0,0 UV-I 0 W/m 17,9 C 16,4 C 22,5 km/h (4 Bft) 100,00 %
10.08.2017 02:34 19,6 C 24,4 C 90 % 1013,2 hPa 0,0 l/m 13,4 km/h (3 Bft) O 86 0 min 0,000 mm 0,0 UV-I 0 W/m 17,9 C 17,2 C 22,5 km/h (4 Bft) 100,00 %
10.08.2017 02:36 19,6 C 24,4 C 90 % 1013,1 hPa 0,0 l/m 12,6 km/h (3 Bft) O 90 0 min 0,000 mm 0,0 UV-I 0 W/m 17,9 C 17,4 C 17,7 km/h (3 Bft) 100,00 %
10.08.2017 02:38 19,6 C 24,4 C 90 % 1013,1 hPa 0,0 l/m 10,0 km/h (2 Bft) NO 51 0 min 0,000 mm 0,0 UV-I 0 W/m 17,9 C 18,2 C 16,1 km/h (3 Bft) 100,00 %
10.08.2017 02:40 19,6 C 24,4 C 90 % 1013,0 hPa 0,0 l/m 11,6 km/h (2 Bft) O 89 0 min 0,000 mm 0,0 UV-I 0 W/m 17,9 C 17,7 C 19,3 km/h (3 Bft) 100,00 %
10.08.2017 02:42 19,6 C 23,9 C 90 % 1012,9 hPa 0,0 l/m 10,3 km/h (2 Bft) O-SO 109 0 min 0,000 mm 0,0 UV-I 0 W/m 17,9 C 18,1 C 14,5 km/h (3 Bft) 100,00 %
10.08.2017 02:44 19,6 C 23,9 C 90 % 1012,9 hPa 0,0 l/m 11,1 km/h (2 Bft) O 86 0 min 0,000 mm 0,0 UV-I 0 W/m 17,9 C 17,8 C 16,1 km/h (3 Bft) 100,00 %
10.08.2017 02:46 19,6 C 23,9 C 90 % 1012,8 hPa 0,0 l/m 11,7 km/h (2 Bft) O-NO 63 0 min 0,000 mm 0,0 UV-I 0 W/m 17,9 C 17,7 C 20,9 km/h (4 Bft) 100,00 %
10.08.2017 02:48 19,6 C 23,9 C 90 % 1012,7 hPa 0,0 l/m 12,7 km/h (3 Bft) O-NO 74 0 min 0,000 mm 0,0 UV-I 0 W/m 17,9 C 17,4 C 19,3 km/h (3 Bft) 100,00 %
10.08.2017 02:50 19,6 C 23,9 C 90 % 1012,7 hPa 0,0 l/m 10,7 km/h (2 Bft) O-NO 76 0 min 0,000 mm 0,0 UV-I 0 W/m 17,9 C 18,0 C 16,1 km/h (3 Bft) 100,00 %
10.08.2017 02:52 19,6 C 23,9 C 90 % 1012,6 hPa 0,0 l/m 9,0 km/h (2 Bft) O-NO 78 0 min 0,000 mm 0,0 UV-I 0 W/m 17,9 C 18,6 C 14,5 km/h (3 Bft) 100,00 %
10.08.2017 02:54 19,6 C 23,9 C 89 % 1012,6 hPa 0,0 l/m 10,4 km/h (2 Bft) O-NO 76 0 min 0,000 mm 0,0 UV-I 0 W/m 17,7 C 18,1 C 14,5 km/h (3 Bft) 100,00 %
10.08.2017 02:56 19,6 C 23,9 C 89 % 1012,5 hPa 0,0 l/m 13,3 km/h (3 Bft) O 82 0 min 0,000 mm 0,0 UV-I 0 W/m 17,7 C 17,2 C 24,1 km/h (4 Bft) 100,00 %
10.08.2017 02:58 19,6 C 23,9 C 89 % 1012,3 hPa 0,0 l/m 10,9 km/h (2 Bft) O-NO 64 0 min 0,000 mm 0,0 UV-I 0 W/m 17,7 C 17,9 C 16,1 km/h (3 Bft) 97,56 %
10.08.2017 03:00 19,6 C 23,9 C 89 % 1012,3 hPa 0,0 l/m 9,4 km/h (2 Bft) O 79 0 min 0,026 mm 0,0 UV-I 0 W/m 17,7 C 18,4 C 16,1 km/h (3 Bft) 100,00 %
10.08.2017 03:02 19,6 C 23,9 C 89 % 1012,3 hPa 0,0 l/m 13,2 km/h (3 Bft) O-NO 74 0 min 0,000 mm 0,0 UV-I 0 W/m 17,7 C 17,2 C 17,7 km/h (3 Bft) 100,00 %
10.08.2017 03:04 19,6 C 23,9 C 89 % 1012,2 hPa 0,0 l/m 8,5 km/h (2 Bft) NO 53 0 min 0,000 mm 0,0 UV-I 0 W/m 17,7 C 18,7 C 12,9 km/h (3 Bft) 100,00 %
10.08.2017 03:06 19,6 C 23,9 C 89 % 1012,3 hPa 0,0 l/m 9,8 km/h (2 Bft) O 80 0 min 0,000 mm 0,0 UV-I 0 W/m 17,7 C 18,3 C 14,5 km/h (3 Bft) 100,00 %
10.08.2017 03:08 19,6 C 23,9 C 88 % 1012,2 hPa 0,0 l/m 7,2 km/h (2 Bft) O 93 0 min 0,000 mm 0,0 UV-I 0 W/m 17,6 C 19,3 C 12,9 km/h (3 Bft) 100,00 %
10.08.2017 03:10 19,6 C 23,9 C 88 % 1012,2 hPa 0,0 l/m 5,9 km/h (2 Bft) O-NO 69 0 min 0,000 mm 0,0 UV-I 0 W/m 17,6 C 19,6 C 9,7 km/h (2 Bft) 100,00 %
10.08.2017 03:12 19,5 C 23,9 C 88 % 1012,2 hPa 0,0 l/m 7,1 km/h (2 Bft) O 81 0 min 0,000 mm 0,0 UV-I 0 W/m 17,5 C 19,2 C 11,3 km/h (2 Bft) 100,00 %
10.08.2017 03:14 19,5 C 23,9 C 87 % 1012,2 hPa 0,0 l/m 9,8 km/h (2 Bft) O-NO 74 0 min 0,000 mm 0,0 UV-I 0 W/m 17,3 C 18,2 C 16,1 km/h (3 Bft) 96,23 %
10.08.2017 03:16 19,5 C 23,9 C 87 % 1012,2 hPa 0,0 l/m 7,4 km/h (2 Bft) O-SO 102 0 min 0,000 mm 0,0 UV-I 0 W/m 17,3 C 19,1 C 14,5 km/h (3 Bft) 97,37 %
10.08.2017 03:18 19,5 C 23,9 C 87 % 1012,1 hPa 0,0 l/m 7,2 km/h (2 Bft) O 84 0 min 0,000 mm 0,0 UV-I 0 W/m 17,3 C 19,2 C 9,7 km/h (2 Bft) 96,23 %
10.08.2017 03:20 19,5 C 23,9 C 87 % 1012,0 hPa 0,0 l/m 9,9 km/h (2 Bft) O 101 0 min 0,000 mm 0,0 UV-I 0 W/m 17,3 C 18,1 C 12,9 km/h (3 Bft) 97,37 %
10.08.2017 03:22 19,5 C 23,9 C 87 % 1012,0 hPa 0,0 l/m 11,0 km/h (2 Bft) O-SO 104 0 min 0,000 mm 0,0 UV-I 0 W/m 17,3 C 17,8 C 16,1 km/h (3 Bft) 95,74 %
10.08.2017 03:24 19,5 C 23,9 C 86 % 1012,0 hPa 0,0 l/m 10,6 km/h (2 Bft) O 88 0 min 0,000 mm 0,0 UV-I 0 W/m 17,1 C 17,9 C 14,5 km/h (3 Bft) 95,83 %
10.08.2017 03:26 19,5 C 23,9 C 86 % 1012,0 hPa 0,0 l/m 7,0 km/h (2 Bft) O 101 0 min 0,000 mm 0,0 UV-I 0 W/m 17,1 C 19,2 C 14,5 km/h (3 Bft) 94,00 %
10.08.2017 03:28 19,5 C 23,9 C 86 % 1011,9 hPa 0,0 l/m 5,2 km/h (1 Bft) O 94 0 min 0,000 mm 0,0 UV-I 0 W/m 17,1 C 19,5 C 9,7 km/h (2 Bft) 94,00 %
10.08.2017 03:30 19,5 C 23,9 C 86 % 1012,0 hPa 0,0 l/m 5,7 km/h (1 Bft) O 99 0 min 0,000 mm 0,0 UV-I 0 W/m 17,1 C 19,5 C 12,9 km/h (3 Bft) 95,45 %
10.08.2017 03:32 19,5 C 23,9 C 86 % 1012,0 hPa 0,0 l/m 7,7 km/h (2 Bft) O 97 0 min 0,000 mm 0,0 UV-I 0 W/m 17,1 C 18,9 C 12,9 km/h (3 Bft) 92,00 %
10.08.2017 03:34 19,5 C 23,9 C 86 % 1012,0 hPa 0,0 l/m 7,5 km/h (2 Bft) O 94 0 min 0,000 mm 0,0 UV-I 0 W/m 17,1 C 19,0 C 12,9 km/h (3 Bft) 94,74 %
10.08.2017 03:36 19,5 C 23,9 C 86 % 1012,0 hPa 0,0 l/m 3,7 km/h (1 Bft) O-SO 103 0 min 0,000 mm 0,0 UV-I 0 W/m 17,1 C 19,5 C 6,4 km/h (2 Bft) 94,00 %
10.08.2017 03:38 19,4 C 23,9 C 86 % 1012,0 hPa 0,0 l/m 4,6 km/h (1 Bft) SO 130 0 min 0,000 mm 0,0 UV-I 0 W/m 17,0 C 19,4 C 6,4 km/h (2 Bft) 93,62 %
10.08.2017 03:40 19,4 C 23,9 C 86 % 1011,9 hPa 0,0 l/m 3,1 km/h (1 Bft) O-SO 117 0 min 0,000 mm 0,0 UV-I 0 W/m 17,0 C 19,4 C 4,8 km/h (1 Bft) 94,34 %
10.08.2017 03:42 19,4 C 23,9 C 86 % 1011,9 hPa 0,0 l/m 1,6 km/h (1 Bft) O-SO 117 0 min 0,000 mm 0,0 UV-I 0 W/m 17,0 C 19,4 C 3,2 km/h (1 Bft) 97,37 %
10.08.2017 03:44 19,4 C 23,9 C 86 % 1012,0 hPa 0,0 l/m 4,5 km/h (1 Bft) O-SO 123 0 min 0,000 mm 0,0 UV-I 0 W/m 17,0 C 19,4 C 9,7 km/h (2 Bft) 92,45 %
10.08.2017 03:46 19,3 C 23,9 C 86 % 1011,9 hPa 0,0 l/m 5,8 km/h (2 Bft) O-SO 121 0 min 0,000 mm 0,0 UV-I 0 W/m 16,9 C 19,3 C 9,7 km/h (2 Bft) 95,12 %
10.08.2017 03:48 19,3 C 23,9 C 86 % 1011,9 hPa 0,0 l/m 6,8 km/h (2 Bft) O-SO 103 0 min 0,000 mm 0,0 UV-I 0 W/m 16,9 C 19,1 C 11,3 km/h (2 Bft) 96,00 %
10.08.2017 03:50 19,3 C 23,9 C 86 % 1011,9 hPa 0,0 l/m 8,4 km/h (2 Bft) O-SO 121 0 min 0,000 mm 0,0 UV-I 0 W/m 16,9 C 18,5 C 12,9 km/h (3 Bft) 93,62 %
10.08.2017 03:52 19,2 C 23,9 C 86 % 1011,8 hPa 0,0 l/m 6,2 km/h (2 Bft) SO 127 0 min 0,000 mm 0,0 UV-I 0 W/m 16,8 C 19,2 C 9,7 km/h (2 Bft) 96,23 %
10.08.2017 03:54 19,2 C 23,9 C 86 % 1011,8 hPa 0,0 l/m 5,3 km/h (1 Bft) O-SO 122 0 min 0,000 mm 0,0 UV-I 0 W/m 16,8 C 19,2 C 8,0 km/h (2 Bft) 94,74 %
10.08.2017 03:56 19,2 C 23,9 C 86 % 1011,8 hPa 0,0 l/m 4,4 km/h (1 Bft) O-SO 123 0 min 0,000 mm 0,0 UV-I 0 W/m 16,8 C 19,2 C 9,7 km/h (2 Bft) 93,62 %
10.08.2017 03:58 19,2 C 23,9 C 87 % 1011,9 hPa 0,0 l/m 4,5 km/h (1 Bft) O-SO 121 0 min 0,000 mm 0,0 UV-I 0 W/m 17,0 C 19,2 C 6,4 km/h (2 Bft) 97,87 %
10.08.2017 04:00 19,1 C 23,9 C 87 % 1011,8 hPa 0,0 l/m 3,3 km/h (1 Bft) O-SO 121 0 min 0,025 mm 0,0 UV-I 0 W/m 16,9 C 19,1 C 4,8 km/h (1 Bft) 96,00 %
10.08.2017 04:04 19,0 C 23,9 C 86 % 1011,7 hPa 0,0 l/m 0,7 km/h (0 Bft) O-SO 121 0 min 0,000 mm 0,0 UV-I 0 W/m 16,6 C 19,0 C 3,2 km/h (1 Bft) 97,87 %
10.08.2017 04:06 18,9 C 23,9 C 87 % 1011,7 hPa 0,0 l/m 0,3 km/h (0 Bft) O-SO 121 0 min 0,000 mm 0,0 UV-I 0 W/m 16,7 C 18,9 C 1,6 km/h (1 Bft) 95,74 %
10.08.2017 04:08 18,8 C 23,9 C 87 % 1011,7 hPa 0,0 l/m 1,9 km/h (1 Bft) O-SO 121 0 min 0,000 mm 0,0 UV-I 0 W/m 16,6 C 18,8 C 3,2 km/h (1 Bft) 97,92 %
10.08.2017 04:10 18,7 C 23,9 C 87 % 1011,6 hPa 0,0 l/m 0,5 km/h (0 Bft) O-SO 121 0 min 0,000 mm 0,0 UV-I 0 W/m 16,5 C 18,7 C 1,6 km/h (1 Bft) 97,87 %
10.08.2017 04:12 18,6 C 23,9 C 88 % 1011,6 hPa 0,0 l/m 0,0 km/h (0 Bft) O-SO 121 0 min 0,000 mm 0,0 UV-I 0 W/m 16,6 C 18,6 C 0,0 km/h (0 Bft) 97,37 %
10.08.2017 04:14 18,6 C 23,9 C 88 % 1011,7 hPa 0,0 l/m 0,8 km/h (0 Bft) O-SO 121 0 min 0,000 mm 0,0 UV-I 0 W/m 16,6 C 18,6 C 1,6 km/h (1 Bft) 98,11 %
10.08.2017 04:16 18,5 C 23,9 C 89 % 1011,8 hPa 0,0 l/m 0,1 km/h (0 Bft) O-SO 121 0 min 0,000 mm 0,0 UV-I 0 W/m 16,7 C 18,5 C 1,6 km/h (1 Bft) 97,56 %
10.08.2017 04:18 18,4 C 23,9 C 89 % 1011,8 hPa 0,0 l/m 0,1 km/h (0 Bft) O-SO 121 0 min 0,000 mm 0,0 UV-I 0 W/m 16,6 C 18,4 C 1,6 km/h (1 Bft) 98,00 %
10.08.2017 04:20 18,3 C 23,9 C 89 % 1011,8 hPa 0,0 l/m 0,0 km/h (0 Bft) O-SO 121 0 min 0,000 mm 0,0 UV-I 0 W/m 16,5 C 18,3 C 0,0 km/h (0 Bft) 97,87 %
10.08.2017 04:22 18,3 C 23,9 C 89 % 1011,7 hPa 0,0 l/m 0,1 km/h (0 Bft) O-SO 121 0 min 0,000 mm 0,0 UV-I 0 W/m 16,5 C 18,3 C 1,6 km/h (1 Bft) 100,00 %
10.08.2017 04:24 18,2 C 23,9 C 90 % 1011,6 hPa 0,0 l/m 0,1 km/h (0 Bft) O-SO 121 0 min 0,000 mm 0,0 UV-I 0 W/m 16,5 C 18,2 C 1,6 km/h (1 Bft) 98,00 %
10.08.2017 04:26 18,2 C 23,9 C 90 % 1011,7 hPa 0,0 l/m 0,0 km/h (0 Bft) O-SO 121 0 min 0,000 mm 0,0 UV-I 0 W/m 16,5 C 18,2 C 0,0 km/h (0 Bft) 100,00 %
10.08.2017 04:28 18,1 C 23,9 C 90 % 1011,7 hPa 0,0 l/m 0,9 km/h (0 Bft) O-SO 121 0 min 0,000 mm 0,0 UV-I 0 W/m 16,4 C 18,1 C 3,2 km/h (1 Bft) 100,00 %
10.08.2017 04:30 18,1 C 23,9 C 90 % 1011,8 hPa 0,0 l/m 2,3 km/h (1 Bft) O-SO 121 0 min 0,000 mm 0,0 UV-I 0 W/m 16,4 C 18,1 C 4,8 km/h (1 Bft) 100,00 %
10.08.2017 04:32 18,0 C 23,9 C 90 % 1011,8 hPa 0,0 l/m 1,9 km/h (1 Bft) NW 316 0 min 0,000 mm 0,0 UV-I 0 W/m 16,3 C 18,0 C 3,2 km/h (1 Bft) 100,00 %
10.08.2017 04:34 18,0 C 23,9 C 90 % 1011,9 hPa 0,0 l/m 0,6 km/h (0 Bft) NW 317 0 min 0,000 mm 0,0 UV-I 0 W/m 16,3 C 18,0 C 1,6 km/h (1 Bft) 100,00 %
10.08.2017 04:36 17,9 C 23,9 C 91 % 1011,9 hPa 0,0 l/m 1,1 km/h (1 Bft) NW 317 0 min 0,000 mm 0,0 UV-I 0 W/m 16,4 C 17,9 C 3,2 km/h (1 Bft) 100,00 %
10.08.2017 04:38 17,9 C 23,9 C 91 % 1011,9 hPa 0,0 l/m 1,6 km/h (1 Bft) N-NW 343 0 min 0,000 mm 0,0 UV-I 0 W/m 16,4 C 17,9 C 4,8 km/h (1 Bft) 98,18 %
10.08.2017 04:40 17,9 C 23,9 C 91 % 1011,9 hPa 0,0 l/m 0,2 km/h (0 Bft) N-NW 343 0 min 0,000 mm 0,0 UV-I 0 W/m 16,4 C 17,9 C 1,6 km/h (1 Bft) 100,00 %
10.08.2017 04:42 17,8 C 23,9 C 91 % 1011,9 hPa 0,0 l/m 0,1 km/h (0 Bft) N-NW 342 0 min 0,000 mm 0,0 UV-I 0 W/m 16,3 C 17,8 C 1,6 km/h (1 Bft) 100,00 %
10.08.2017 04:44 17,8 C 23,9 C 91 % 1012,0 hPa 0,0 l/m 0,0 km/h (0 Bft) N-NW 343 0 min 0,000 mm 0,0 UV-I 0 W/m 16,3 C 17,8 C 0,0 km/h (0 Bft) 97,67 %
10.08.2017 04:46 17,8 C 23,9 C 91 % 1012,0 hPa 0,0 l/m 0,2 km/h (0 Bft) N-NW 343 0 min 0,000 mm 0,0 UV-I 0 W/m 16,3 C 17,8 C 1,6 km/h (1 Bft) 100,00 %
10.08.2017 04:48 17,8 C 23,9 C 91 % 1012,0 hPa 0,0 l/m 0,0 km/h (0 Bft) N-NW 342 0 min 0,000 mm 0,0 UV-I 0 W/m 16,3 C 17,8 C 0,0 km/h (0 Bft) 100,00 %
10.08.2017 04:50 17,8 C 23,9 C 91 % 1012,0 hPa 0,0 l/m 0,0 km/h (0 Bft) N-NW 342 0 min 0,000 mm 0,0 UV-I 0 W/m 16,3 C 17,8 C 0,0 km/h (0 Bft) 97,87 %
10.08.2017 04:53 17,7 C 23,9 C 92 % 1012,0 hPa 0,0 l/m 0,0 km/h (0 Bft) N-NW 342 0 min 0,000 mm 0,0 UV-I 0 W/m 16,4 C 17,7 C 0,0 km/h (0 Bft) 100,00 %
10.08.2017 04:54 17,7 C 23,9 C 92 % 1012,0 hPa 0,0 l/m 0,2 km/h (0 Bft) N-NW 342 0 min 0,000 mm 0,0 UV-I 0 W/m 16,4 C 17,7 C 1,6 km/h (1 Bft) 100,00 %
10.08.2017 04:56 17,7 C 23,9 C 92 % 1012,2 hPa 0,0 l/m 0,2 km/h (0 Bft) N-NW 342 0 min 0,000 mm 0,0 UV-I 0 W/m 16,4 C 17,7 C 1,6 km/h (1 Bft) 100,00 %
10.08.2017 04:58 17,7 C 23,9 C 92 % 1012,2 hPa 0,0 l/m 0,4 km/h (0 Bft) N-NW 342 0 min 0,000 mm 0,0 UV-I 0 W/m 16,4 C 17,7 C 1,6 km/h (1 Bft) 96,23 %
10.08.2017 05:00 17,7 C 23,9 C 93 % 1012,2 hPa 0,0 l/m 0,2 km/h (0 Bft) N-NW 342 0 min 0,000 mm 0,0 UV-I 0 W/m 16,6 C 17,7 C 1,6 km/h (1 Bft) 100,00 %
10.08.2017 05:02 17,7 C 23,9 C 93 % 1012,2 hPa 0,0 l/m 0,7 km/h (0 Bft) N-NW 342 0 min 0,000 mm 0,0 UV-I 0 W/m 16,6 C 17,7 C 3,2 km/h (1 Bft) 100,00 %
10.08.2017 05:04 17,7 C 23,9 C 93 % 1012,2 hPa 0,0 l/m 0,3 km/h (0 Bft) N-NW 342 0 min 0,000 mm 0,0 UV-I 0 W/m 16,6 C 17,7 C 1,6 km/h (1 Bft) 100,00 %
10.08.2017 05:06 17,7 C 23,9 C 93 % 1012,3 hPa 0,0 l/m 0,3 km/h (0 Bft) N-NW 342 0 min 0,000 mm 0,0 UV-I 0 W/m 16,6 C 17,7 C 1,6 km/h (1 Bft) 100,00 %
10.08.2017 05:08 17,7 C 23,9 C 93 % 1012,3 hPa 0,0 l/m 0,0 km/h (0 Bft) N-NW 342 0 min 0,000 mm 0,0 UV-I 0 W/m 16,6 C 17,7 C 1,6 km/h (1 Bft) 100,00 %
10.08.2017 05:10 17,7 C 23,9 C 93 % 1012,4 hPa 0,0 l/m 0,0 km/h (0 Bft) N-NW 342 0 min 0,000 mm 0,0 UV-I 0 W/m 16,6 C 17,7 C 1,6 km/h (1 Bft) 100,00 %
10.08.2017 05:12 17,7 C 23,9 C 93 % 1012,4 hPa 0,0 l/m 0,1 km/h (0 Bft) N-NW 342 0 min 0,000 mm 0,0 UV-I 0 W/m 16,6 C 17,7 C 1,6 km/h (1 Bft) 100,00 %
10.08.2017 05:14 17,7 C 23,9 C 93 % 1012,4 hPa 0,0 l/m 0,0 km/h (0 Bft) N-NW 342 0 min 0,000 mm 0,0 UV-I 0 W/m 16,6 C 17,7 C 0,0 km/h (0 Bft) 100,00 %
10.08.2017 05:16 17,6 C 23,9 C 93 % 1012,4 hPa 0,0 l/m 0,0 km/h (0 Bft) N-NW 342 0 min 0,000 mm 0,0 UV-I 0 W/m 16,5 C 17,6 C 0,0 km/h (0 Bft) 100,00 %
10.08.2017 05:18 17,6 C 23,9 C 94 % 1012,5 hPa 0,0 l/m 0,1 km/h (0 Bft) N-NW 342 0 min 0,000 mm 0,0 UV-I 0 W/m 16,6 C 17,6 C 1,6 km/h (1 Bft) 97,73 %
10.08.2017 05:20 17,6 C 23,9 C 94 % 1012,5 hPa 0,0 l/m 1,0 km/h (0 Bft) N-NW 342 0 min 0,000 mm 0,0 UV-I 0 W/m 16,6 C 17,6 C 3,2 km/h (1 Bft) 100,00 %
10.08.2017 05:22 17,6 C 23,9 C 94 % 1012,5 hPa 0,0 l/m 1,9 km/h (1 Bft) W-NW 302 0 min 0,000 mm 0,0 UV-I 0 W/m 16,6 C 17,6 C 3,2 km/h (1 Bft) 98,11 %
10.08.2017 05:24 17,6 C 23,9 C 94 % 1012,6 hPa 0,0 l/m 3,1 km/h (1 Bft) SW 229 0 min 0,000 mm 0,0 UV-I 0 W/m 16,6 C 17,6 C 9,7 km/h (2 Bft) 94,00 %
10.08.2017 05:26 17,7 C 23,9 C 94 % 1012,7 hPa 0,0 l/m 4,1 km/h (1 Bft) SW 234 0 min 0,000 mm 0,0 UV-I 0 W/m 16,7 C 17,7 C 8,0 km/h (2 Bft) 100,00 %
10.08.2017 05:28 17,7 C 23,9 C 94 % 1012,7 hPa 0,0 l/m 4,4 km/h (1 Bft) SW 223 0 min 0,000 mm 0,0 UV-I 0 W/m 16,7 C 17,7 C 9,7 km/h (2 Bft) 96,23 %
10.08.2017 05:30 17,7 C 23,9 C 94 % 1012,7 hPa 0,0 l/m 4,1 km/h (1 Bft) W-SW 254 0 min 0,000 mm 0,0 UV-I 0 W/m 16,7 C 17,7 C 9,7 km/h (2 Bft) 97,87 %
10.08.2017 05:32 17,7 C 23,9 C 94 % 1012,8 hPa 0,0 l/m 4,1 km/h (1 Bft) SW 232 0 min 0,000 mm 0,0 UV-I 0 W/m 16,7 C 17,7 C 9,7 km/h (2 Bft) 97,37 %
10.08.2017 05:34 17,7 C 23,9 C 94 % 1012,8 hPa 0,0 l/m 1,4 km/h (1 Bft) SW 232 0 min 0,000 mm 0,0 UV-I 0 W/m 16,7 C 17,7 C 4,8 km/h (1 Bft) 98,11 %
10.08.2017 05:36 17,6 C 23,9 C 94 % 1012,7 hPa 0,0 l/m 3,1 km/h (1 Bft) SW 232 0 min 0,000 mm 0,0 UV-I 0 W/m 16,6 C 17,6 C 4,8 km/h (1 Bft) 98,00 %
10.08.2017 05:38 17,6 C 23,9 C 94 % 1012,7 hPa 0,0 l/m 1,6 km/h (1 Bft) SW 232 0 min 0,000 mm 0,0 UV-I 0 W/m 16,6 C 17,6 C 4,8 km/h (1 Bft) 97,56 %
10.08.2017 05:40 17,6 C 23,9 C 94 % 1012,7 hPa 0,0 l/m 1,6 km/h (1 Bft) SW 233 0 min 0,000 mm 0,0 UV-I 0 W/m 16,6 C 17,6 C 4,8 km/h (1 Bft) 95,74 %
10.08.2017 05:42 17,6 C 23,9 C 94 % 1012,7 hPa 0,0 l/m 1,2 km/h (1 Bft) SW 233 0 min 0,000 mm 0,0 UV-I 2 W/m 16,6 C 17,6 C 3,2 km/h (1 Bft) 94,00 %
10.08.2017 05:44 17,6 C 23,9 C 94 % 1012,6 hPa 0,0 l/m 3,0 km/h (1 Bft) W 269 0 min 0,000 mm 0,0 UV-I 5 W/m 16,6 C 17,6 C 6,4 km/h (2 Bft) 97,78 %
10.08.2017 05:46 17,6 C 23,9 C 94 % 1012,6 hPa 0,0 l/m 4,7 km/h (1 Bft) W 259 0 min 0,000 mm 0,0 UV-I 5 W/m 16,6 C 17,6 C 9,7 km/h (2 Bft) 98,00 %
10.08.2017 05:48 17,6 C 23,9 C 93 % 1012,6 hPa 0,0 l/m 2,3 km/h (1 Bft) W 281 0 min 0,000 mm 0,0 UV-I 5 W/m 16,5 C 17,6 C 4,8 km/h (1 Bft) 97,87 %
10.08.2017 05:50 17,6 C 23,9 C 93 % 1012,6 hPa 0,0 l/m 0,6 km/h (0 Bft) W 281 0 min 0,000 mm 0,0 UV-I 7 W/m 16,5 C 17,6 C 3,2 km/h (1 Bft) 97,56 %
10.08.2017 05:52 17,5 C 23,9 C 93 % 1012,5 hPa 0,0 l/m 3,3 km/h (1 Bft) W 271 0 min 0,000 mm 0,0 UV-I 7 W/m 16,4 C 17,5 C 11,3 km/h (2 Bft) 98,00 %
10.08.2017 05:54 17,5 C 23,9 C 93 % 1012,6 hPa 0,0 l/m 3,8 km/h (1 Bft) W-SW 255 0 min 0,000 mm 0,0 UV-I 9 W/m 16,4 C 17,5 C 6,4 km/h (2 Bft) 97,73 %
10.08.2017 05:56 17,6 C 23,9 C 93 % 1012,8 hPa 0,0 l/m 4,8 km/h (1 Bft) W-SW 244 0 min 0,000 mm 0,0 UV-I 9 W/m 16,5 C 17,6 C 8,0 km/h (2 Bft) 100,00 %
10.08.2017 05:58 17,6 C 23,9 C 93 % 1012,9 hPa 0,0 l/m 8,0 km/h (2 Bft) W-SW 238 0 min 0,000 mm 0,0 UV-I 11 W/m 16,5 C 16,8 C 12,9 km/h (3 Bft) 97,56 %
10.08.2017 06:00 17,6 C 23,9 C 93 % 1012,9 hPa 0,0 l/m 7,0 km/h (2 Bft) W-SW 249 0 min 0,000 mm 0,0 UV-I 12 W/m 16,5 C 17,3 C 11,3 km/h (2 Bft) 100,00 %
10.08.2017 06:02 17,6 C 23,9 C 93 % 1013,0 hPa 0,0 l/m 8,1 km/h (2 Bft) W-SW 240 0 min 0,000 mm 0,0 UV-I 14 W/m 16,5 C 16,8 C 12,9 km/h (3 Bft) 100,00 %
10.08.2017 06:04 17,6 C 23,9 C 93 % 1012,9 hPa 0,0 l/m 7,6 km/h (2 Bft) W-SW 252 2 min 0,000 mm 0,0 UV-I 18 W/m 16,5 C 17,0 C 11,3 km/h (2 Bft) 100,00 %
10.08.2017 06:06 17,6 C 23,9 C 93 % 1012,9 hPa 0,0 l/m 5,4 km/h (1 Bft) W-SW 246 2 min 0,000 mm 0,0 UV-I 21 W/m 16,5 C 17,6 C 11,3 km/h (2 Bft) 100,00 %
10.08.2017 06:08 17,6 C 23,9 C 93 % 1012,9 hPa 0,0 l/m 5,4 km/h (1 Bft) W-SW 245 2 min 0,000 mm 0,0 UV-I 25 W/m 16,5 C 17,6 C 9,7 km/h (2 Bft) 96,00 %
10.08.2017 06:10 17,6 C 23,9 C 93 % 1012,8 hPa 0,0 l/m 6,0 km/h (2 Bft) W-SW 241 2 min 0,000 mm 0,0 UV-I 28 W/m 16,5 C 17,6 C 9,7 km/h (2 Bft) 100,00 %
10.08.2017 06:12 17,6 C 23,9 C 93 % 1012,9 hPa 0,0 l/m 7,4 km/h (2 Bft) W-SW 248 2 min 0,000 mm 0,0 UV-I 32 W/m 16,5 C 17,1 C 12,9 km/h (3 Bft) 97,73 %
10.08.2017 06:14 17,6 C 23,9 C 93 % 1013,0 hPa 0,0 l/m 9,1 km/h (2 Bft) W-SW 238 2 min 0,000 mm 0,0 UV-I 37 W/m 16,5 C 16,4 C 14,5 km/h (3 Bft) 100,00 %
10.08.2017 06:16 17,6 C 23,9 C 93 % 1013,0 hPa 0,0 l/m 8,2 km/h (2 Bft) W-SW 250 2 min 0,000 mm 0,0 UV-I 40 W/m 16,5 C 16,7 C 12,9 km/h (3 Bft) 100,00 %
10.08.2017 06:18 17,6 C 23,9 C 93 % 1013,0 hPa 0,0 l/m 4,7 km/h (1 Bft) W-SW 242 2 min 0,000 mm 0,0 UV-I 45 W/m 16,5 C 17,6 C 9,7 km/h (2 Bft) 100,00 %
10.08.2017 06:20 17,6 C 23,9 C 93 % 1013,0 hPa 0,0 l/m 3,9 km/h (1 Bft) S-SW 192 2 min 0,000 mm 0,0 UV-I 50 W/m 16,5 C 17,6 C 6,4 km/h (2 Bft) 100,00 %
10.08.2017 06:22 17,6 C 23,9 C 93 % 1013,0 hPa 0,0 l/m 3,4 km/h (1 Bft) SW 214 2 min 0,000 mm 0,0 UV-I 55 W/m 16,5 C 17,6 C 4,8 km/h (1 Bft) 97,56 %
10.08.2017 06:24 17,7 C 23,9 C 93 % 1013,1 hPa 0,0 l/m 5,1 km/h (1 Bft) S-SW 210 2 min 0,000 mm 0,0 UV-I 62 W/m 16,6 C 17,7 C 8,0 km/h (2 Bft) 100,00 %
10.08.2017 06:26 17,7 C 23,9 C 93 % 1013,1 hPa 0,0 l/m 5,2 km/h (1 Bft) S-SW 209 2 min 0,000 mm 0,0 UV-I 68 W/m 16,6 C 17,7 C 9,7 km/h (2 Bft) 100,00 %
10.08.2017 06:28 17,7 C 23,9 C 93 % 1013,1 hPa 0,0 l/m 5,9 km/h (2 Bft) S-SW 211 2 min 0,000 mm 0,0 UV-I 73 W/m 16,6 C 17,7 C 8,0 km/h (2 Bft) 98,00 %
10.08.2017 06:30 17,7 C 23,9 C 94 % 1013,0 hPa 0,0 l/m 4,4 km/h (1 Bft) S-SW 211 2 min 0,000 mm 0,0 UV-I 78 W/m 16,7 C 17,7 C 8,0 km/h (2 Bft) 100,00 %
10.08.2017 06:32 17,8 C 23,9 C 94 % 1013,1 hPa 0,0 l/m 5,0 km/h (1 Bft) SW 221 2 min 0,000 mm 0,0 UV-I 84 W/m 16,8 C 17,8 C 8,0 km/h (2 Bft) 100,00 %
10.08.2017 06:34 17,8 C 23,9 C 94 % 1013,1 hPa 0,0 l/m 4,8 km/h (1 Bft) S-SW 192 2 min 0,000 mm 0,0 UV-I 90 W/m 16,8 C 17,8 C 9,7 km/h (2 Bft) 100,00 %
10.08.2017 06:36 17,8 C 23,9 C 94 % 1013,1 hPa 0,0 l/m 5,5 km/h (1 Bft) S-SW 212 2 min 0,000 mm 0,0 UV-I 94 W/m 16,8 C 17,8 C 9,7 km/h (2 Bft) 100,00 %
10.08.2017 06:38 17,9 C 23,9 C 94 % 1013,0 hPa 0,0 l/m 5,8 km/h (2 Bft) W-SW 246 2 min 0,000 mm 0,0 UV-I 99 W/m 16,9 C 17,9 C 8,0 km/h (2 Bft) 97,56 %
10.08.2017 06:40 17,9 C 23,9 C 94 % 1013,0 hPa 0,0 l/m 7,4 km/h (2 Bft) SW 223 2 min 0,000 mm 0,0 UV-I 102 W/m 16,9 C 17,4 C 11,3 km/h (2 Bft) 98,11 %
10.08.2017 06:42 17,9 C 23,9 C 94 % 1013,0 hPa 0,0 l/m 7,0 km/h (2 Bft) SW 215 2 min 0,000 mm 0,0 UV-I 105 W/m 16,9 C 17,6 C 12,9 km/h (3 Bft) 97,44 %
10.08.2017 06:44 18,0 C 23,9 C 94 % 1013,1 hPa 0,0 l/m 6,1 km/h (2 Bft) SW 229 2 min 0,000 mm 0,0 UV-I 109 W/m 17,0 C 18,0 C 8,0 km/h (2 Bft) 100,00 %
10.08.2017 06:46 18,1 C 23,9 C 94 % 1013,2 hPa 0,0 l/m 5,4 km/h (1 Bft) S-SW 209 2 min 0,000 mm 0,0 UV-I 113 W/m 17,1 C 18,1 C 8,0 km/h (2 Bft) 98,00 %
10.08.2017 06:48 18,1 C 23,9 C 94 % 1013,4 hPa 0,0 l/m 7,6 km/h (2 Bft) S-SW 202 2 min 0,000 mm 0,0 UV-I 111 W/m 17,1 C 17,5 C 11,3 km/h (2 Bft) 100,00 %
10.08.2017 06:50 18,1 C 23,9 C 94 % 1013,4 hPa 0,0 l/m 6,1 km/h (2 Bft) S 186 2 min 0,000 mm 0,0 UV-I 109 W/m 17,1 C 18,1 C 9,7 km/h (2 Bft) 100,00 %
10.08.2017 06:52 18,1 C 23,9 C 94 % 1013,5 hPa 0,0 l/m 5,8 km/h (2 Bft) S-SW 209 2 min 0,000 mm 0,0 UV-I 111 W/m 17,1 C 18,1 C 9,7 km/h (2 Bft) 100,00 %
10.08.2017 06:54 18,2 C 23,9 C 94 % 1013,5 hPa 0,0 l/m 3,8 km/h (1 Bft) S-SW 212 2 min 0,000 mm 0,0 UV-I 130 W/m 17,2 C 18,2 C 4,8 km/h (1 Bft) 100,00 %
10.08.2017 06:56 18,2 C 23,9 C 94 % 1013,5 hPa 0,0 l/m 4,8 km/h (1 Bft) S-SW 213 2 min 0,000 mm 0,0 UV-I 142 W/m 17,2 C 18,2 C 6,4 km/h (2 Bft) 100,00 %
10.08.2017 06:58 18,2 C 23,9 C 94 % 1013,6 hPa 0,0 l/m 3,7 km/h (1 Bft) SW 215 2 min 0,000 mm 0,0 UV-I 133 W/m 17,2 C 18,2 C 4,8 km/h (1 Bft) 100,00 %
10.08.2017 07:00 18,3 C 23,9 C 94 % 1013,6 hPa 0,0 l/m 5,2 km/h (1 Bft) W-SW 244 2 min 0,000 mm 0,0 UV-I 122 W/m 17,3 C 18,3 C 6,4 km/h (2 Bft) 97,14 %
10.08.2017 07:02 18,3 C 23,9 C 93 % 1013,6 hPa 0,0 l/m 4,7 km/h (1 Bft) W-SW 258 2 min 0,051 mm 0,0 UV-I 113 W/m 17,1 C 18,3 C 6,4 km/h (2 Bft) 98,21 %
10.08.2017 07:04 18,3 C 23,9 C 93 % 1013,6 hPa 0,0 l/m 5,9 km/h (2 Bft) W-SW 249 2 min 0,000 mm 0,0 UV-I 116 W/m 17,1 C 18,3 C 8,0 km/h (2 Bft) 97,37 %
10.08.2017 07:06 18,4 C 23,9 C 93 % 1013,6 hPa 0,0 l/m 5,4 km/h (1 Bft) SW 230 2 min 0,000 mm 0,0 UV-I 119 W/m 17,2 C 18,4 C 6,4 km/h (2 Bft) 98,11 %
10.08.2017 07:08 18,4 C 23,9 C 93 % 1013,6 hPa 0,0 l/m 6,7 km/h (2 Bft) SW 226 2 min 0,000 mm 0,0 UV-I 122 W/m 17,2 C 18,3 C 8,0 km/h (2 Bft) 96,00 %
10.08.2017 07:10 18,4 C 23,9 C 93 % 1013,6 hPa 0,0 l/m 6,4 km/h (2 Bft) W-SW 250 2 min 0,000 mm 0,0 UV-I 125 W/m 17,2 C 18,4 C 8,0 km/h (2 Bft) 97,73 %
10.08.2017 07:12 18,5 C 23,9 C 93 % 1013,6 hPa 0,0 l/m 6,8 km/h (2 Bft) W-SW 251 2 min 0,000 mm 0,0 UV-I 125 W/m 17,3 C 18,3 C 11,3 km/h (2 Bft) 98,00 %
10.08.2017 07:14 18,6 C 23,9 C 93 % 1013,6 hPa 0,0 l/m 14,3 km/h (3 Bft) W-SW 249 2 min 0,000 mm 0,0 UV-I 126 W/m 17,4 C 15,7 C 19,3 km/h (3 Bft) 97,87 %
10.08.2017 07:16 18,6 C 23,9 C 93 % 1013,6 hPa 0,0 l/m 9,1 km/h (2 Bft) W 266 2 min 0,000 mm 0,0 UV-I 124 W/m 17,4 C 17,4 C 16,1 km/h (3 Bft) 97,73 %
10.08.2017 07:18 18,6 C 23,9 C 93 % 1013,6 hPa 0,0 l/m 11,1 km/h (2 Bft) SW 220 2 min 0,000 mm 0,0 UV-I 130 W/m 17,4 C 16,7 C 17,7 km/h (3 Bft) 97,62 %
10.08.2017 07:20 18,7 C 23,9 C 92 % 1013,6 hPa 0,0 l/m 10,1 km/h (2 Bft) W 260 2 min 0,000 mm 0,0 UV-I 134 W/m 17,4 C 17,2 C 16,1 km/h (3 Bft) 98,08 %
10.08.2017 07:22 18,7 C 23,9 C 92 % 1013,6 hPa 0,0 l/m 10,5 km/h (2 Bft) W-SW 252 2 min 0,000 mm 0,0 UV-I 138 W/m 17,4 C 17,0 C 16,1 km/h (3 Bft) 95,24 %
10.08.2017 07:24 18,7 C 23,9 C 92 % 1013,6 hPa 0,0 l/m 9,1 km/h (2 Bft) SW 225 2 min 0,000 mm 0,0 UV-I 140 W/m 17,4 C 17,5 C 14,5 km/h (3 Bft) 92,68 %
10.08.2017 07:26 18,8 C 23,9 C 92 % 1013,6 hPa 0,0 l/m 9,5 km/h (2 Bft) W 259 2 min 0,000 mm 0,0 UV-I 140 W/m 17,5 C 17,5 C 16,1 km/h (3 Bft) 95,16 %
10.08.2017 07:28 18,8 C 23,9 C 92 % 1013,6 hPa 0,0 l/m 8,0 km/h (2 Bft) W-SW 238 0 min 0,000 mm 0,0 UV-I 129 W/m 17,5 C 18,1 C 14,5 km/h (3 Bft) 94,29 %
10.08.2017 07:30 18,8 C 23,9 C 92 % 1013,6 hPa 0,0 l/m 9,6 km/h (2 Bft) W-SW 238 0 min 0,000 mm 0,0 UV-I 115 W/m 17,5 C 17,5 C 14,5 km/h (3 Bft) 95,45 %
10.08.2017 07:32 18,8 C 23,9 C 91 % 1013,7 hPa 0,0 l/m 10,5 km/h (2 Bft) S-SW 211 0 min 0,000 mm 0,0 UV-I 110 W/m 17,3 C 17,1 C 16,1 km/h (3 Bft) 94,92 %
10.08.2017 07:34 18,8 C 23,9 C 91 % 1013,7 hPa 0,0 l/m 10,1 km/h (2 Bft) W-SW 243 0 min 0,000 mm 0,0 UV-I 102 W/m 17,3 C 17,3 C 14,5 km/h (3 Bft) 95,45 %
10.08.2017 07:36 18,8 C 23,9 C 91 % 1013,9 hPa 0,0 l/m 8,6 km/h (2 Bft) W-SW 257 0 min 0,000 mm 0,0 UV-I 98 W/m 17,3 C 17,8 C 12,9 km/h (3 Bft) 92,11 %
10.08.2017 07:38 18,8 C 23,9 C 91 % 1013,9 hPa 0,0 l/m 8,5 km/h (2 Bft) W-SW 246 0 min 0,000 mm 0,0 UV-I 94 W/m 17,3 C 17,9 C 12,9 km/h (3 Bft) 96,43 %
10.08.2017 07:40 18,8 C 23,9 C 91 % 1013,9 hPa 0,0 l/m 7,2 km/h (2 Bft) SW 230 0 min 0,000 mm 0,0 UV-I 82 W/m 17,3 C 18,4 C 11,3 km/h (2 Bft) 96,00 %
10.08.2017 07:42 18,8 C 23,9 C 91 % 1014,0 hPa 0,0 l/m 8,5 km/h (2 Bft) SW 229 0 min 0,000 mm 0,0 UV-I 78 W/m 17,3 C 17,9 C 12,9 km/h (3 Bft) 94,74 %
10.08.2017 07:44 18,8 C 23,9 C 91 % 1013,9 hPa 0,0 l/m 8,6 km/h (2 Bft) S-SW 196 0 min 0,000 mm 0,0 UV-I 77 W/m 17,3 C 17,8 C 12,9 km/h (3 Bft) 94,64 %
10.08.2017 07:46 18,8 C 23,9 C 91 % 1013,9 hPa 0,0 l/m 8,4 km/h (2 Bft) W 264 0 min 0,000 mm 0,0 UV-I 77 W/m 17,3 C 17,9 C 14,5 km/h (3 Bft) 94,74 %
10.08.2017 07:48 18,8 C 23,9 C 91 % 1014,0 hPa 0,0 l/m 6,9 km/h (2 Bft) SW 229 0 min 0,000 mm 0,0 UV-I 76 W/m 17,3 C 18,6 C 9,7 km/h (2 Bft) 96,00 %
10.08.2017 07:50 18,7 C 23,9 C 91 % 1014,0 hPa 0,0 l/m 6,8 km/h (2 Bft) SW 223 0 min 0,000 mm 0,0 UV-I 73 W/m 17,2 C 18,5 C 12,9 km/h (3 Bft) 95,45 %
10.08.2017 07:52 18,7 C 23,9 C 91 % 1014,0 hPa 0,0 l/m 7,4 km/h (2 Bft) W 264 0 min 0,000 mm 0,0 UV-I 72 W/m 17,2 C 18,2 C 12,9 km/h (3 Bft) 94,64 %
10.08.2017 07:54 18,7 C 23,9 C 91 % 1014,0 hPa 0,0 l/m 6,3 km/h (2 Bft) W-SW 239 0 min 0,000 mm 0,0 UV-I 70 W/m 17,2 C 18,7 C 11,3 km/h (2 Bft) 94,74 %
10.08.2017 07:56 18,7 C 23,9 C 91 % 1014,0 hPa 0,0 l/m 6,0 km/h (2 Bft) SW 219 0 min 0,000 mm 0,0 UV-I 67 W/m 17,2 C 18,7 C 8,0 km/h (2 Bft) 96,00 %
10.08.2017 07:58 18,7 C 23,9 C 91 % 1014,0 hPa 0,0 l/m 5,1 km/h (1 Bft) SW 232 0 min 0,000 mm 0,0 UV-I 65 W/m 17,2 C 18,7 C 8,0 km/h (2 Bft) 97,87 %
10.08.2017 08:00 18,7 C 23,9 C 91 % 1014,0 hPa 0,0 l/m 4,2 km/h (1 Bft) SW 235 0 min 0,076 mm 0,0 UV-I 65 W/m 17,2 C 18,7 C 6,4 km/h (2 Bft) 97,62 %
10.08.2017 08:02 18,7 C 23,9 C 91 % 1013,9 hPa 0,0 l/m 5,4 km/h (1 Bft) SW 235 0 min 0,000 mm 0,0 UV-I 65 W/m 17,2 C 18,7 C 6,4 km/h (2 Bft) 100,00 %
10.08.2017 08:04 18,7 C 23,9 C 91 % 1013,9 hPa 0,0 l/m 4,7 km/h (1 Bft) W-SW 250 0 min 0,000 mm 0,0 UV-I 65 W/m 17,2 C 18,7 C 8,0 km/h (2 Bft) 97,56 %
10.08.2017 08:06 18,7 C 23,9 C 91 % 1013,7 hPa 0,0 l/m 4,9 km/h (1 Bft) W-SW 252 0 min 0,000 mm 0,0 UV-I 64 W/m 17,2 C 18,7 C 9,7 km/h (2 Bft) 100,00 %
10.08.2017 08:08 18,7 C 23,9 C 91 % 1013,7 hPa 0,0 l/m 6,5 km/h (2 Bft) W 259 0 min 0,000 mm 0,0 UV-I 60 W/m 17,2 C 18,7 C 12,9 km/h (3 Bft) 100,00 %
10.08.2017 08:10 18,6 C 23,9 C 91 % 1013,7 hPa 0,0 l/m 4,9 km/h (1 Bft) W-SW 254 0 min 0,000 mm 0,0 UV-I 55 W/m 17,1 C 18,6 C 8,0 km/h (2 Bft) 100,00 %
10.08.2017 08:12 18,6 C 23,9 C 91 % 1013,7 hPa 0,0 l/m 5,2 km/h (1 Bft) W-SW 254 0 min 0,000 mm 0,0 UV-I 54 W/m 17,1 C 18,6 C 6,4 km/h (2 Bft) 100,00 %
10.08.2017 08:14 18,6 C 23,9 C 91 % 1013,8 hPa 0,0 l/m 5,0 km/h (1 Bft) W 267 0 min 0,000 mm 0,0 UV-I 54 W/m 17,1 C 18,6 C 8,0 km/h (2 Bft) 100,00 %
10.08.2017 08:16 18,6 C 23,9 C 91 % 1013,9 hPa 0,0 l/m 4,9 km/h (1 Bft) W-SW 241 0 min 0,000 mm 0,0 UV-I 54 W/m 17,1 C 18,6 C 8,0 km/h (2 Bft) 98,00 %
10.08.2017 08:18 18,6 C 23,9 C 91 % 1014,0 hPa 0,0 l/m 6,0 km/h (2 Bft) SW 232 0 min 0,000 mm 0,0 UV-I 61 W/m 17,1 C 18,6 C 8,0 km/h (2 Bft) 100,00 %
10.08.2017 08:20 18,6 C 23,9 C 91 % 1014,0 hPa 0,0 l/m 5,6 km/h (1 Bft) SW 227 0 min 0,000 mm 0,0 UV-I 61 W/m 17,1 C 18,6 C 6,4 km/h (2 Bft) 100,00 %
10.08.2017 08:22 18,6 C 23,9 C 91 % 1014,0 hPa 0,0 l/m 4,5 km/h (1 Bft) SW 229 0 min 0,000 mm 0,0 UV-I 58 W/m 17,1 C 18,6 C 8,0 km/h (2 Bft) 100,00 %
10.08.2017 08:24 18,6 C 23,9 C 91 % 1014,1 hPa 0,0 l/m 5,8 km/h (2 Bft) SW 232 0 min 0,000 mm 0,0 UV-I 60 W/m 17,1 C 18,6 C 8,0 km/h (2 Bft) 100,00 %
10.08.2017 08:26 18,6 C 23,9 C 91 % 1014,2 hPa 0,0 l/m 6,0 km/h (2 Bft) SW 226 0 min 0,000 mm 0,0 UV-I 69 W/m 17,1 C 18,6 C 9,7 km/h (2 Bft) 100,00 %
10.08.2017 08:28 18,7 C 23,9 C 91 % 1014,3 hPa 0,0 l/m 4,9 km/h (1 Bft) SW 222 0 min 0,000 mm 0,0 UV-I 83 W/m 17,2 C 18,7 C 8,0 km/h (2 Bft) 97,14 %
10.08.2017 08:30 18,7 C 23,9 C 91 % 1014,3 hPa 0,0 l/m 5,3 km/h (1 Bft) SW 227 0 min 0,000 mm 0,0 UV-I 72 W/m 17,2 C 18,7 C 9,7 km/h (2 Bft) 98,11 %
10.08.2017 08:32 18,7 C 23,9 C 91 % 1014,4 hPa 0,0 l/m 4,6 km/h (1 Bft) S-SW 198 0 min 0,000 mm 0,0 UV-I 73 W/m 17,2 C 18,7 C 8,0 km/h (2 Bft) 98,00 %
10.08.2017 08:34 18,7 C 23,9 C 91 % 1014,3 hPa 0,0 l/m 5,9 km/h (2 Bft) SW 225 0 min 0,000 mm 0,2 UV-I 85 W/m 17,2 C 18,7 C 8,0 km/h (2 Bft) 100,00 %
10.08.2017 08:36 18,8 C 23,9 C 91 % 1014,4 hPa 0,0 l/m 5,1 km/h (1 Bft) SW 224 0 min 0,000 mm 0,5 UV-I 80 W/m 17,3 C 18,8 C 6,4 km/h (2 Bft) 100,00 %
10.08.2017 08:38 18,8 C 23,9 C 91 % 1014,4 hPa 0,0 l/m 4,7 km/h (1 Bft) SW 216 0 min 0,000 mm 0,5 UV-I 78 W/m 17,3 C 18,8 C 11,3 km/h (2 Bft) 95,74 %
10.08.2017 08:40 18,8 C 23,9 C 91 % 1014,4 hPa 0,0 l/m 6,1 km/h (2 Bft) S-SW 205 0 min 0,000 mm 0,6 UV-I 84 W/m 17,3 C 18,8 C 9,7 km/h (2 Bft) 97,87 %
10.08.2017 08:42 18,8 C 23,9 C 91 % 1014,4 hPa 0,0 l/m 6,1 km/h (2 Bft) SW 227 0 min 0,000 mm 0,6 UV-I 77 W/m 17,3 C 18,8 C 8,0 km/h (2 Bft) 98,00 %
10.08.2017 08:44 18,8 C 23,9 C 91 % 1014,5 hPa 0,0 l/m 5,6 km/h (1 Bft) SW 225 0 min 0,000 mm 0,6 UV-I 88 W/m 17,3 C 18,8 C 8,0 km/h (2 Bft) 98,11 %
10.08.2017 08:46 18,8 C 23,9 C 91 % 1014,6 hPa 0,0 l/m 7,0 km/h (2 Bft) SW 215 0 min 0,000 mm 0,7 UV-I 122 W/m 17,3 C 18,5 C 12,9 km/h (3 Bft) 100,00 %
10.08.2017 08:48 18,9 C 23,9 C 90 % 1014,6 hPa 0,0 l/m 8,0 km/h (2 Bft) SW 233 0 min 0,000 mm 0,9 UV-I 241 W/m 17,2 C 18,2 C 11,3 km/h (2 Bft) 100,00 %
10.08.2017 08:50 19,1 C 23,9 C 91 % 1014,6 hPa 0,0 l/m 6,9 km/h (2 Bft) W-SW 246 2 min 0,000 mm 0,9 UV-I 263 W/m 17,6 C 18,9 C 11,3 km/h (2 Bft) 100,00 %
10.08.2017 08:52 19,2 C 23,9 C 90 % 1014,6 hPa 0,0 l/m 7,5 km/h (2 Bft) SW 230 0 min 0,000 mm 1,0 UV-I 243 W/m 17,5 C 18,7 C 11,3 km/h (2 Bft) 100,00 %
10.08.2017 08:54 19,3 C 23,9 C 90 % 1014,7 hPa 0,0 l/m 4,9 km/h (1 Bft) SW 231 0 min 0,000 mm 1,0 UV-I 254 W/m 17,6 C 19,3 C 8,0 km/h (2 Bft) 95,12 %
10.08.2017 08:56 19,4 C 23,9 C 89 % 1014,7 hPa 0,0 l/m 8,0 km/h (2 Bft) W-SW 246 2 min 0,000 mm 1,1 UV-I 290 W/m 17,5 C 18,7 C 12,9 km/h (3 Bft) 100,00 %
10.08.2017 08:58 19,5 C 23,9 C 89 % 1014,8 hPa 0,0 l/m 8,4 km/h (2 Bft) W-SW 246 2 min 0,000 mm 1,2 UV-I 330 W/m 17,6 C 18,7 C 14,5 km/h (3 Bft) 100,00 %
10.08.2017 09:00 19,6 C 23,9 C 88 % 1014,8 hPa 0,0 l/m 11,9 km/h (2 Bft) W-SW 257 2 min 0,076 mm 1,1 UV-I 294 W/m 17,6 C 17,6 C 17,7 km/h (3 Bft) 98,00 %
10.08.2017 09:02 19,6 C 23,9 C 88 % 1014,9 hPa 0,0 l/m 9,3 km/h (2 Bft) S-SW 211 0 min 0,000 mm 1,0 UV-I 240 W/m 17,6 C 18,4 C 12,9 km/h (3 Bft) 100,00 %
10.08.2017 09:04 19,7 C 23,9 C 88 % 1014,8 hPa 0,0 l/m 7,9 km/h (2 Bft) SW 226 2 min 0,000 mm 1,2 UV-I 329 W/m 17,7 C 19,1 C 12,9 km/h (3 Bft) 100,00 %
10.08.2017 09:06 19,7 C 23,9 C 87 % 1014,7 hPa 0,0 l/m 11,7 km/h (2 Bft) SW 225 2 min 0,000 mm 1,1 UV-I 398 W/m 17,5 C 17,8 C 16,1 km/h (3 Bft) 100,00 %
10.08.2017 09:08 19,7 C 23,9 C 87 % 1014,6 hPa 0,0 l/m 8,9 km/h (2 Bft) SW 215 0 min 0,000 mm 0,9 UV-I 184 W/m 17,5 C 18,7 C 14,5 km/h (3 Bft) 100,00 %
10.08.2017 09:10 19,7 C 23,9 C 87 % 1014,5 hPa 0,0 l/m 11,5 km/h (2 Bft) W 261 0 min 0,000 mm 0,8 UV-I 136 W/m 17,5 C 17,8 C 16,1 km/h (3 Bft) 96,00 %
10.08.2017 09:12 19,7 C 23,9 C 87 % 1014,3 hPa 0,0 l/m 11,5 km/h (2 Bft) W 267 0 min 0,000 mm 0,8 UV-I 131 W/m 17,5 C 17,8 C 16,1 km/h (3 Bft) 100,00 %
10.08.2017 09:14 19,6 C 23,9 C 87 % 1014,3 hPa 0,0 l/m 9,3 km/h (2 Bft) W-SW 252 0 min 0,000 mm 0,8 UV-I 131 W/m 17,4 C 18,4 C 12,9 km/h (3 Bft) 100,00 %
10.08.2017 09:16 19,6 C 23,9 C 87 % 1014,4 hPa 0,0 l/m 9,1 km/h (2 Bft) W-SW 241 0 min 0,000 mm 0,8 UV-I 139 W/m 17,4 C 18,5 C 16,1 km/h (3 Bft) 98,11 %
10.08.2017 09:18 19,5 C 23,9 C 87 % 1014,4 hPa 0,0 l/m 6,1 km/h (2 Bft) S-SW 208 0 min 0,000 mm 0,9 UV-I 149 W/m 17,3 C 19,5 C 9,7 km/h (2 Bft) 97,78 %
10.08.2017 09:20 19,6 C 23,9 C 87 % 1014,5 hPa 0,0 l/m 6,5 km/h (2 Bft) SW 229 0 min 0,000 mm 0,9 UV-I 162 W/m 17,4 C 19,6 C 12,9 km/h (3 Bft) 97,56 %
10.08.2017 09:22 19,6 C 23,9 C 87 % 1014,6 hPa 0,0 l/m 5,1 km/h (1 Bft) W 261 0 min 0,000 mm 1,0 UV-I 168 W/m 17,4 C 19,6 C 8,0 km/h (2 Bft) 96,43 %
10.08.2017 09:24 19,6 C 23,9 C 88 % 1014,6 hPa 0,0 l/m 4,7 km/h (1 Bft) S-SW 202 0 min 0,000 mm 0,9 UV-I 159 W/m 17,6 C 19,6 C 6,4 km/h (2 Bft) 95,74 %
10.08.2017 09:26 19,6 C 23,9 C 87 % 1014,8 hPa 0,0 l/m 3,1 km/h (1 Bft) S-SW 202 0 min 0,000 mm 0,9 UV-I 154 W/m 17,4 C 19,6 C 6,4 km/h (2 Bft) 97,56 %
10.08.2017 09:28 19,6 C 23,9 C 88 % 1014,8 hPa 0,0 l/m 5,5 km/h (1 Bft) S-SW 213 0 min 0,000 mm 0,9 UV-I 151 W/m 17,6 C 19,6 C 9,7 km/h (2 Bft) 95,74 %
10.08.2017 09:30 19,6 C 23,9 C 87 % 1015,0 hPa 0,0 l/m 7,6 km/h (2 Bft) SW 219 0 min 0,000 mm 0,8 UV-I 151 W/m 17,4 C 19,1 C 11,3 km/h (2 Bft) 98,11 %
10.08.2017 09:32 19,7 C 23,9 C 87 % 1014,9 hPa 0,0 l/m 5,5 km/h (1 Bft) SW 230 0 min 0,000 mm 1,0 UV-I 169 W/m 17,5 C 19,7 C 8,0 km/h (2 Bft) 95,12 %
10.08.2017 09:34 19,7 C 23,9 C 87 % 1014,9 hPa 0,0 l/m 9,3 km/h (2 Bft) SW 229 0 min 0,000 mm 1,1 UV-I 190 W/m 17,5 C 18,6 C 12,9 km/h (3 Bft) 98,11 %
10.08.2017 09:36 19,7 C 23,9 C 87 % 1014,8 hPa 0,0 l/m 5,8 km/h (2 Bft) W-SW 247 0 min 0,000 mm 1,1 UV-I 200 W/m 17,5 C 19,7 C 11,3 km/h (2 Bft) 97,87 %
10.08.2017 09:38 19,8 C 23,9 C 87 % 1014,7 hPa 0,0 l/m 4,6 km/h (1 Bft) W-SW 252 0 min 0,000 mm 1,1 UV-I 207 W/m 17,6 C 19,8 C 9,7 km/h (2 Bft) 97,87 %
10.08.2017 09:40 19,8 C 23,9 C 86 % 1014,6 hPa 0,0 l/m 5,5 km/h (1 Bft) SW 215 0 min 0,000 mm 1,1 UV-I 208 W/m 17,4 C 19,8 C 8,0 km/h (2 Bft) 95,74 %
10.08.2017 09:42 19,8 C 23,9 C 86 % 1014,6 hPa 0,0 l/m 3,2 km/h (1 Bft) SW 221 0 min 0,000 mm 1,1 UV-I 204 W/m 17,4 C 19,8 C 4,8 km/h (1 Bft) 97,37 %
10.08.2017 09:44 19,8 C 23,9 C 85 % 1014,6 hPa 0,0 l/m 3,7 km/h (1 Bft) SW 221 0 min 0,000 mm 1,1 UV-I 201 W/m 17,2 C 19,8 C 6,4 km/h (2 Bft) 95,74 %
10.08.2017 09:46 19,8 C 23,9 C 86 % 1014,5 hPa 0,0 l/m 3,0 km/h (1 Bft) SW 231 0 min 0,000 mm 1,1 UV-I 200 W/m 17,4 C 19,8 C 4,8 km/h (1 Bft) 91,49 %
10.08.2017 09:48 19,8 C 23,9 C 85 % 1014,4 hPa 0,0 l/m 1,7 km/h (1 Bft) SW 231 0 min 0,000 mm 1,1 UV-I 196 W/m 17,2 C 19,8 C 4,8 km/h (1 Bft) 98,11 %
10.08.2017 09:50 19,8 C 23,9 C 85 % 1014,0 hPa 0,0 l/m 0,8 km/h (0 Bft) SW 231 0 min 0,000 mm 1,0 UV-I 190 W/m 17,2 C 19,8 C 3,2 km/h (1 Bft) 97,56 %
10.08.2017 09:52 19,8 C 23,9 C 85 % 1014,0 hPa 0,0 l/m 0,0 km/h (0 Bft) SW 231 0 min 0,000 mm 1,0 UV-I 182 W/m 17,2 C 19,8 C 0,0 km/h (0 Bft) 93,62 %
10.08.2017 09:54 19,8 C 23,9 C 86 % 1013,8 hPa 0,0 l/m 1,4 km/h (1 Bft) NW 308 0 min 0,000 mm 0,9 UV-I 169 W/m 17,4 C 19,8 C 4,8 km/h (1 Bft) 98,11 %
10.08.2017 09:56 19,8 C 23,9 C 86 % 1013,8 hPa 0,0 l/m 3,0 km/h (1 Bft) W-NW 283 0 min 0,000 mm 0,8 UV-I 149 W/m 17,4 C 19,8 C 4,8 km/h (1 Bft) 100,00 %
10.08.2017 09:58 19,8 C 23,9 C 86 % 1013,9 hPa 0,0 l/m 2,5 km/h (1 Bft) W-NW 285 0 min 0,000 mm 0,7 UV-I 137 W/m 17,4 C 19,8 C 4,8 km/h (1 Bft) 98,11 %
10.08.2017 10:00 19,8 C 23,9 C 86 % 1014,5 hPa 0,0 l/m 4,8 km/h (1 Bft) SW 231 0 min 0,127 mm 0,7 UV-I 134 W/m 17,4 C 19,8 C 11,3 km/h (2 Bft) 100,00 %
10.08.2017 10:02 19,8 C 23,9 C 86 % 1014,8 hPa 0,0 l/m 6,6 km/h (2 Bft) S 170 0 min 0,000 mm 0,7 UV-I 131 W/m 17,4 C 19,7 C 9,7 km/h (2 Bft) 100,00 %
10.08.2017 10:04 19,8 C 23,9 C 86 % 1015,0 hPa 0,0 l/m 5,6 km/h (1 Bft) S-SO 163 0 min 0,000 mm 0,7 UV-I 131 W/m 17,4 C 19,8 C 9,7 km/h (2 Bft) 98,00 %
10.08.2017 10:06 19,8 C 23,9 C 86 % 1014,9 hPa 0,0 l/m 4,8 km/h (1 Bft) S 173 0 min 0,000 mm 0,8 UV-I 141 W/m 17,4 C 19,8 C 8,0 km/h (2 Bft) 100,00 %
10.08.2017 10:08 19,8 C 23,9 C 86 % 1014,9 hPa 0,0 l/m 2,0 km/h (1 Bft) S-SO 155 0 min 0,000 mm 0,8 UV-I 154 W/m 17,4 C 19,8 C 6,4 km/h (2 Bft) 100,00 %
10.08.2017 10:10 19,8 C 23,9 C 86 % 1014,9 hPa 0,0 l/m 1,8 km/h (1 Bft) S-SO 157 0 min 0,000 mm 0,9 UV-I 169 W/m 17,4 C 19,8 C 4,8 km/h (1 Bft) 97,87 %
10.08.2017 10:12 19,9 C 23,9 C 86 % 1014,7 hPa 0,0 l/m 1,4 km/h (1 Bft) S-SO 157 0 min 0,000 mm 1,0 UV-I 187 W/m 17,5 C 19,9 C 4,8 km/h (1 Bft) 100,00 %
10.08.2017 10:14 19,9 C 23,9 C 86 % 1014,5 hPa 0,0 l/m 0,0 km/h (0 Bft) S-SO 156 0 min 0,000 mm 1,2 UV-I 206 W/m 17,5 C 19,9 C 0,0 km/h (0 Bft) 97,56 %
10.08.2017 10:16 19,9 C 23,9 C 86 % 1014,4 hPa 0,0 l/m 0,1 km/h (0 Bft) S-SO 156 0 min 0,000 mm 1,3 UV-I 220 W/m 17,5 C 19,9 C 1,6 km/h (1 Bft) 100,00 %
10.08.2017 10:18 19,9 C 23,9 C 86 % 1014,4 hPa 0,0 l/m 0,2 km/h (0 Bft) S-SO 156 0 min 0,000 mm 1,3 UV-I 227 W/m 17,5 C 19,9 C 1,6 km/h (1 Bft) 100,00 %
10.08.2017 10:20 19,9 C 23,9 C 85 % 1014,3 hPa 0,0 l/m 0,4 km/h (0 Bft) S-SO 157 0 min 0,000 mm 1,3 UV-I 220 W/m 17,3 C 19,9 C 1,6 km/h (1 Bft) 98,00 %
10.08.2017 10:22 19,9 C 23,9 C 85 % 1014,4 hPa 0,0 l/m 0,1 km/h (0 Bft) S-SO 157 0 min 0,000 mm 1,2 UV-I 208 W/m 17,3 C 19,9 C 1,6 km/h (1 Bft) 100,00 %
10.08.2017 10:24 19,9 C 23,9 C 85 % 1014,3 hPa 0,0 l/m 2,0 km/h (1 Bft) W 270 0 min 0,000 mm 1,1 UV-I 195 W/m 17,3 C 19,9 C 3,2 km/h (1 Bft) 100,00 %
10.08.2017 10:26 19,9 C 23,9 C 84 % 1014,2 hPa 0,0 l/m 0,8 km/h (0 Bft) W 271 0 min 0,000 mm 1,0 UV-I 183 W/m 17,1 C 19,9 C 3,2 km/h (1 Bft) 100,00 %
10.08.2017 10:28 19,9 C 23,9 C 85 % 1014,2 hPa 0,0 l/m 0,6 km/h (0 Bft) W 271 0 min 0,000 mm 1,0 UV-I 174 W/m 17,3 C 19,9 C 1,6 km/h (1 Bft) 100,00 %
10.08.2017 10:30 20,0 C 23,9 C 85 % 1014,2 hPa 0,0 l/m 0,7 km/h (0 Bft) W 271 0 min 0,000 mm 0,9 UV-I 162 W/m 17,4 C 20,0 C 3,2 km/h (1 Bft) 100,00 %
10.08.2017 10:32 20,0 C 23,9 C 85 % 1014,1 hPa 0,0 l/m 2,8 km/h (1 Bft) W 271 0 min 0,000 mm 0,9 UV-I 154 W/m 17,4 C 20,0 C 4,8 km/h (1 Bft) 100,00 %
10.08.2017 10:34 20,0 C 23,9 C 84 % 1014,0 hPa 0,0 l/m 3,5 km/h (1 Bft) W 271 0 min 0,000 mm 0,8 UV-I 149 W/m 17,2 C 20,0 C 4,8 km/h (1 Bft) 100,00 %
10.08.2017 10:36 19,9 C 23,9 C 84 % 1014,0 hPa 0,0 l/m 2,1 km/h (1 Bft) W 271 0 min 0,000 mm 0,8 UV-I 148 W/m 17,1 C 19,9 C 3,2 km/h (1 Bft) 100,00 %
10.08.2017 10:38 19,9 C 23,9 C 85 % 1013,9 hPa 0,0 l/m 0,3 km/h (0 Bft) W 271 0 min 0,000 mm 0,9 UV-I 148 W/m 17,3 C 19,9 C 1,6 km/h (1 Bft) 100,00 %
10.08.2017 10:40 19,9 C 23,9 C 85 % 1013,9 hPa 0,0 l/m 0,0 km/h (0 Bft) W 271 0 min 0,000 mm 0,9 UV-I 152 W/m 17,3 C 19,9 C 0,0 km/h (0 Bft) 98,00 %
10.08.2017 10:42 19,9 C 23,9 C 85 % 1013,9 hPa 0,0 l/m 0,0 km/h (0 Bft) W 271 0 min 0,000 mm 0,9 UV-I 158 W/m 17,3 C 19,9 C 0,0 km/h (0 Bft) 100,00 %
10.08.2017 10:44 20,0 C 23,9 C 85 % 1013,9 hPa 0,0 l/m 0,0 km/h (0 Bft) W 271 0 min 0,000 mm 1,0 UV-I 165 W/m 17,4 C 20,0 C 0,0 km/h (0 Bft) 100,00 %
10.08.2017 10:46 20,0 C 23,9 C 85 % 1013,9 hPa 0,0 l/m 0,0 km/h (0 Bft) W 271 0 min 0,000 mm 1,1 UV-I 174 W/m 17,4 C 20,0 C 0,0 km/h (0 Bft) 100,00 %
10.08.2017 10:48 20,1 C 23,9 C 86 % 1013,8 hPa 0,0 l/m 0,0 km/h (0 Bft) W 271 0 min 0,000 mm 1,1 UV-I 184 W/m 17,7 C 20,1 C 0,0 km/h (0 Bft) 100,00 %
10.08.2017 10:50 20,1 C 23,9 C 85 % 1013,6 hPa 0,0 l/m 1,2 km/h (1 Bft) W 271 0 min 0,000 mm 1,3 UV-I 194 W/m 17,5 C 20,1 C 3,2 km/h (1 Bft) 97,87 %
10.08.2017 10:52 20,1 C 23,9 C 85 % 1013,5 hPa 0,0 l/m 0,1 km/h (0 Bft) W 271 0 min 0,000 mm 1,3 UV-I 205 W/m 17,5 C 20,1 C 1,6 km/h (1 Bft) 100,00 %
10.08.2017 10:54 20,1 C 23,9 C 84 % 1013,4 hPa 0,0 l/m 1,5 km/h (1 Bft) W 271 0 min 0,000 mm 1,4 UV-I 218 W/m 17,3 C 20,1 C 3,2 km/h (1 Bft) 100,00 %
10.08.2017 10:56 20,2 C 23,9 C 84 % 1013,3 hPa 0,0 l/m 0,6 km/h (0 Bft) W-NW 287 0 min 0,000 mm 1,6 UV-I 228 W/m 17,4 C 20,2 C 3,2 km/h (1 Bft) 97,87 %
10.08.2017 10:58 20,2 C 23,9 C 84 % 1013,2 hPa 0,0 l/m 1,5 km/h (1 Bft) W-NW 295 0 min 0,000 mm 1,6 UV-I 234 W/m 17,4 C 20,2 C 4,8 km/h (1 Bft) 97,56 %
10.08.2017 11:00 20,2 C 23,9 C 84 % 1013,3 hPa 0,0 l/m 2,2 km/h (1 Bft) W-NW 295 0 min 0,102 mm 1,7 UV-I 240 W/m 17,4 C 20,2 C 3,2 km/h (1 Bft) 98,00 %
10.08.2017 11:02 20,2 C 23,9 C 83 % 1013,2 hPa 0,0 l/m 1,6 km/h (1 Bft) W-NW 295 0 min 0,000 mm 1,8 UV-I 244 W/m 17,2 C 20,2 C 3,2 km/h (1 Bft) 96,23 %
10.08.2017 11:04 20,2 C 23,9 C 83 % 1013,3 hPa 0,0 l/m 3,0 km/h (1 Bft) W-SW 244 0 min 0,000 mm 1,9 UV-I 250 W/m 17,2 C 20,2 C 6,4 km/h (2 Bft) 97,56 %
10.08.2017 11:06 20,2 C 23,9 C 83 % 1013,2 hPa 0,0 l/m 4,0 km/h (1 Bft) SW 234 0 min 0,000 mm 2,0 UV-I 263 W/m 17,2 C 20,2 C 6,4 km/h (2 Bft) 96,00 %
10.08.2017 11:08 20,3 C 23,9 C 83 % 1013,2 hPa 0,0 l/m 0,7 km/h (0 Bft) W-SW 242 0 min 0,000 mm 2,2 UV-I 300 W/m 17,3 C 20,3 C 1,6 km/h (1 Bft) 95,74 %
10.08.2017 11:10 20,3 C 23,9 C 83 % 1013,2 hPa 0,0 l/m 3,9 km/h (1 Bft) W 275 0 min 0,000 mm 2,5 UV-I 377 W/m 17,3 C 20,3 C 6,4 km/h (2 Bft) 95,74 %
10.08.2017 11:12 20,4 C 23,9 C 84 % 1013,2 hPa 0,0 l/m 3,1 km/h (1 Bft) W 275 0 min 0,000 mm 2,3 UV-I 290 W/m 17,6 C 20,4 C 6,4 km/h (2 Bft) 93,62 %
10.08.2017 11:14 20,4 C 23,9 C 82 % 1013,2 hPa 0,0 l/m 1,5 km/h (1 Bft) W 275 0 min 0,000 mm 2,1 UV-I 274 W/m 17,2 C 20,4 C 4,8 km/h (1 Bft) 97,44 %
10.08.2017 11:16 20,4 C 23,9 C 83 % 1013,2 hPa 0,0 l/m 1,1 km/h (1 Bft) W 275 0 min 0,000 mm 2,1 UV-I 276 W/m 17,4 C 20,4 C 3,2 km/h (1 Bft) 96,23 %
10.08.2017 11:18 20,4 C 23,9 C 83 % 1013,2 hPa 0,0 l/m 0,8 km/h (0 Bft) W 274 0 min 0,000 mm 2,2 UV-I 291 W/m 17,4 C 20,4 C 3,2 km/h (1 Bft) 95,74 %
10.08.2017 11:20 20,5 C 23,9 C 83 % 1013,3 hPa 0,0 l/m 1,7 km/h (1 Bft) W 274 0 min 0,000 mm 2,2 UV-I 295 W/m 17,5 C 20,5 C 4,8 km/h (1 Bft) 95,12 %
10.08.2017 11:22 20,5 C 23,9 C 82 % 1013,4 hPa 0,0 l/m 3,3 km/h (1 Bft) W 274 0 min 0,000 mm 2,3 UV-I 304 W/m 17,3 C 20,5 C 4,8 km/h (1 Bft) 94,00 %
10.08.2017 11:24 20,5 C 23,9 C 83 % 1013,4 hPa 0,0 l/m 1,5 km/h (1 Bft) W 274 0 min 0,000 mm 2,3 UV-I 310 W/m 17,5 C 20,5 C 3,2 km/h (1 Bft) 94,34 %
10.08.2017 11:26 20,7 C 23,9 C 85 % 1013,4 hPa 0,0 l/m 0,0 km/h (0 Bft) W 274 0 min 0,000 mm 2,3 UV-I 317 W/m 18,1 C 20,7 C 1,6 km/h (1 Bft) 95,12 %
10.08.2017 11:28 20,8 C 23,9 C 82 % 1013,4 hPa 0,0 l/m 1,0 km/h (0 Bft) W 274 0 min 0,000 mm 2,4 UV-I 327 W/m 17,6 C 20,8 C 4,8 km/h (1 Bft) 95,12 %
10.08.2017 11:30 20,8 C 23,9 C 82 % 1013,3 hPa 0,0 l/m 2,4 km/h (1 Bft) S-SW 194 0 min 0,000 mm 2,6 UV-I 360 W/m 17,6 C 20,8 C 6,4 km/h (2 Bft) 90,00 %
10.08.2017 11:32 20,8 C 23,9 C 83 % 1013,2 hPa 0,0 l/m 1,2 km/h (1 Bft) S-SO 158 0 min 0,000 mm 2,7 UV-I 361 W/m 17,8 C 20,8 C 3,2 km/h (1 Bft) 96,23 %
10.08.2017 11:34 20,8 C 23,9 C 83 % 1013,2 hPa 0,0 l/m 0,3 km/h (0 Bft) S-SO 158 0 min 0,000 mm 2,8 UV-I 380 W/m 17,8 C 20,8 C 1,6 km/h (1 Bft) 95,74 %
10.08.2017 11:36 20,8 C 23,9 C 82 % 1013,3 hPa 0,0 l/m 4,5 km/h (1 Bft) S-SW 196 0 min 0,000 mm 2,9 UV-I 422 W/m 17,6 C 20,8 C 8,0 km/h (2 Bft) 93,62 %
10.08.2017 11:38 20,9 C 23,9 C 82 % 1013,3 hPa 0,0 l/m 3,8 km/h (1 Bft) W-SW 239 2 min 0,000 mm 3,1 UV-I 443 W/m 17,7 C 20,9 C 6,4 km/h (2 Bft) 97,14 %
10.08.2017 11:40 21,0 C 23,9 C 80 % 1013,3 hPa 0,0 l/m 4,2 km/h (1 Bft) W-SW 239 0 min 0,000 mm 2,9 UV-I 375 W/m 17,4 C 21,0 C 4,8 km/h (1 Bft) 94,34 %
10.08.2017 11:42 20,9 C 23,9 C 80 % 1013,3 hPa 0,0 l/m 1,5 km/h (1 Bft) W-SW 239 0 min 0,000 mm 2,8 UV-I 361 W/m 17,3 C 20,9 C 4,8 km/h (1 Bft) 96,00 %
10.08.2017 11:44 20,9 C 23,9 C 81 % 1013,2 hPa 0,0 l/m 1,5 km/h (1 Bft) SW 219 0 min 0,000 mm 2,9 UV-I 399 W/m 17,5 C 20,9 C 6,4 km/h (2 Bft) 94,00 %
10.08.2017 11:46 20,9 C 23,9 C 81 % 1013,2 hPa 0,0 l/m 3,6 km/h (1 Bft) S-SW 210 0 min 0,000 mm 2,9 UV-I 382 W/m 17,5 C 20,9 C 6,4 km/h (2 Bft) 97,56 %
10.08.2017 11:48 20,9 C 23,9 C 81 % 1013,1 hPa 0,0 l/m 3,7 km/h (1 Bft) S-SW 212 0 min 0,000 mm 2,9 UV-I 370 W/m 17,5 C 20,9 C 4,8 km/h (1 Bft) 95,74 %
10.08.2017 11:50 20,9 C 23,9 C 81 % 1013,1 hPa 0,0 l/m 0,5 km/h (0 Bft) S-SW 212 2 min 0,000 mm 3,4 UV-I 460 W/m 17,5 C 20,9 C 1,6 km/h (1 Bft) 95,74 %
10.08.2017 11:52 21,0 C 23,9 C 80 % 1013,1 hPa 0,0 l/m 0,0 km/h (0 Bft) S-SW 212 2 min 0,000 mm 3,8 UV-I 548 W/m 17,4 C 21,0 C 0,0 km/h (0 Bft) 98,00 %
10.08.2017 11:54 21,1 C 23,9 C 81 % 1013,0 hPa 0,0 l/m 1,1 km/h (1 Bft) W-SW 242 2 min 0,000 mm 4,6 UV-I 660 W/m 17,7 C 21,1 C 4,8 km/h (1 Bft) 94,87 %
10.08.2017 11:56 21,3 C 23,9 C 80 % 1012,9 hPa 0,0 l/m 3,9 km/h (1 Bft) W-SW 248 2 min 0,000 mm 4,8 UV-I 778 W/m 17,7 C 21,3 C 8,0 km/h (2 Bft) 96,43 %
10.08.2017 11:58 21,4 C 23,9 C 79 % 1012,9 hPa 0,0 l/m 1,5 km/h (1 Bft) W-SW 248 2 min 0,000 mm 4,9 UV-I 771 W/m 17,6 C 21,4 C 6,4 km/h (2 Bft) 95,12 %
10.08.2017 12:00 21,4 C 23,9 C 79 % 1012,9 hPa 0,0 l/m 3,7 km/h (1 Bft) W 269 2 min 0,229 mm 4,6 UV-I 683 W/m 17,6 C 21,4 C 8,0 km/h (2 Bft) 92,00 %
10.08.2017 12:02 21,4 C 23,9 C 78 % 1012,9 hPa 0,0 l/m 3,3 km/h (1 Bft) W 273 2 min 0,000 mm 3,9 UV-I 562 W/m 17,4 C 21,4 C 6,4 km/h (2 Bft) 95,74 %
10.08.2017 12:04 21,4 C 23,9 C 78 % 1012,8 hPa 0,0 l/m 1,9 km/h (1 Bft) W 272 2 min 0,000 mm 4,2 UV-I 565 W/m 17,4 C 21,4 C 4,8 km/h (1 Bft) 96,00 %
10.08.2017 12:06 21,5 C 23,9 C 79 % 1012,8 hPa 0,0 l/m 4,7 km/h (1 Bft) SW 219 2 min 0,000 mm 4,3 UV-I 696 W/m 17,7 C 21,5 C 8,0 km/h (2 Bft) 94,74 %
10.08.2017 12:08 21,6 C 23,9 C 78 % 1012,8 hPa 0,0 l/m 1,4 km/h (1 Bft) SW 219 2 min 0,000 mm 3,6 UV-I 493 W/m 17,6 C 21,6 C 4,8 km/h (1 Bft) 98,00 %
10.08.2017 12:10 21,6 C 23,9 C 77 % 1012,8 hPa 0,0 l/m 2,2 km/h (1 Bft) S-SW 210 0 min 0,000 mm 3,9 UV-I 426 W/m 17,4 C 21,6 C 4,8 km/h (1 Bft) 100,00 %
10.08.2017 12:12 21,6 C 23,9 C 78 % 1012,7 hPa 0,0 l/m 3,9 km/h (1 Bft) SO 134 2 min 0,000 mm 4,8 UV-I 696 W/m 17,6 C 21,6 C 6,4 km/h (2 Bft) 100,00 %
10.08.2017 12:14 21,8 C 23,9 C 78 % 1012,7 hPa 0,0 l/m 2,3 km/h (1 Bft) SO 134 2 min 0,000 mm 4,9 UV-I 858 W/m 17,8 C 21,8 C 4,8 km/h (1 Bft) 100,00 %
10.08.2017 12:16 21,9 C 23,9 C 79 % 1012,6 hPa 0,0 l/m 1,0 km/h (0 Bft) N 351 2 min 0,000 mm 4,6 UV-I 791 W/m 18,1 C 21,9 C 4,8 km/h (1 Bft) 100,00 %
10.08.2017 12:18 22,1 C 23,9 C 78 % 1012,7 hPa 0,0 l/m 1,2 km/h (1 Bft) N-NW 340 2 min 0,000 mm 3,3 UV-I 486 W/m 18,1 C 22,1 C 4,8 km/h (1 Bft) 100,00 %
10.08.2017 12:20 22,0 C 23,9 C 77 % 1012,7 hPa 0,0 l/m 1,9 km/h (1 Bft) N-NO 13 2 min 0,000 mm 3,6 UV-I 505 W/m 17,8 C 22,0 C 3,2 km/h (1 Bft) 100,00 %
10.08.2017 12:22 22,1 C 23,9 C 80 % 1012,6 hPa 0,0 l/m 2,4 km/h (1 Bft) N 5 2 min 0,000 mm 3,4 UV-I 460 W/m 18,5 C 22,1 C 6,4 km/h (2 Bft) 100,00 %
10.08.2017 12:24 22,1 C 23,9 C 79 % 1012,5 hPa 0,0 l/m 3,0 km/h (1 Bft) N 5 2 min 0,000 mm 3,6 UV-I 465 W/m 18,3 C 22,1 C 4,8 km/h (1 Bft) 100,00 %
10.08.2017 12:26 22,1 C 23,9 C 79 % 1012,5 hPa 0,0 l/m 3,1 km/h (1 Bft) N-NO 21 2 min 0,000 mm 3,9 UV-I 589 W/m 18,3 C 22,1 C 6,4 km/h (2 Bft) 100,00 %
10.08.2017 12:28 22,2 C 23,9 C 78 % 1012,5 hPa 0,0 l/m 1,5 km/h (1 Bft) N 5 2 min 0,000 mm 4,0 UV-I 512 W/m 18,2 C 22,2 C 3,2 km/h (1 Bft) 97,87 %
10.08.2017 12:30 22,1 C 23,9 C 77 % 1012,4 hPa 0,0 l/m 1,1 km/h (1 Bft) N 11 2 min 0,000 mm 4,0 UV-I 490 W/m 17,9 C 22,1 C 3,2 km/h (1 Bft) 100,00 %
10.08.2017 12:32 22,1 C 23,9 C 78 % 1012,4 hPa 0,0 l/m 0,9 km/h (0 Bft) NW 306 2 min 0,000 mm 4,3 UV-I 504 W/m 18,1 C 22,1 C 4,8 km/h (1 Bft) 97,87 %
10.08.2017 12:34 22,1 C 23,9 C 75 % 1012,5 hPa 0,0 l/m 1,8 km/h (1 Bft) NW 306 2 min 0,000 mm 4,2 UV-I 549 W/m 17,5 C 22,1 C 4,8 km/h (1 Bft) 100,00 %
10.08.2017 12:36 22,1 C 23,9 C 76 % 1012,6 hPa 0,0 l/m 1,1 km/h (1 Bft) W-NW 299 2 min 0,000 mm 3,0 UV-I 475 W/m 17,7 C 22,1 C 3,2 km/h (1 Bft) 100,00 %
10.08.2017 12:38 21,9 C 23,9 C 76 % 1012,6 hPa 0,0 l/m 0,7 km/h (0 Bft) W-NW 287 0 min 0,000 mm 3,4 UV-I 287 W/m 17,5 C 21,9 C 4,8 km/h (1 Bft) 97,37 %
10.08.2017 12:40 21,9 C 23,9 C 75 % 1012,5 hPa 0,0 l/m 0,3 km/h (0 Bft) W-NW 287 2 min 0,000 mm 4,3 UV-I 527 W/m 17,3 C 21,9 C 1,6 km/h (1 Bft) 96,00 %
10.08.2017 12:42 22,0 C 23,9 C 78 % 1012,4 hPa 0,0 l/m 0,7 km/h (0 Bft) W-NW 288 2 min 0,000 mm 4,5 UV-I 697 W/m 18,0 C 22,0 C 1,6 km/h (1 Bft) 100,00 %
10.08.2017 12:44 22,2 C 23,9 C 79 % 1012,4 hPa 0,0 l/m 2,2 km/h (1 Bft) N-NW 331 2 min 0,000 mm 3,9 UV-I 670 W/m 18,4 C 22,2 C 6,4 km/h (2 Bft) 100,00 %
10.08.2017 12:46 22,2 C 23,9 C 78 % 1012,3 hPa 0,0 l/m 2,7 km/h (1 Bft) N 355 0 min 0,000 mm 2,9 UV-I 378 W/m 18,2 C 22,2 C 4,8 km/h (1 Bft) 100,00 %
10.08.2017 12:48 22,2 C 23,9 C 79 % 1012,3 hPa 0,0 l/m 2,8 km/h (1 Bft) NW 310 0 min 0,000 mm 2,7 UV-I 317 W/m 18,4 C 22,2 C 8,0 km/h (2 Bft) 100,00 %
10.08.2017 12:50 22,2 C 23,9 C 79 % 1012,3 hPa 0,0 l/m 2,1 km/h (1 Bft) N-NW 333 0 min 0,000 mm 2,3 UV-I 248 W/m 18,4 C 22,2 C 4,8 km/h (1 Bft) 100,00 %
10.08.2017 12:52 22,1 C 23,9 C 79 % 1012,2 hPa 0,0 l/m 3,0 km/h (1 Bft) N-NW 331 0 min 0,000 mm 2,0 UV-I 218 W/m 18,3 C 22,1 C 8,0 km/h (2 Bft) 96,43 %
10.08.2017 12:54 21,9 C 23,9 C 79 % 1012,2 hPa 0,0 l/m 1,6 km/h (1 Bft) N-NW 331 0 min 0,000 mm 1,8 UV-I 207 W/m 18,1 C 21,9 C 4,8 km/h (1 Bft) 100,00 %
10.08.2017 12:56 21,8 C 23,9 C 78 % 1012,3 hPa 0,0 l/m 1,0 km/h (0 Bft) N-NW 329 0 min 0,000 mm 1,7 UV-I 202 W/m 17,8 C 21,8 C 3,2 km/h (1 Bft) 97,37 %
10.08.2017 12:58 21,7 C 23,9 C 80 % 1012,2 hPa 0,0 l/m 1,2 km/h (1 Bft) N-NO 17 0 min 0,000 mm 1,5 UV-I 192 W/m 18,1 C 21,7 C 8,0 km/h (2 Bft) 100,00 %
10.08.2017 13:00 21,7 C 23,9 C 81 % 1012,2 hPa 0,0 l/m 4,4 km/h (1 Bft) N-NO 17 0 min 0,304 mm 1,4 UV-I 186 W/m 18,3 C 21,7 C 6,4 km/h (2 Bft) 100,00 %
10.08.2017 13:02 21,7 C 23,9 C 80 % 1012,1 hPa 0,0 l/m 3,8 km/h (1 Bft) NO 41 0 min 0,000 mm 1,3 UV-I 189 W/m 18,1 C 21,7 C 8,0 km/h (2 Bft) 97,87 %
10.08.2017 13:04 21,7 C 23,9 C 81 % 1012,1 hPa 0,0 l/m 5,0 km/h (1 Bft) N-NO 22 0 min 0,000 mm 1,4 UV-I 199 W/m 18,3 C 21,7 C 11,3 km/h (2 Bft) 100,00 %
10.08.2017 13:06 21,7 C 23,9 C 81 % 1012,1 hPa 0,0 l/m 4,8 km/h (1 Bft) N-NO 31 0 min 0,000 mm 1,4 UV-I 209 W/m 18,3 C 21,7 C 8,0 km/h (2 Bft) 100,00 %
10.08.2017 13:08 21,7 C 23,9 C 81 % 1012,1 hPa 0,0 l/m 5,1 km/h (1 Bft) N-NO 26 0 min 0,000 mm 1,5 UV-I 215 W/m 18,3 C 21,7 C 8,0 km/h (2 Bft) 100,00 %
10.08.2017 13:10 21,7 C 23,9 C 81 % 1012,1 hPa 0,0 l/m 1,8 km/h (1 Bft) N-NO 21 0 min 0,000 mm 1,5 UV-I 218 W/m 18,3 C 21,7 C 4,8 km/h (1 Bft) 100,00 %
10.08.2017 13:12 21,7 C 23,9 C 80 % 1012,0 hPa 0,0 l/m 4,3 km/h (1 Bft) N-NO 21 0 min 0,000 mm 1,5 UV-I 221 W/m 18,1 C 21,7 C 6,4 km/h (2 Bft) 96,15 %
10.08.2017 13:14 21,7 C 23,9 C 80 % 1012,1 hPa 0,0 l/m 2,6 km/h (1 Bft) N-NO 32 0 min 0,000 mm 1,5 UV-I 224 W/m 18,1 C 21,7 C 4,8 km/h (1 Bft) 95,83 %
10.08.2017 13:16 21,7 C 23,9 C 80 % 1012,1 hPa 0,0 l/m 3,9 km/h (1 Bft) NO 34 0 min 0,000 mm 1,6 UV-I 232 W/m 18,1 C 21,7 C 4,8 km/h (1 Bft) 98,00 %
10.08.2017 13:18 21,8 C 23,9 C 80 % 1012,1 hPa 0,0 l/m 4,6 km/h (1 Bft) NO 44 0 min 0,000 mm 1,7 UV-I 246 W/m 18,2 C 21,8 C 6,4 km/h (2 Bft) 97,87 %
10.08.2017 13:20 21,8 C 23,9 C 80 % 1012,0 hPa 0,0 l/m 5,1 km/h (1 Bft) NO 38 0 min 0,000 mm 1,8 UV-I 263 W/m 18,2 C 21,8 C 8,0 km/h (2 Bft) 91,30 %
10.08.2017 13:22 21,9 C 23,9 C 81 % 1012,0 hPa 0,0 l/m 2,5 km/h (1 Bft) NO 38 0 min 0,000 mm 2,1 UV-I 294 W/m 18,5 C 21,9 C 4,8 km/h (1 Bft) 96,77 %
10.08.2017 13:24 21,9 C 23,9 C 81 % 1012,0 hPa 0,0 l/m 2,9 km/h (1 Bft) NO 54 0 min 0,000 mm 2,3 UV-I 327 W/m 18,5 C 21,9 C 6,4 km/h (2 Bft) 98,00 %
10.08.2017 13:26 22,0 C 23,9 C 79 % 1012,0 hPa 0,0 l/m 5,2 km/h (1 Bft) NO 50 0 min 0,000 mm 2,5 UV-I 361 W/m 18,2 C 22,0 C 6,4 km/h (2 Bft) 96,00 %
10.08.2017 13:28 22,0 C 23,9 C 80 % 1012,0 hPa 0,0 l/m 2,8 km/h (1 Bft) NO 53 0 min 0,000 mm 2,9 UV-I 419 W/m 18,4 C 22,0 C 6,4 km/h (2 Bft) 94,74 %
10.08.2017 13:30 22,2 C 23,9 C 80 % 1011,9 hPa 0,0 l/m 1,2 km/h (1 Bft) NO 50 2 min 0,000 mm 3,4 UV-I 483 W/m 18,6 C 22,2 C 3,2 km/h (1 Bft) 98,00 %
10.08.2017 13:32 22,2 C 23,9 C 79 % 1012,0 hPa 0,0 l/m 0,6 km/h (0 Bft) NO 49 2 min 0,000 mm 4,0 UV-I 599 W/m 18,4 C 22,2 C 3,2 km/h (1 Bft) 92,45 %
10.08.2017 13:34 22,3 C 23,9 C 78 % 1011,8 hPa 0,0 l/m 1,7 km/h (1 Bft) NO 49 2 min 0,000 mm 3,7 UV-I 581 W/m 18,3 C 22,3 C 3,2 km/h (1 Bft) 97,87 %
10.08.2017 13:36 22,4 C 23,9 C 80 % 1011,8 hPa 0,0 l/m 3,0 km/h (1 Bft) NO 48 2 min 0,000 mm 4,2 UV-I 599 W/m 18,8 C 22,4 C 4,8 km/h (1 Bft) 97,37 %
10.08.2017 13:38 22,4 C 23,9 C 78 % 1011,8 hPa 0,0 l/m 0,7 km/h (0 Bft) NO 48 2 min 0,000 mm 4,5 UV-I 577 W/m 18,4 C 22,4 C 3,2 km/h (1 Bft) 98,11 %
10.08.2017 13:40 22,3 C 23,9 C 75 % 1011,7 hPa 0,0 l/m 0,8 km/h (0 Bft) O-NO 74 2 min 0,000 mm 3,6 UV-I 499 W/m 17,6 C 22,3 C 4,8 km/h (1 Bft) 96,00 %
10.08.2017 13:42 22,2 C 23,9 C 76 % 1011,7 hPa 0,0 l/m 1,3 km/h (1 Bft) S-SO 152 0 min 0,000 mm 3,2 UV-I 424 W/m 17,8 C 22,2 C 3,2 km/h (1 Bft) 97,14 %
10.08.2017 13:44 22,2 C 23,9 C 79 % 1011,7 hPa 0,0 l/m 3,2 km/h (1 Bft) S 173 0 min 0,000 mm 4,4 UV-I 343 W/m 18,4 C 22,2 C 4,8 km/h (1 Bft) 96,43 %
10.08.2017 13:46 22,5 C 23,9 C 78 % 1011,8 hPa 0,0 l/m 0,7 km/h (0 Bft) S 173 2 min 0,000 mm 5,7 UV-I 757 W/m 18,5 C 22,5 C 3,2 km/h (1 Bft) 97,56 %
10.08.2017 13:48 22,9 C 23,9 C 79 % 1011,9 hPa 0,0 l/m 3,1 km/h (1 Bft) O 94 2 min 0,000 mm 6,0 UV-I 953 W/m 19,1 C 22,9 C 6,4 km/h (2 Bft) 100,00 %
10.08.2017 13:50 23,2 C 23,9 C 78 % 1011,9 hPa 0,0 l/m 0,5 km/h (0 Bft) N-NO 13 2 min 0,000 mm 5,9 UV-I 910 W/m 19,1 C 23,2 C 1,6 km/h (1 Bft) 96,23 %
10.08.2017 13:52 23,3 C 23,9 C 76 % 1012,0 hPa 0,0 l/m 3,8 km/h (1 Bft) NO 45 2 min 0,000 mm 5,7 UV-I 876 W/m 18,8 C 23,3 C 6,4 km/h (2 Bft) 100,00 %
10.08.2017 13:54 23,6 C 23,9 C 75 % 1012,0 hPa 0,0 l/m 4,3 km/h (1 Bft) NO 56 2 min 0,000 mm 5,3 UV-I 795 W/m 18,9 C 23,6 C 6,4 km/h (2 Bft) 100,00 %
10.08.2017 13:56 23,7 C 23,9 C 75 % 1012,0 hPa 0,0 l/m 3,3 km/h (1 Bft) O-NO 65 2 min 0,000 mm 5,2 UV-I 748 W/m 19,0 C 23,7 C 4,8 km/h (1 Bft) 97,56 %
10.08.2017 13:58 23,7 C 23,9 C 76 % 1012,0 hPa 0,0 l/m 5,2 km/h (1 Bft) NO 51 2 min 0,000 mm 5,6 UV-I 766 W/m 19,2 C 23,7 C 8,0 km/h (2 Bft) 100,00 %
10.08.2017 14:00 23,6 C 23,9 C 74 % 1012,0 hPa 0,0 l/m 3,0 km/h (1 Bft) O-NO 64 2 min 0,305 mm 5,0 UV-I 767 W/m 18,7 C 23,6 C 6,4 km/h (2 Bft) 100,00 %
10.08.2017 14:02 23,4 C 23,9 C 73 % 1012,0 hPa 0,0 l/m 3,6 km/h (1 Bft) O-SO 121 2 min 0,000 mm 4,7 UV-I 730 W/m 18,3 C 23,4 C 4,8 km/h (1 Bft) 97,87 %
10.08.2017 14:04 23,4 C 23,9 C 74 % 1012,0 hPa 0,0 l/m 0,4 km/h (0 Bft) O-SO 121 2 min 0,000 mm 4,2 UV-I 687 W/m 18,5 C 23,4 C 1,6 km/h (1 Bft) 100,00 %
10.08.2017 14:06 23,4 C 23,9 C 77 % 1012,0 hPa 0,0 l/m 0,1 km/h (0 Bft) O-SO 121 2 min 0,000 mm 4,1 UV-I 659 W/m 19,1 C 23,4 C 1,6 km/h (1 Bft) 100,00 %
10.08.2017 14:08 23,4 C 23,9 C 74 % 1012,1 hPa 0,0 l/m 1,4 km/h (1 Bft) O-SO 121 2 min 0,000 mm 4,3 UV-I 711 W/m 18,5 C 23,4 C 3,2 km/h (1 Bft) 100,00 %
10.08.2017 14:10 23,4 C 23,9 C 76 % 1012,0 hPa 0,0 l/m 1,9 km/h (1 Bft) O-SO 105 2 min 0,000 mm 3,8 UV-I 566 W/m 18,9 C 23,4 C 4,8 km/h (1 Bft) 100,00 %
10.08.2017 14:12 23,4 C 24,4 C 73 % 1011,9 hPa 0,0 l/m 1,2 km/h (1 Bft) O-SO 105 2 min 0,000 mm 3,3 UV-I 536 W/m 18,3 C 23,4 C 3,2 km/h (1 Bft) 100,00 %
10.08.2017 14:14 23,4 C 24,4 C 74 % 1012,0 hPa 0,0 l/m 0,8 km/h (0 Bft) N-NO 14 2 min 0,000 mm 4,1 UV-I 580 W/m 18,5 C 23,4 C 3,2 km/h (1 Bft) 100,00 %
10.08.2017 14:16 23,4 C 24,4 C 75 % 1012,0 hPa 0,0 l/m 1,1 km/h (1 Bft) N-NO 19 2 min 0,000 mm 4,9 UV-I 722 W/m 18,7 C 23,4 C 6,4 km/h (2 Bft) 100,00 %
10.08.2017 14:18 23,8 C 24,4 C 77 % 1011,9 hPa 0,0 l/m 3,7 km/h (1 Bft) N 11 2 min 0,000 mm 4,7 UV-I 746 W/m 19,5 C 23,8 C 8,0 km/h (2 Bft) 100,00 %
10.08.2017 14:20 23,8 C 24,4 C 75 % 1011,7 hPa 0,0 l/m 3,3 km/h (1 Bft) N-NO 16 2 min 0,000 mm 4,4 UV-I 631 W/m 19,1 C 23,8 C 6,4 km/h (2 Bft) 100,00 %
10.08.2017 14:22 23,9 C 24,4 C 73 % 1011,7 hPa 0,0 l/m 7,3 km/h (2 Bft) NO 39 2 min 0,000 mm 4,1 UV-I 642 W/m 18,8 C 23,6 C 9,7 km/h (2 Bft) 98,28 %
10.08.2017 14:24 23,8 C 24,4 C 73 % 1011,8 hPa 0,0 l/m 1,9 km/h (1 Bft) NW 313 0 min 0,000 mm 3,2 UV-I 382 W/m 18,7 C 23,8 C 4,8 km/h (1 Bft) 100,00 %
10.08.2017 14:26 23,6 C 24,4 C 74 % 1011,8 hPa 0,0 l/m 0,2 km/h (0 Bft) NW 313 0 min 0,000 mm 3,0 UV-I 312 W/m 18,7 C 23,6 C 1,6 km/h (1 Bft) 100,00 %
10.08.2017 14:28 23,5 C 24,4 C 73 % 1011,9 hPa 0,0 l/m 0,8 km/h (0 Bft) NW 313 0 min 0,000 mm 2,9 UV-I 336 W/m 18,4 C 23,5 C 3,2 km/h (1 Bft) 100,00 %
10.08.2017 14:30 23,5 C 24,4 C 75 % 1011,9 hPa 0,0 l/m 1,9 km/h (1 Bft) NW 313 0 min 0,000 mm 2,5 UV-I 300 W/m 18,8 C 23,5 C 4,8 km/h (1 Bft) 100,00 %
10.08.2017 14:32 23,4 C 24,4 C 74 % 1011,9 hPa 0,0 l/m 4,5 km/h (1 Bft) W-NW 284 0 min 0,000 mm 2,4 UV-I 304 W/m 18,5 C 23,4 C 11,3 km/h (2 Bft) 97,87 %
10.08.2017 14:34 23,3 C 24,4 C 73 % 1012,0 hPa 0,0 l/m 1,4 km/h (1 Bft) W-NW 284 0 min 0,000 mm 2,6 UV-I 332 W/m 18,2 C 23,3 C 3,2 km/h (1 Bft) 100,00 %
10.08.2017 14:36 23,3 C 24,4 C 75 % 1012,0 hPa 0,0 l/m 1,1 km/h (1 Bft) W-NW 284 2 min 0,000 mm 2,7 UV-I 434 W/m 18,6 C 23,3 C 3,2 km/h (1 Bft) 100,00 %
10.08.2017 14:38 23,3 C 24,4 C 74 % 1012,0 hPa 0,0 l/m 0,4 km/h (0 Bft) W-NW 284 0 min 0,000 mm 2,2 UV-I 380 W/m 18,4 C 23,3 C 1,6 km/h (1 Bft) 100,00 %
10.08.2017 14:40 23,2 C 24,4 C 74 % 1012,1 hPa 0,0 l/m 0,4 km/h (0 Bft) W-NW 284 0 min 0,000 mm 1,8 UV-I 235 W/m 18,3 C 23,2 C 1,6 km/h (1 Bft) 100,00 %
10.08.2017 14:42 23,2 C 24,4 C 76 % 1012,2 hPa 0,0 l/m 0,3 km/h (0 Bft) W-NW 284 0 min 0,000 mm 1,4 UV-I 178 W/m 18,7 C 23,2 C 1,6 km/h (1 Bft) 100,00 %
10.08.2017 14:44 23,2 C 24,4 C 75 % 1012,2 hPa 0,0 l/m 0,8 km/h (0 Bft) W-NW 284 0 min 0,000 mm 1,0 UV-I 142 W/m 18,5 C 23,2 C 1,6 km/h (1 Bft) 97,37 %
10.08.2017 14:46 23,1 C 24,4 C 75 % 1012,2 hPa 0,0 l/m 3,2 km/h (1 Bft) SW 221 0 min 0,000 mm 0,8 UV-I 120 W/m 18,4 C 23,1 C 6,4 km/h (2 Bft) 100,00 %
10.08.2017 14:48 23,1 C 24,4 C 75 % 1012,3 hPa 0,0 l/m 6,1 km/h (2 Bft) SW 235 0 min 0,000 mm 0,7 UV-I 114 W/m 18,4 C 23,1 C 12,9 km/h (3 Bft) 100,00 %
10.08.2017 14:50 23,1 C 24,4 C 75 % 1012,4 hPa 0,0 l/m 6,7 km/h (2 Bft) W-SW 242 0 min 0,000 mm 0,7 UV-I 121 W/m 18,4 C 23,0 C 9,7 km/h (2 Bft) 98,11 %
10.08.2017 14:52 23,1 C 24,4 C 76 % 1012,5 hPa 0,0 l/m 6,1 km/h (2 Bft) W-SW 253 0 min 0,000 mm 0,8 UV-I 128 W/m 18,6 C 23,1 C 11,3 km/h (2 Bft) 100,00 %
10.08.2017 14:54 23,0 C 24,4 C 76 % 1012,8 hPa 0,0 l/m 5,7 km/h (1 Bft) SW 233 0 min 0,000 mm 0,8 UV-I 131 W/m 18,5 C 23,0 C 8,0 km/h (2 Bft) 100,00 %
10.08.2017 14:56 22,9 C 24,4 C 76 % 1012,9 hPa 0,0 l/m 8,4 km/h (2 Bft) W-SW 248 0 min 0,000 mm 0,7 UV-I 134 W/m 18,4 C 22,3 C 12,9 km/h (3 Bft) 100,00 %
10.08.2017 14:58 23,0 C 24,4 C 76 % 1013,0 hPa 0,0 l/m 9,7 km/h (2 Bft) W-SW 251 0 min 0,000 mm 0,6 UV-I 140 W/m 18,5 C 22,0 C 17,7 km/h (3 Bft) 100,00 %
10.08.2017 15:00 23,0 C 24,4 C 76 % 1013,1 hPa 0,0 l/m 11,9 km/h (2 Bft) W-SW 240 0 min 0,000 mm 0,7 UV-I 145 W/m 18,5 C 21,5 C 16,1 km/h (3 Bft) 97,87 %
10.08.2017 15:02 23,0 C 24,4 C 76 % 1013,2 hPa 0,0 l/m 10,6 km/h (2 Bft) SW 236 0 min 0,229 mm 0,8 UV-I 153 W/m 18,5 C 21,8 C 14,5 km/h (3 Bft) 98,21 %
10.08.2017 15:04 23,0 C 24,4 C 77 % 1013,2 hPa 0,0 l/m 8,8 km/h (2 Bft) SW 234 0 min 0,000 mm 0,9 UV-I 166 W/m 18,7 C 22,3 C 12,9 km/h (3 Bft) 100,00 %
10.08.2017 15:06 23,0 C 24,4 C 76 % 1013,3 hPa 0,0 l/m 12,6 km/h (3 Bft) W-SW 246 0 min 0,000 mm 0,9 UV-I 170 W/m 18,5 C 21,4 C 17,7 km/h (3 Bft) 95,45 %
10.08.2017 15:08 23,0 C 24,4 C 76 % 1013,5 hPa 0,0 l/m 13,1 km/h (3 Bft) W-SW 242 0 min 0,000 mm 0,7 UV-I 126 W/m 18,5 C 21,3 C 19,3 km/h (3 Bft) 95,24 %
10.08.2017 15:10 23,1 C 24,4 C 76 % 1013,5 hPa 0,0 l/m 14,1 km/h (3 Bft) SW 229 0 min 0,000 mm 0,1 UV-I 87 W/m 18,6 C 21,2 C 17,7 km/h (3 Bft) 97,73 %
10.08.2017 15:12 23,0 C 24,4 C 76 % 1013,6 hPa 0,0 l/m 13,8 km/h (3 Bft) W 265 0 min 0,000 mm 0,0 UV-I 57 W/m 18,5 C 21,1 C 20,9 km/h (4 Bft) 96,23 %
10.08.2017 15:14 23,0 C 24,4 C 76 % 1013,6 hPa 0,0 l/m 12,7 km/h (3 Bft) W 263 0 min 0,000 mm 0,0 UV-I 70 W/m 18,5 C 21,3 C 19,3 km/h (3 Bft) 95,12 %
10.08.2017 15:16 22,9 C 24,4 C 77 % 1013,7 hPa 0,0 l/m 10,3 km/h (2 Bft) W 267 0 min 0,000 mm 0,0 UV-I 75 W/m 18,6 C 21,8 C 14,5 km/h (3 Bft) 95,45 %
10.08.2017 15:18 22,9 C 24,4 C 77 % 1013,7 hPa 0,0 l/m 10,4 km/h (2 Bft) W-SW 245 0 min 0,000 mm 0,0 UV-I 58 W/m 18,6 C 21,7 C 16,1 km/h (3 Bft) 91,07 %
10.08.2017 15:20 22,9 C 24,4 C 77 % 1013,7 hPa 0,0 l/m 3,0 km/h (1 Bft) SW 221 0 min 0,000 mm 0,0 UV-I 44 W/m 18,6 C 22,9 C 8,0 km/h (2 Bft) 94,29 %
10.08.2017 15:22 22,9 C 24,4 C 77 % 1013,7 hPa 0,0 l/m 10,1 km/h (2 Bft) W 261 0 min 0,000 mm 0,0 UV-I 36 W/m 18,6 C 21,8 C 16,1 km/h (3 Bft) 96,43 %
10.08.2017 15:24 22,8 C 24,4 C 77 % 1013,9 hPa 0,0 l/m 15,5 km/h (3 Bft) W-SW 254 0 min 0,000 mm 0,0 UV-I 31 W/m 18,5 C 20,6 C 25,7 km/h (4 Bft) 94,34 %
10.08.2017 15:26 22,8 C 24,4 C 78 % 1013,8 hPa 0,0 l/m 20,0 km/h (4 Bft) W 269 0 min 0,000 mm 0,0 UV-I 27 W/m 18,8 C 19,8 C 32,2 km/h (5 Bft) 96,00 %
10.08.2017 15:28 22,7 C 24,4 C 79 % 1013,7 hPa 0,0 l/m 15,1 km/h (3 Bft) W 259 0 min 0,000 mm 0,0 UV-I 26 W/m 18,9 C 20,5 C 20,9 km/h (4 Bft) 94,74 %
10.08.2017 15:30 22,6 C 24,4 C 80 % 1013,6 hPa 0,0 l/m 14,7 km/h (3 Bft) W-NW 300 0 min 0,000 mm 0,0 UV-I 25 W/m 19,0 C 20,5 C 20,9 km/h (4 Bft) 94,64 %
10.08.2017 15:32 22,3 C 24,4 C 82 % 1013,4 hPa 0,0 l/m 9,4 km/h (2 Bft) W 279 0 min 0,000 mm 0,0 UV-I 25 W/m 19,1 C 21,3 C 16,1 km/h (3 Bft) 95,24 %
10.08.2017 15:34 22,1 C 24,4 C 82 % 1013,3 hPa 0,2 l/m 8,9 km/h (2 Bft) W-SW 251 0 min 0,000 mm 0,0 UV-I 23 W/m 18,9 C 21,3 C 17,7 km/h (3 Bft) 95,12 %
10.08.2017 15:36 21,8 C 24,4 C 83 % 1013,3 hPa 0,0 l/m 10,0 km/h (2 Bft) W 261 0 min 0,000 mm 0,0 UV-I 21 W/m 18,8 C 20,6 C 16,1 km/h (3 Bft) 96,23 %
10.08.2017 15:38 21,6 C 24,4 C 84 % 1013,2 hPa 0,0 l/m 7,1 km/h (2 Bft) SW 231 0 min 0,000 mm 0,0 UV-I 19 W/m 18,8 C 21,3 C 14,5 km/h (3 Bft) 95,12 %
10.08.2017 15:40 21,3 C 24,4 C 85 % 1013,3 hPa 0,2 l/m 8,4 km/h (2 Bft) W-NW 292 0 min 0,000 mm 0,0 UV-I 16 W/m 18,7 C 20,6 C 16,1 km/h (3 Bft) 97,87 %
10.08.2017 15:42 21,1 C 24,4 C 86 % 1013,1 hPa 0,2 l/m 4,3 km/h (1 Bft) W-NW 284 0 min 0,000 mm 0,0 UV-I 14 W/m 18,7 C 21,1 C 12,9 km/h (3 Bft) 95,83 %
10.08.2017 15:44 20,8 C 24,4 C 87 % 1012,7 hPa 0,0 l/m 2,9 km/h (1 Bft) W-NW 298 0 min 0,000 mm 0,0 UV-I 14 W/m 18,6 C 20,8 C 4,8 km/h (1 Bft) 98,00 %
10.08.2017 15:46 20,6 C 24,4 C 88 % 1012,7 hPa 0,2 l/m 2,2 km/h (1 Bft) N 10 0 min 0,000 mm 0,0 UV-I 14 W/m 18,5 C 20,6 C 4,8 km/h (1 Bft) 95,74 %
10.08.2017 15:48 20,4 C 24,4 C 88 % 1012,5 hPa 0,2 l/m 2,9 km/h (1 Bft) W-NW 300 0 min 0,000 mm 0,0 UV-I 14 W/m 18,3 C 20,4 C 9,7 km/h (2 Bft) 100,00 %
10.08.2017 15:50 20,3 C 24,4 C 89 % 1012,4 hPa 0,2 l/m 1,7 km/h (1 Bft) N-NO 19 0 min 0,000 mm 0,0 UV-I 17 W/m 18,4 C 20,3 C 6,4 km/h (2 Bft) 96,00 %
10.08.2017 15:52 20,2 C 24,4 C 89 % 1012,0 hPa 0,0 l/m 9,9 km/h (2 Bft) N-NO 17 0 min 0,000 mm 0,0 UV-I 20 W/m 18,3 C 18,9 C 19,3 km/h (3 Bft) 97,87 %
10.08.2017 15:54 20,0 C 24,4 C 89 % 1010,2 hPa 0,4 l/m 24,6 km/h (4 Bft) NO 38 0 min 0,000 mm 0,0 UV-I 27 W/m 18,1 C 15,4 C 32,2 km/h (5 Bft) 100,00 %
10.08.2017 15:56 19,9 C 24,4 C 89 % 1009,9 hPa 0,2 l/m 25,0 km/h (4 Bft) N-NO 19 0 min 0,000 mm 0,0 UV-I 39 W/m 18,0 C 15,2 C 32,2 km/h (5 Bft) 97,30 %
10.08.2017 15:58 19,8 C 23,9 C 89 % 1009,4 hPa 0,0 l/m 25,5 km/h (4 Bft) NO 42 0 min 0,000 mm 0,0 UV-I 54 W/m 17,9 C 15,0 C 33,8 km/h (5 Bft) 95,74 %
10.08.2017 16:00 19,7 C 23,9 C 89 % 1009,9 hPa 0,0 l/m 16,6 km/h (3 Bft) N-NO 27 0 min 0,000 mm 0,0 UV-I 69 W/m 17,8 C 16,5 C 29,0 km/h (5 Bft) 97,37 %
10.08.2017 16:02 19,7 C 23,9 C 90 % 1010,7 hPa 0,0 l/m 9,3 km/h (2 Bft) S-SO 163 0 min 0,076 mm 0,2 UV-I 89 W/m 18,0 C 18,6 C 17,7 km/h (3 Bft) 98,21 %
10.08.2017 16:04 19,8 C 23,9 C 90 % 1011,2 hPa 0,0 l/m 2,2 km/h (1 Bft) S-SO 159 0 min 0,000 mm 0,6 UV-I 113 W/m 18,1 C 19,8 C 6,4 km/h (2 Bft) 97,56 %
10.08.2017 16:06 19,8 C 23,9 C 90 % 1011,3 hPa 0,0 l/m 7,3 km/h (2 Bft) S-SW 210 0 min 0,000 mm 0,8 UV-I 142 W/m 18,1 C 19,4 C 12,9 km/h (3 Bft) 94,00 %
10.08.2017 16:08 19,9 C 23,9 C 91 % 1011,5 hPa 0,2 l/m 14,7 km/h (3 Bft) S 176 0 min 0,000 mm 1,0 UV-I 183 W/m 18,4 C 17,2 C 25,7 km/h (4 Bft) 98,00 %
10.08.2017 16:10 19,9 C 24,4 C 90 % 1011,5 hPa 0,0 l/m 11,6 km/h (2 Bft) S 177 0 min 0,000 mm 1,4 UV-I 222 W/m 18,2 C 18,0 C 20,9 km/h (4 Bft) 94,74 %
10.08.2017 16:12 20,1 C 24,4 C 91 % 1011,4 hPa 0,0 l/m 7,0 km/h (2 Bft) O-SO 116 2 min 0,000 mm 2,2 UV-I 402 W/m 18,6 C 19,9 C 14,5 km/h (3 Bft) 97,87 %
10.08.2017 16:14 20,3 C 24,4 C 92 % 1011,3 hPa 0,0 l/m 11,7 km/h (2 Bft) O-SO 121 2 min 0,000 mm 2,4 UV-I 519 W/m 19,0 C 18,5 C 16,1 km/h (3 Bft) 98,11 %
10.08.2017 16:16 20,6 C 24,4 C 92 % 1011,3 hPa 0,0 l/m 6,9 km/h (2 Bft) O-SO 103 2 min 0,000 mm 2,4 UV-I 428 W/m 19,3 C 20,4 C 11,3 km/h (2 Bft) 97,73 %
10.08.2017 16:18 20,8 C 24,4 C 92 % 1011,4 hPa 0,0 l/m 1,4 km/h (1 Bft) S-SO 160 2 min 0,000 mm 2,5 UV-I 471 W/m 19,4 C 20,8 C 3,2 km/h (1 Bft) 100,00 %
10.08.2017 16:20 21,1 C 24,4 C 91 % 1011,6 hPa 0,0 l/m 3,4 km/h (1 Bft) S-SO 165 2 min 0,000 mm 2,3 UV-I 466 W/m 19,6 C 21,1 C 8,0 km/h (2 Bft) 97,62 %
10.08.2017 16:22 21,2 C 24,4 C 91 % 1011,7 hPa 0,0 l/m 4,7 km/h (1 Bft) W-SW 238 2 min 0,000 mm 2,2 UV-I 418 W/m 19,7 C 21,2 C 8,0 km/h (2 Bft) 100,00 %
10.08.2017 16:24 21,3 C 24,4 C 90 % 1011,8 hPa 0,0 l/m 4,0 km/h (1 Bft) SW 229 2 min 0,000 mm 2,2 UV-I 444 W/m 19,6 C 21,3 C 8,0 km/h (2 Bft) 97,83 %
10.08.2017 16:26 21,4 C 24,4 C 89 % 1011,8 hPa 0,0 l/m 2,2 km/h (1 Bft) O-SO 112 2 min 0,000 mm 2,3 UV-I 481 W/m 19,5 C 21,4 C 4,8 km/h (1 Bft) 98,00 %
10.08.2017 16:28 21,6 C 24,4 C 90 % 1011,6 hPa 0,0 l/m 4,3 km/h (1 Bft) S-SW 199 2 min 0,000 mm 2,2 UV-I 480 W/m 19,9 C 21,6 C 8,0 km/h (2 Bft) 100,00 %
10.08.2017 16:30 21,8 C 24,4 C 89 % 1011,5 hPa 0,0 l/m 3,3 km/h (1 Bft) S-SO 158 2 min 0,000 mm 2,2 UV-I 511 W/m 19,9 C 21,8 C 6,4 km/h (2 Bft) 98,31 %
10.08.2017 16:32 21,8 C 24,4 C 87 % 1011,5 hPa 0,0 l/m 4,6 km/h (1 Bft) S-SO 154 2 min 0,000 mm 2,0 UV-I 442 W/m 19,5 C 21,8 C 8,0 km/h (2 Bft) 100,00 %
10.08.2017 16:34 21,9 C 24,4 C 87 % 1011,4 hPa 0,0 l/m 6,3 km/h (2 Bft) O-SO 103 2 min 0,000 mm 2,1 UV-I 490 W/m 19,6 C 21,9 C 14,5 km/h (3 Bft) 100,00 %
10.08.2017 16:36 22,1 C 24,4 C 87 % 1011,5 hPa 0,0 l/m 5,5 km/h (1 Bft) O-SO 113 2 min 0,000 mm 2,1 UV-I 536 W/m 19,8 C 22,1 C 9,7 km/h (2 Bft) 100,00 %
10.08.2017 16:38 22,2 C 24,4 C 87 % 1011,6 hPa 0,0 l/m 4,0 km/h (1 Bft) O-SO 117 2 min 0,000 mm 2,0 UV-I 406 W/m 19,9 C 22,2 C 8,0 km/h (2 Bft) 100,00 %
10.08.2017 16:40 22,2 C 24,4 C 85 % 1011,6 hPa 0,0 l/m 3,5 km/h (1 Bft) SO 132 2 min 0,000 mm 1,7 UV-I 364 W/m 19,6 C 22,2 C 8,0 km/h (2 Bft) 100,00 %
10.08.2017 16:42 22,2 C 24,4 C 85 % 1011,6 hPa 0,0 l/m 1,3 km/h (1 Bft) SO 132 0 min 0,000 mm 1,5 UV-I 222 W/m 19,6 C 22,2 C 4,8 km/h (1 Bft) 100,00 %
10.08.2017 16:44 22,3 C 24,4 C 86 % 1011,5 hPa 0,0 l/m 1,2 km/h (1 Bft) SO 132 0 min 0,000 mm 1,5 UV-I 241 W/m 19,8 C 22,3 C 3,2 km/h (1 Bft) 100,00 %
10.08.2017 16:46 22,3 C 24,4 C 86 % 1011,5 hPa 0,0 l/m 3,8 km/h (1 Bft) S-SO 163 2 min 0,000 mm 1,6 UV-I 320 W/m 19,8 C 22,3 C 8,0 km/h (2 Bft) 100,00 %
10.08.2017 16:48 22,3 C 24,4 C 83 % 1011,5 hPa 0,0 l/m 3,7 km/h (1 Bft) SO 133 2 min 0,000 mm 1,8 UV-I 376 W/m 19,3 C 22,3 C 6,4 km/h (2 Bft) 100,00 %
10.08.2017 16:50 22,4 C 24,4 C 83 % 1011,5 hPa 0,0 l/m 2,0 km/h (1 Bft) S-SW 206 2 min 0,000 mm 1,9 UV-I 500 W/m 19,4 C 22,4 C 9,7 km/h (2 Bft) 100,00 %
10.08.2017 16:52 22,5 C 24,4 C 82 % 1011,5 hPa 0,0 l/m 9,2 km/h (2 Bft) W-SW 241 2 min 0,000 mm 1,7 UV-I 398 W/m 19,3 C 21,6 C 14,5 km/h (3 Bft) 97,37 %
10.08.2017 16:54 22,3 C 24,4 C 82 % 1011,4 hPa 0,0 l/m 7,2 km/h (2 Bft) S 190 2 min 0,000 mm 1,8 UV-I 397 W/m 19,1 C 22,0 C 14,5 km/h (3 Bft) 100,00 %
10.08.2017 16:56 22,1 C 24,4 C 82 % 1011,3 hPa 0,0 l/m 5,1 km/h (1 Bft) S-SW 209 2 min 0,000 mm 1,9 UV-I 494 W/m 18,9 C 22,1 C 8,0 km/h (2 Bft) 100,00 %
10.08.2017 16:58 21,9 C 24,4 C 83 % 1011,5 hPa 0,0 l/m 6,0 km/h (2 Bft) S 184 2 min 0,000 mm 1,9 UV-I 477 W/m 18,9 C 21,9 C 9,7 km/h (2 Bft) 100,00 %
10.08.2017 17:00 21,9 C 24,4 C 86 % 1011,5 hPa 0,0 l/m 4,3 km/h (1 Bft) SW 215 2 min 0,254 mm 1,8 UV-I 476 W/m 19,4 C 21,9 C 6,4 km/h (2 Bft) 100,00 %
10.08.2017 17:02 22,2 C 24,4 C 86 % 1011,6 hPa 0,0 l/m 4,2 km/h (1 Bft) SW 236 2 min 0,000 mm 1,8 UV-I 459 W/m 19,7 C 22,2 C 6,4 km/h (2 Bft) 100,00 %
10.08.2017 17:04 22,3 C 24,4 C 83 % 1011,7 hPa 0,0 l/m 8,1 km/h (2 Bft) SW 236 2 min 0,000 mm 1,8 UV-I 458 W/m 19,3 C 21,7 C 12,9 km/h (3 Bft) 98,28 %
10.08.2017 17:06 22,2 C 24,4 C 83 % 1011,8 hPa 0,0 l/m 9,0 km/h (2 Bft) SW 223 2 min 0,000 mm 1,7 UV-I 446 W/m 19,2 C 21,4 C 14,5 km/h (3 Bft) 97,96 %
10.08.2017 17:08 22,3 C 24,4 C 82 % 1011,8 hPa 0,0 l/m 6,4 km/h (2 Bft) W-SW 243 2 min 0,000 mm 1,6 UV-I 429 W/m 19,1 C 22,3 C 11,3 km/h (2 Bft) 97,22 %
10.08.2017 17:10 22,3 C 24,4 C 82 % 1011,8 hPa 0,0 l/m 4,0 km/h (1 Bft) W-SW 244 2 min 0,000 mm 1,5 UV-I 396 W/m 19,1 C 22,3 C 8,0 km/h (2 Bft) 98,00 %
10.08.2017 17:12 22,3 C 24,4 C 81 % 1011,9 hPa 0,0 l/m 2,5 km/h (1 Bft) S 189 2 min 0,000 mm 1,5 UV-I 377 W/m 18,9 C 22,3 C 8,0 km/h (2 Bft) 97,87 %
10.08.2017 17:14 22,3 C 24,4 C 82 % 1011,8 hPa 0,0 l/m 2,1 km/h (1 Bft) S 189 2 min 0,000 mm 1,4 UV-I 323 W/m 19,1 C 22,3 C 4,8 km/h (1 Bft) 96,23 %
10.08.2017 17:16 22,3 C 24,4 C 82 % 1011,6 hPa 0,0 l/m 1,2 km/h (1 Bft) S 189 2 min 0,000 mm 1,3 UV-I 301 W/m 19,1 C 22,3 C 3,2 km/h (1 Bft) 97,30 %
10.08.2017 17:18 22,3 C 24,4 C 83 % 1011,6 hPa 0,0 l/m 1,5 km/h (1 Bft) S-SW 194 2 min 0,000 mm 1,2 UV-I 275 W/m 19,3 C 22,3 C 4,8 km/h (1 Bft) 94,64 %
10.08.2017 17:20 22,3 C 24,4 C 83 % 1011,5 hPa 0,0 l/m 5,4 km/h (1 Bft) W-SW 248 0 min 0,000 mm 1,0 UV-I 222 W/m 19,3 C 22,3 C 8,0 km/h (2 Bft) 96,00 %
10.08.2017 17:22 22,3 C 24,4 C 82 % 1011,5 hPa 0,0 l/m 4,3 km/h (1 Bft) W-SW 250 0 min 0,000 mm 0,9 UV-I 196 W/m 19,1 C 22,3 C 6,4 km/h (2 Bft) 97,56 %
10.08.2017 17:24 22,2 C 24,4 C 81 % 1011,5 hPa 0,0 l/m 3,8 km/h (1 Bft) W-SW 250 0 min 0,000 mm 0,9 UV-I 168 W/m 18,8 C 22,2 C 4,8 km/h (1 Bft) 98,00 %
10.08.2017 17:26 22,2 C 24,4 C 82 % 1011,7 hPa 0,0 l/m 5,0 km/h (1 Bft) W 268 0 min 0,000 mm 0,8 UV-I 161 W/m 19,0 C 22,2 C 6,4 km/h (2 Bft) 92,11 %
10.08.2017 17:28 22,2 C 24,4 C 83 % 1011,7 hPa 0,0 l/m 4,8 km/h (1 Bft) W 268 0 min 0,000 mm 0,8 UV-I 161 W/m 19,2 C 22,2 C 6,4 km/h (2 Bft) 98,21 %
10.08.2017 17:30 22,2 C 24,4 C 82 % 1011,7 hPa 0,0 l/m 4,8 km/h (1 Bft) W 268 0 min 0,000 mm 0,8 UV-I 161 W/m 19,0 C 22,2 C 6,4 km/h (2 Bft) 96,30 %
10.08.2017 17:32 22,1 C 24,4 C 82 % 1011,6 hPa 0,0 l/m 2,6 km/h (1 Bft) W 268 0 min 0,000 mm 0,8 UV-I 161 W/m 18,9 C 22,1 C 4,8 km/h (1 Bft) 98,18 %
10.08.2017 17:34 22,1 C 24,4 C 83 % 1011,6 hPa 0,0 l/m 2,3 km/h (1 Bft) W 268 0 min 0,000 mm 0,7 UV-I 162 W/m 19,1 C 22,1 C 3,2 km/h (1 Bft) 96,23 %
10.08.2017 17:36 22,1 C 24,4 C 83 % 1011,6 hPa 0,0 l/m 1,1 km/h (1 Bft) W 268 0 min 0,000 mm 0,7 UV-I 163 W/m 19,1 C 22,1 C 4,8 km/h (1 Bft) 98,11 %
10.08.2017 17:38 22,1 C 24,4 C 84 % 1011,5 hPa 0,0 l/m 1,1 km/h (1 Bft) W 268 0 min 0,000 mm 0,7 UV-I 161 W/m 19,3 C 22,1 C 3,2 km/h (1 Bft) 100,00 %
10.08.2017 17:40 22,1 C 24,4 C 83 % 1011,4 hPa 0,0 l/m 1,8 km/h (1 Bft) W 268 0 min 0,000 mm 0,6 UV-I 156 W/m 19,1 C 22,1 C 4,8 km/h (1 Bft) 100,00 %
10.08.2017 17:42 22,1 C 24,4 C 84 % 1011,5 hPa 0,0 l/m 3,7 km/h (1 Bft) W 268 0 min 0,000 mm 0,6 UV-I 151 W/m 19,3 C 22,1 C 6,4 km/h (2 Bft) 98,11 %
10.08.2017 17:44 22,1 C 24,4 C 82 % 1011,6 hPa 0,0 l/m 4,0 km/h (1 Bft) W 268 0 min 0,000 mm 0,6 UV-I 144 W/m 18,9 C 22,1 C 4,8 km/h (1 Bft) 97,44 %
10.08.2017 17:46 22,1 C 24,4 C 83 % 1011,6 hPa 0,0 l/m 2,3 km/h (1 Bft) W 268 0 min 0,000 mm 0,5 UV-I 137 W/m 19,1 C 22,1 C 4,8 km/h (1 Bft) 100,00 %
10.08.2017 17:48 22,1 C 24,4 C 84 % 1011,7 hPa 0,0 l/m 2,8 km/h (1 Bft) W 268 0 min 0,000 mm 0,5 UV-I 132 W/m 19,3 C 22,1 C 4,8 km/h (1 Bft) 100,00 %
10.08.2017 17:50 22,0 C 24,4 C 84 % 1011,8 hPa 0,0 l/m 3,7 km/h (1 Bft) W-SW 238 0 min 0,000 mm 0,5 UV-I 127 W/m 19,2 C 22,0 C 8,0 km/h (2 Bft) 97,37 %
10.08.2017 17:52 21,9 C 24,4 C 83 % 1011,9 hPa 0,0 l/m 4,8 km/h (1 Bft) W-SW 240 0 min 0,000 mm 0,0 UV-I 123 W/m 18,9 C 21,9 C 9,7 km/h (2 Bft) 100,00 %
10.08.2017 17:54 21,7 C 24,4 C 81 % 1012,0 hPa 0,0 l/m 13,2 km/h (3 Bft) W-SW 252 0 min 0,000 mm 0,0 UV-I 117 W/m 18,3 C 19,7 C 19,3 km/h (3 Bft) 100,00 %
10.08.2017 17:56 21,7 C 24,4 C 81 % 1012,1 hPa 0,0 l/m 6,7 km/h (2 Bft) SW 227 0 min 0,000 mm 0,0 UV-I 113 W/m 18,3 C 21,6 C 14,5 km/h (3 Bft) 100,00 %
10.08.2017 17:58 21,6 C 24,4 C 83 % 1012,2 hPa 0,0 l/m 5,5 km/h (1 Bft) W-SW 242 0 min 0,000 mm 0,0 UV-I 106 W/m 18,6 C 21,6 C 11,3 km/h (2 Bft) 98,21 %
10.08.2017 18:00 21,6 C 24,4 C 83 % 1012,2 hPa 0,0 l/m 6,3 km/h (2 Bft) W-SW 248 0 min 0,000 mm 0,0 UV-I 99 W/m 18,6 C 21,6 C 9,7 km/h (2 Bft) 100,00 %
10.08.2017 18:02 21,5 C 24,4 C 83 % 1012,2 hPa 0,0 l/m 5,9 km/h (2 Bft) SW 236 0 min 0,152 mm 0,0 UV-I 94 W/m 18,5 C 21,5 C 12,9 km/h (3 Bft) 100,00 %
10.08.2017 18:04 21,4 C 24,4 C 84 % 1012,3 hPa 0,0 l/m 3,1 km/h (1 Bft) W-SW 238 0 min 0,000 mm 0,0 UV-I 87 W/m 18,6 C 21,4 C 4,8 km/h (1 Bft) 100,00 %
10.08.2017 18:06 21,4 C 24,4 C 84 % 1012,3 hPa 0,0 l/m 5,1 km/h (1 Bft) W-SW 245 0 min 0,000 mm 0,0 UV-I 75 W/m 18,6 C 21,4 C 8,0 km/h (2 Bft) 100,00 %
10.08.2017 18:08 21,4 C 24,4 C 84 % 1012,2 hPa 0,0 l/m 4,5 km/h (1 Bft) W-SW 238 0 min 0,000 mm 0,0 UV-I 63 W/m 18,6 C 21,4 C 6,4 km/h (2 Bft) 100,00 %
10.08.2017 18:10 21,4 C 24,4 C 83 % 1012,2 hPa 0,0 l/m 2,9 km/h (1 Bft) W-SW 238 0 min 0,000 mm 0,0 UV-I 55 W/m 18,4 C 21,4 C 4,8 km/h (1 Bft) 100,00 %
10.08.2017 18:12 21,3 C 24,4 C 83 % 1012,2 hPa 0,0 l/m 4,8 km/h (1 Bft) SW 216 0 min 0,000 mm 0,0 UV-I 50 W/m 18,3 C 21,3 C 8,0 km/h (2 Bft) 100,00 %
10.08.2017 18:14 21,3 C 24,4 C 83 % 1012,2 hPa 0,0 l/m 1,3 km/h (1 Bft) S 182 0 min 0,000 mm 0,0 UV-I 51 W/m 18,3 C 21,3 C 3,2 km/h (1 Bft) 98,11 %
10.08.2017 18:16 21,3 C 24,4 C 82 % 1012,1 hPa 0,0 l/m 2,7 km/h (1 Bft) S 182 0 min 0,000 mm 0,0 UV-I 58 W/m 18,1 C 21,3 C 6,4 km/h (2 Bft) 100,00 %
10.08.2017 18:18 21,3 C 24,4 C 82 % 1012,1 hPa 0,0 l/m 4,2 km/h (1 Bft) S-SW 209 0 min 0,000 mm 0,0 UV-I 71 W/m 18,1 C 21,3 C 6,4 km/h (2 Bft) 100,00 %
10.08.2017 18:20 21,3 C 24,4 C 82 % 1012,1 hPa 0,0 l/m 4,7 km/h (1 Bft) S-SW 209 0 min 0,000 mm 0,0 UV-I 72 W/m 18,1 C 21,3 C 6,4 km/h (2 Bft) 100,00 %
10.08.2017 18:22 21,3 C 24,4 C 82 % 1012,1 hPa 0,0 l/m 4,0 km/h (1 Bft) S-SW 209 0 min 0,000 mm 0,0 UV-I 62 W/m 18,1 C 21,3 C 6,4 km/h (2 Bft) 100,00 %
10.08.2017 18:24 21,3 C 24,4 C 81 % 1012,2 hPa 0,0 l/m 5,1 km/h (1 Bft) SW 234 0 min 0,000 mm 0,0 UV-I 53 W/m 17,9 C 21,3 C 8,0 km/h (2 Bft) 98,08 %
10.08.2017 18:26 21,3 C 24,4 C 81 % 1012,1 hPa 0,0 l/m 4,2 km/h (1 Bft) SW 236 0 min 0,000 mm 0,0 UV-I 54 W/m 17,9 C 21,3 C 4,8 km/h (1 Bft) 100,00 %
10.08.2017 18:28 21,3 C 24,4 C 81 % 1012,1 hPa 0,0 l/m 5,3 km/h (1 Bft) W 273 0 min 0,000 mm 0,0 UV-I 66 W/m 17,9 C 21,3 C 9,7 km/h (2 Bft) 100,00 %
10.08.2017 18:30 21,3 C 24,4 C 82 % 1012,0 hPa 0,0 l/m 6,3 km/h (2 Bft) W-SW 245 0 min 0,000 mm 0,0 UV-I 77 W/m 18,1 C 21,3 C 9,7 km/h (2 Bft) 100,00 %
10.08.2017 18:32 21,2 C 24,4 C 83 % 1012,0 hPa 0,0 l/m 4,4 km/h (1 Bft) W-SW 255 0 min 0,000 mm 0,0 UV-I 82 W/m 18,2 C 21,2 C 6,4 km/h (2 Bft) 100,00 %
10.08.2017 18:34 21,2 C 24,4 C 84 % 1012,0 hPa 0,0 l/m 4,3 km/h (1 Bft) W-SW 240 0 min 0,000 mm 0,0 UV-I 78 W/m 18,4 C 21,2 C 6,4 km/h (2 Bft) 100,00 %
10.08.2017 18:36 21,1 C 24,4 C 85 % 1012,1 hPa 0,0 l/m 5,8 km/h (2 Bft) SW 232 0 min 0,000 mm 0,0 UV-I 68 W/m 18,5 C 21,1 C 9,7 km/h (2 Bft) 97,37 %
10.08.2017 18:38 21,1 C 24,4 C 84 % 1012,2 hPa 0,0 l/m 5,6 km/h (1 Bft) W-SW 246 0 min 0,000 mm 0,0 UV-I 55 W/m 18,3 C 21,1 C 11,3 km/h (2 Bft) 100,00 %
10.08.2017 18:40 21,1 C 24,4 C 85 % 1012,2 hPa 0,0 l/m 5,3 km/h (1 Bft) W-SW 258 0 min 0,000 mm 0,0 UV-I 44 W/m 18,5 C 21,1 C 8,0 km/h (2 Bft) 100,00 %
10.08.2017 18:42 21,0 C 24,4 C 85 % 1012,2 hPa 0,0 l/m 4,7 km/h (1 Bft) SW 232 0 min 0,000 mm 0,0 UV-I 36 W/m 18,4 C 21,0 C 6,4 km/h (2 Bft) 100,00 %
10.08.2017 18:44 21,0 C 24,4 C 86 % 1012,4 hPa 0,0 l/m 9,9 km/h (2 Bft) W-SW 258 0 min 0,000 mm 0,0 UV-I 30 W/m 18,6 C 19,8 C 14,5 km/h (3 Bft) 98,00 %
10.08.2017 18:46 21,0 C 24,4 C 86 % 1012,3 hPa 0,0 l/m 7,8 km/h (2 Bft) W 261 0 min 0,000 mm 0,0 UV-I 26 W/m 18,6 C 20,5 C 11,3 km/h (2 Bft) 97,56 %
10.08.2017 18:48 20,9 C 24,4 C 86 % 1012,3 hPa 0,0 l/m 7,9 km/h (2 Bft) W-SW 243 0 min 0,000 mm 0,0 UV-I 24 W/m 18,5 C 20,3 C 12,9 km/h (3 Bft) 98,11 %
10.08.2017 18:50 20,9 C 24,4 C 87 % 1012,4 hPa 0,0 l/m 7,4 km/h (2 Bft) W-SW 253 0 min 0,000 mm 0,0 UV-I 22 W/m 18,7 C 20,5 C 12,9 km/h (3 Bft) 100,00 %
10.08.2017 18:52 20,9 C 24,4 C 87 % 1012,5 hPa 0,0 l/m 7,8 km/h (2 Bft) W-SW 256 0 min 0,000 mm 0,0 UV-I 20 W/m 18,7 C 20,4 C 17,7 km/h (3 Bft) 100,00 %
10.08.2017 18:54 20,9 C 24,4 C 87 % 1012,6 hPa 0,0 l/m 7,8 km/h (2 Bft) W-SW 254 0 min 0,000 mm 0,0 UV-I 18 W/m 18,7 C 20,4 C 17,7 km/h (3 Bft) 97,87 %
10.08.2017 18:56 20,8 C 24,4 C 88 % 1012,8 hPa 0,0 l/m 9,5 km/h (2 Bft) W 280 0 min 0,000 mm 0,0 UV-I 14 W/m 18,7 C 19,7 C 17,7 km/h (3 Bft) 100,00 %
10.08.2017 18:58 20,8 C 24,4 C 88 % 1012,9 hPa 0,0 l/m 12,8 km/h (3 Bft) W-NW 288 0 min 0,000 mm 0,0 UV-I 11 W/m 18,7 C 18,7 C 17,7 km/h (3 Bft) 100,00 %
10.08.2017 19:00 20,8 C 24,4 C 88 % 1013,1 hPa 0,0 l/m 12,4 km/h (3 Bft) W 275 0 min 0,051 mm 0,0 UV-I 11 W/m 18,7 C 18,8 C 20,9 km/h (4 Bft) 100,00 %
10.08.2017 19:02 20,8 C 24,4 C 88 % 1013,2 hPa 0,0 l/m 12,8 km/h (3 Bft) W-SW 250 0 min 0,000 mm 0,0 UV-I 11 W/m 18,7 C 18,7 C 19,3 km/h (3 Bft) 100,00 %
10.08.2017 19:04 20,7 C 24,4 C 88 % 1013,4 hPa 0,0 l/m 13,9 km/h (3 Bft) W-SW 254 0 min 0,000 mm 0,0 UV-I 11 W/m 18,6 C 18,4 C 20,9 km/h (4 Bft) 97,44 %
10.08.2017 19:06 20,6 C 24,4 C 88 % 1013,7 hPa 0,6 l/m 17,0 km/h (3 Bft) W 267 0 min 0,000 mm 0,0 UV-I 9 W/m 18,5 C 17,5 C 24,1 km/h (4 Bft) 98,00 %
10.08.2017 19:08 20,6 C 24,4 C 88 % 1013,8 hPa 0,8 l/m 14,5 km/h (3 Bft) W-SW 242 0 min 0,000 mm 0,0 UV-I 9 W/m 18,5 C 18,1 C 19,3 km/h (3 Bft) 97,37 %
10.08.2017 19:10 20,4 C 24,4 C 89 % 1013,7 hPa 1,2 l/m 7,1 km/h (2 Bft) W 261 0 min 0,000 mm 0,0 UV-I 9 W/m 18,5 C 20,1 C 11,3 km/h (2 Bft) 96,77 %
10.08.2017 19:13 20,3 C 24,4 C 90 % 1013,7 hPa 0,6 l/m 6,6 km/h (2 Bft) W-SW 245 0 min 0,000 mm 0,0 UV-I 7 W/m 18,6 C 20,2 C 12,9 km/h (3 Bft) 97,14 %
10.08.2017 19:14 20,2 C 24,4 C 90 % 1013,7 hPa 0,2 l/m 11,5 km/h (2 Bft) W-SW 246 0 min 0,000 mm 0,0 UV-I 5 W/m 18,5 C 18,4 C 14,5 km/h (3 Bft) 100,00 %
10.08.2017 19:16 20,1 C 24,4 C 91 % 1013,9 hPa 0,0 l/m 11,6 km/h (2 Bft) SW 234 0 min 0,000 mm 0,0 UV-I 5 W/m 18,6 C 18,3 C 20,9 km/h (4 Bft) 96,00 %
10.08.2017 19:18 20,0 C 24,4 C 91 % 1014,0 hPa 0,0 l/m 14,2 km/h (3 Bft) W-SW 249 0 min 0,000 mm 0,0 UV-I 7 W/m 18,5 C 17,4 C 30,6 km/h (5 Bft) 96,00 %
10.08.2017 19:20 19,8 C 24,4 C 91 % 1014,1 hPa 0,0 l/m 23,8 km/h (4 Bft) SW 234 0 min 0,000 mm 0,0 UV-I 7 W/m 18,3 C 15,3 C 37,0 km/h (5 Bft) 97,56 %
10.08.2017 19:22 19,7 C 24,4 C 90 % 1014,2 hPa 0,2 l/m 21,4 km/h (4 Bft) SW 236 0 min 0,000 mm 0,0 UV-I 7 W/m 18,0 C 15,6 C 30,6 km/h (5 Bft) 98,00 %
10.08.2017 19:24 19,6 C 24,4 C 90 % 1014,6 hPa 0,2 l/m 23,7 km/h (4 Bft) W-SW 258 0 min 0,000 mm 0,0 UV-I 5 W/m 17,9 C 15,0 C 30,6 km/h (5 Bft) 96,00 %
10.08.2017 19:26 19,4 C 24,4 C 90 % 1014,7 hPa 0,2 l/m 17,8 km/h (3 Bft) W-SW 244 0 min 0,000 mm 0,0 UV-I 2 W/m 17,7 C 15,9 C 27,4 km/h (4 Bft) 95,12 %
10.08.2017 19:28 19,4 C 24,4 C 91 % 1014,7 hPa 0,2 l/m 14,1 km/h (3 Bft) SW 224 0 min 0,000 mm 0,0 UV-I 4 W/m 17,9 C 16,8 C 20,9 km/h (4 Bft) 95,45 %
10.08.2017 19:30 19,3 C 24,4 C 91 % 1014,6 hPa 0,2 l/m 7,2 km/h (2 Bft) W-SW 238 0 min 0,000 mm 0,0 UV-I 5 W/m 17,8 C 19,0 C 12,9 km/h (3 Bft) 96,61 %
10.08.2017 19:32 19,3 C 24,4 C 91 % 1014,4 hPa 0,2 l/m 10,7 km/h (2 Bft) S-SW 197 0 min 0,000 mm 0,0 UV-I 5 W/m 17,8 C 17,6 C 17,7 km/h (3 Bft) 95,45 %
10.08.2017 19:34 19,2 C 24,4 C 91 % 1014,3 hPa 0,4 l/m 8,4 km/h (2 Bft) SW 229 0 min 0,000 mm 0,0 UV-I 5 W/m 17,7 C 18,4 C 14,5 km/h (3 Bft) 93,62 %
10.08.2017 19:36 19,1 C 24,4 C 92 % 1014,3 hPa 0,2 l/m 7,3 km/h (2 Bft) W-SW 246 0 min 0,000 mm 0,0 UV-I 5 W/m 17,8 C 18,7 C 12,9 km/h (3 Bft) 94,87 %
10.08.2017 19:38 19,1 C 24,4 C 92 % 1014,3 hPa 0,2 l/m 6,9 km/h (2 Bft) W-NW 284 0 min 0,000 mm 0,0 UV-I 1 W/m 17,8 C 18,9 C 12,9 km/h (3 Bft) 98,18 %
10.08.2017 19:40 19,0 C 24,4 C 92 % 1014,5 hPa 0,4 l/m 6,7 km/h (2 Bft) W-SW 245 0 min 0,000 mm 0,0 UV-I 0 W/m 17,7 C 18,9 C 11,3 km/h (2 Bft) 96,30 %
10.08.2017 19:42 19,0 C 24,4 C 92 % 1014,5 hPa 0,0 l/m 7,7 km/h (2 Bft) W-SW 244 0 min 0,000 mm 0,0 UV-I 0 W/m 17,7 C 18,4 C 11,3 km/h (2 Bft) 98,31 %
10.08.2017 19:44 18,9 C 24,4 C 93 % 1014,3 hPa 0,2 l/m 5,1 km/h (1 Bft) W-SW 252 0 min 0,000 mm 0,0 UV-I 0 W/m 17,7 C 18,9 C 8,0 km/h (2 Bft) 96,23 %
10.08.2017 19:46 18,9 C 24,4 C 93 % 1014,3 hPa 0,0 l/m 1,8 km/h (1 Bft) W-SW 242 0 min 0,000 mm 0,0 UV-I 0 W/m 17,7 C 18,9 C 4,8 km/h (1 Bft) 96,00 %
10.08.2017 19:48 18,9 C 24,4 C 93 % 1014,4 hPa 0,2 l/m 6,3 km/h (2 Bft) W-SW 245 0 min 0,000 mm 0,0 UV-I 5 W/m 17,7 C 18,9 C 12,9 km/h (3 Bft) 97,56 %
10.08.2017 19:50 18,8 C 24,4 C 93 % 1014,4 hPa 0,0 l/m 8,5 km/h (2 Bft) W-SW 257 0 min 0,000 mm 0,0 UV-I 3 W/m 17,6 C 17,9 C 14,5 km/h (3 Bft) 98,11 %
10.08.2017 19:52 18,8 C 24,4 C 94 % 1014,3 hPa 0,0 l/m 9,3 km/h (2 Bft) W-SW 258 0 min 0,000 mm 0,0 UV-I 5 W/m 17,8 C 17,6 C 14,5 km/h (3 Bft) 97,37 %
10.08.2017 19:54 18,8 C 23,9 C 93 % 1014,3 hPa 0,2 l/m 14,3 km/h (3 Bft) SW 230 0 min 0,000 mm 0,0 UV-I 5 W/m 17,6 C 16,0 C 19,3 km/h (3 Bft) 98,11 %
10.08.2017 19:56 18,7 C 23,9 C 94 % 1014,3 hPa 0,2 l/m 16,1 km/h (3 Bft) W-SW 252 0 min 0,000 mm 0,0 UV-I 5 W/m 17,7 C 15,4 C 24,1 km/h (4 Bft) 97,56 %
10.08.2017 19:58 18,7 C 23,9 C 94 % 1014,3 hPa 0,0 l/m 14,0 km/h (3 Bft) SW 221 0 min 0,000 mm 0,0 UV-I 3 W/m 17,7 C 15,9 C 19,3 km/h (3 Bft) 97,73 %
10.08.2017 20:00 18,6 C 23,9 C 94 % 1014,2 hPa 0,0 l/m 14,0 km/h (3 Bft) W-SW 257 0 min 0,000 mm 0,0 UV-I 5 W/m 17,6 C 15,8 C 20,9 km/h (4 Bft) 96,61 %
10.08.2017 20:02 18,6 C 23,9 C 94 % 1014,0 hPa 0,0 l/m 10,9 km/h (2 Bft) W-SW 254 0 min 0,026 mm 0,0 UV-I 5 W/m 17,6 C 16,8 C 16,1 km/h (3 Bft) 100,00 %
10.08.2017 20:04 18,4 C 23,9 C 94 % 1014,0 hPa 0,2 l/m 4,3 km/h (1 Bft) W-SW 254 0 min 0,000 mm 0,0 UV-I 5 W/m 17,4 C 18,4 C 6,4 km/h (2 Bft) 96,23 %
10.08.2017 20:06 18,4 C 23,9 C 94 % 1014,0 hPa 0,0 l/m 7,4 km/h (2 Bft) W-SW 244 0 min 0,000 mm 0,0 UV-I 5 W/m 17,4 C 17,9 C 12,9 km/h (3 Bft) 97,87 %
10.08.2017 20:08 18,4 C 23,9 C 94 % 1013,9 hPa 0,0 l/m 6,3 km/h (2 Bft) W-SW 239 0 min 0,000 mm 0,0 UV-I 1 W/m 17,4 C 18,4 C 11,3 km/h (2 Bft) 95,12 %
10.08.2017 20:10 18,3 C 23,9 C 95 % 1013,9 hPa 0,0 l/m 8,8 km/h (2 Bft) SW 227 0 min 0,000 mm 0,0 UV-I 3 W/m 17,5 C 17,2 C 14,5 km/h (3 Bft) 98,11 %
10.08.2017 20:12 18,3 C 23,9 C 94 % 1013,8 hPa 0,0 l/m 8,9 km/h (2 Bft) W 261 0 min 0,000 mm 0,0 UV-I 5 W/m 17,3 C 17,2 C 14,5 km/h (3 Bft) 97,37 %
10.08.2017 20:14 18,2 C 23,9 C 94 % 1013,7 hPa 0,0 l/m 6,4 km/h (2 Bft) W 276 0 min 0,000 mm 0,0 UV-I 5 W/m 17,2 C 18,2 C 14,5 km/h (3 Bft) 98,00 %
10.08.2017 20:16 18,1 C 23,9 C 94 % 1013,2 hPa 0,0 l/m 5,4 km/h (1 Bft) W-NW 297 0 min 0,000 mm 0,0 UV-I 6 W/m 17,1 C 18,1 C 14,5 km/h (3 Bft) 98,11 %
10.08.2017 20:18 18,0 C 23,9 C 94 % 1012,9 hPa 0,0 l/m 6,0 km/h (2 Bft) N-NO 28 0 min 0,000 mm 0,0 UV-I 6 W/m 17,0 C 18,0 C 17,7 km/h (3 Bft) 97,44 %
10.08.2017 20:20 17,9 C 23,9 C 94 % 1012,3 hPa 0,0 l/m 2,5 km/h (1 Bft) N-NW 340 0 min 0,000 mm 0,0 UV-I 5 W/m 16,9 C 17,9 C 6,4 km/h (2 Bft) 97,87 %
10.08.2017 20:22 17,8 C 23,9 C 94 % 1011,9 hPa 0,0 l/m 3,2 km/h (1 Bft) N-NW 327 0 min 0,000 mm 0,0 UV-I 5 W/m 16,8 C 17,8 C 8,0 km/h (2 Bft) 95,74 %
10.08.2017 20:24 17,8 C 23,9 C 94 % 1012,1 hPa 0,0 l/m 4,8 km/h (1 Bft) W-NW 301 0 min 0,000 mm 0,0 UV-I 5 W/m 16,8 C 17,8 C 12,9 km/h (3 Bft) 94,34 %
10.08.2017 20:26 17,7 C 23,9 C 94 % 1012,7 hPa 0,0 l/m 2,7 km/h (1 Bft) S-SO 163 0 min 0,000 mm 0,0 UV-I 3 W/m 16,7 C 17,7 C 6,4 km/h (2 Bft) 96,00 %
10.08.2017 20:28 17,6 C 23,9 C 94 % 1013,2 hPa 0,0 l/m 6,1 km/h (2 Bft) SW 234 0 min 0,000 mm 0,0 UV-I 0 W/m 16,6 C 17,6 C 11,3 km/h (2 Bft) 97,56 %
10.08.2017 20:30 17,6 C 23,9 C 94 % 1013,0 hPa 0,0 l/m 5,1 km/h (1 Bft) N-NW 338 0 min 0,000 mm 0,0 UV-I 0 W/m 16,6 C 17,6 C 14,5 km/h (3 Bft) 100,00 %
10.08.2017 20:32 17,6 C 23,9 C 94 % 1012,9 hPa 0,0 l/m 7,8 km/h (2 Bft) W 277 0 min 0,000 mm 0,0 UV-I 0 W/m 16,6 C 16,9 C 12,9 km/h (3 Bft) 97,37 %
10.08.2017 20:34 17,6 C 23,9 C 94 % 1013,0 hPa 0,0 l/m 4,1 km/h (1 Bft) W 267 0 min 0,000 mm 0,0 UV-I 0 W/m 16,6 C 17,6 C 6,4 km/h (2 Bft) 100,00 %
10.08.2017 20:36 17,6 C 23,9 C 94 % 1013,0 hPa 0,0 l/m 3,9 km/h (1 Bft) W-SW 258 0 min 0,000 mm 0,0 UV-I 0 W/m 16,6 C 17,6 C 8,0 km/h (2 Bft) 100,00 %
10.08.2017 20:38 17,5 C 23,9 C 94 % 1013,0 hPa 0,0 l/m 3,1 km/h (1 Bft) W-SW 252 0 min 0,000 mm 0,0 UV-I 0 W/m 16,5 C 17,5 C 6,4 km/h (2 Bft) 98,00 %
10.08.2017 20:40 17,5 C 23,9 C 94 % 1012,9 hPa 0,0 l/m 3,7 km/h (1 Bft) W-SW 252 0 min 0,000 mm 0,0 UV-I 0 W/m 16,5 C 17,5 C 6,4 km/h (2 Bft) 97,56 %
10.08.2017 20:42 17,5 C 23,9 C 94 % 1013,0 hPa 0,0 l/m 4,0 km/h (1 Bft) W-SW 240 0 min 0,000 mm 0,0 UV-I 0 W/m 16,5 C 17,5 C 6,4 km/h (2 Bft) 100,00 %
10.08.2017 20:44 17,5 C 23,9 C 94 % 1013,1 hPa 0,0 l/m 4,7 km/h (1 Bft) W-SW 257 0 min 0,000 mm 0,0 UV-I 0 W/m 16,5 C 17,5 C 6,4 km/h (2 Bft) 97,67 %
10.08.2017 20:46 17,5 C 23,9 C 94 % 1013,1 hPa 0,0 l/m 5,3 km/h (1 Bft) W-SW 246 0 min 0,000 mm 0,0 UV-I 0 W/m 16,5 C 17,5 C 8,0 km/h (2 Bft) 100,00 %
10.08.2017 20:48 17,5 C 23,9 C 94 % 1013,2 hPa 0,0 l/m 6,2 km/h (2 Bft) W-SW 252 0 min 0,000 mm 0,0 UV-I 0 W/m 16,5 C 17,5 C 12,9 km/h (3 Bft) 100,00 %
10.08.2017 20:50 17,5 C 23,9 C 94 % 1013,3 hPa 0,0 l/m 10,9 km/h (2 Bft) W-SW 246 0 min 0,000 mm 0,0 UV-I 0 W/m 16,5 C 15,5 C 17,7 km/h (3 Bft) 97,56 %
10.08.2017 20:52 17,5 C 23,9 C 94 % 1013,4 hPa 0,0 l/m 7,6 km/h (2 Bft) W-SW 246 0 min 0,000 mm 0,0 UV-I 0 W/m 16,5 C 16,9 C 11,3 km/h (2 Bft) 100,00 %
10.08.2017 20:54 17,5 C 23,9 C 94 % 1013,6 hPa 0,0 l/m 8,2 km/h (2 Bft) W-SW 255 0 min 0,000 mm 0,0 UV-I 0 W/m 16,5 C 16,6 C 14,5 km/h (3 Bft) 100,00 %
10.08.2017 20:56 17,5 C 23,9 C 94 % 1013,6 hPa 0,0 l/m 6,9 km/h (2 Bft) W 261 0 min 0,000 mm 0,0 UV-I 0 W/m 16,5 C 17,3 C 12,9 km/h (3 Bft) 100,00 %
10.08.2017 20:58 17,5 C 23,9 C 94 % 1013,6 hPa 0,0 l/m 3,8 km/h (1 Bft) W 263 0 min 0,000 mm 0,0 UV-I 0 W/m 16,5 C 17,5 C 6,4 km/h (2 Bft) 92,31 %
10.08.2017 21:00 17,5 C 23,9 C 95 % 1013,6 hPa 0,0 l/m 4,8 km/h (1 Bft) W-SW 242 0 min 0,000 mm 0,0 UV-I 0 W/m 16,7 C 17,5 C 9,7 km/h (2 Bft) 100,00 %
10.08.2017 21:02 17,5 C 23,9 C 94 % 1013,7 hPa 0,0 l/m 4,7 km/h (1 Bft) W-SW 257 0 min 0,000 mm 0,0 UV-I 0 W/m 16,5 C 17,5 C 9,7 km/h (2 Bft) 97,56 %
10.08.2017 21:04 17,5 C 23,9 C 95 % 1013,8 hPa 0,0 l/m 6,8 km/h (2 Bft) SW 236 0 min 0,000 mm 0,0 UV-I 0 W/m 16,7 C 17,3 C 12,9 km/h (3 Bft) 96,43 %
10.08.2017 21:06 17,4 C 23,9 C 94 % 1013,9 hPa 0,0 l/m 5,8 km/h (2 Bft) W-SW 238 0 min 0,000 mm 0,0 UV-I 0 W/m 16,4 C 17,4 C 12,9 km/h (3 Bft) 98,00 %
10.08.2017 21:08 17,4 C 23,9 C 94 % 1014,0 hPa 0,0 l/m 8,1 km/h (2 Bft) W-SW 241 0 min 0,000 mm 0,0 UV-I 0 W/m 16,4 C 16,6 C 14,5 km/h (3 Bft) 97,87 %
10.08.2017 21:10 17,4 C 23,9 C 95 % 1014,0 hPa 0,0 l/m 6,2 km/h (2 Bft) W 259 0 min 0,000 mm 0,0 UV-I 0 W/m 16,6 C 17,4 C 11,3 km/h (2 Bft) 97,37 %
10.08.2017 21:12 17,4 C 23,9 C 95 % 1014,1 hPa 0,0 l/m 5,7 km/h (1 Bft) W-SW 243 0 min 0,000 mm 0,0 UV-I 0 W/m 16,6 C 17,4 C 11,3 km/h (2 Bft) 98,00 %
10.08.2017 21:14 17,4 C 23,9 C 94 % 1014,1 hPa 0,0 l/m 9,6 km/h (2 Bft) W-SW 242 0 min 0,000 mm 0,0 UV-I 0 W/m 16,4 C 15,9 C 14,5 km/h (3 Bft) 98,00 %
10.08.2017 21:16 17,4 C 23,9 C 94 % 1014,1 hPa 0,0 l/m 9,3 km/h (2 Bft) W-SW 254 0 min 0,000 mm 0,0 UV-I 0 W/m 16,4 C 16,1 C 16,1 km/h (3 Bft) 97,87 %
10.08.2017 21:18 17,4 C 23,9 C 94 % 1014,1 hPa 0,0 l/m 11,1 km/h (2 Bft) SW 230 0 min 0,000 mm 0,0 UV-I 0 W/m 16,4 C 15,4 C 17,7 km/h (3 Bft) 91,49 %
10.08.2017 21:20 17,4 C 23,9 C 94 % 1014,1 hPa 0,0 l/m 10,3 km/h (2 Bft) W-SW 246 0 min 0,000 mm 0,0 UV-I 0 W/m 16,4 C 15,7 C 16,1 km/h (3 Bft) 97,56 %
10.08.2017 21:22 17,3 C 23,9 C 94 % 1014,1 hPa 0,0 l/m 12,7 km/h (3 Bft) W-SW 239 0 min 0,000 mm 0,0 UV-I 0 W/m 16,3 C 14,7 C 17,7 km/h (3 Bft) 96,23 %
10.08.2017 21:24 17,3 C 23,9 C 94 % 1014,2 hPa 0,0 l/m 12,2 km/h (2 Bft) W-SW 244 0 min 0,000 mm 0,0 UV-I 0 W/m 16,3 C 14,9 C 17,7 km/h (3 Bft) 96,00 %
10.08.2017 21:26 17,3 C 23,9 C 94 % 1014,2 hPa 0,0 l/m 12,1 km/h (2 Bft) W-SW 243 0 min 0,000 mm 0,0 UV-I 0 W/m 16,3 C 14,9 C 17,7 km/h (3 Bft) 97,37 %
10.08.2017 21:28 17,3 C 23,9 C 94 % 1014,2 hPa 0,0 l/m 9,3 km/h (2 Bft) W-SW 253 0 min 0,000 mm 0,0 UV-I 0 W/m 16,3 C 15,9 C 16,1 km/h (3 Bft) 96,00 %
10.08.2017 21:30 17,3 C 23,9 C 94 % 1014,2 hPa 0,0 l/m 8,8 km/h (2 Bft) W-SW 254 0 min 0,000 mm 0,0 UV-I 0 W/m 16,3 C 16,2 C 16,1 km/h (3 Bft) 96,00 %
10.08.2017 21:32 17,3 C 23,9 C 94 % 1014,1 hPa 0,0 l/m 12,3 km/h (3 Bft) W-SW 241 0 min 0,000 mm 0,0 UV-I 0 W/m 16,3 C 14,8 C 16,1 km/h (3 Bft) 98,00 %
10.08.2017 21:34 17,3 C 23,9 C 94 % 1014,2 hPa 0,0 l/m 12,2 km/h (2 Bft) SW 221 0 min 0,000 mm 0,0 UV-I 0 W/m 16,3 C 14,9 C 17,7 km/h (3 Bft) 95,45 %
10.08.2017 21:36 17,3 C 23,9 C 95 % 1014,3 hPa 0,0 l/m 8,3 km/h (2 Bft) W 264 0 min 0,000 mm 0,0 UV-I 0 W/m 16,5 C 16,4 C 14,5 km/h (3 Bft) 100,00 %
10.08.2017 21:38 17,3 C 23,9 C 95 % 1014,4 hPa 0,0 l/m 11,0 km/h (2 Bft) SW 227 0 min 0,000 mm 0,0 UV-I 0 W/m 16,5 C 15,3 C 17,7 km/h (3 Bft) 96,36 %
10.08.2017 21:40 17,3 C 23,9 C 94 % 1014,5 hPa 0,0 l/m 9,2 km/h (2 Bft) S-SW 207 0 min 0,000 mm 0,0 UV-I 0 W/m 16,3 C 16,0 C 16,1 km/h (3 Bft) 100,00 %
10.08.2017 21:42 17,1 C 23,9 C 93 % 1014,8 hPa 0,2 l/m 19,2 km/h (3 Bft) S-SW 194 0 min 0,000 mm 0,0 UV-I 0 W/m 16,0 C 12,6 C 35,4 km/h (5 Bft) 100,00 %
10.08.2017 21:44 16,6 C 23,9 C 92 % 1015,0 hPa 0,0 l/m 26,7 km/h (4 Bft) SW 223 0 min 0,000 mm 0,0 UV-I 0 W/m 15,3 C 10,5 C 38,6 km/h (5 Bft) 98,00 %
10.08.2017 21:46 16,3 C 23,9 C 92 % 1015,1 hPa 0,0 l/m 22,2 km/h (4 Bft) S-SW 195 0 min 0,000 mm 0,0 UV-I 0 W/m 15,0 C 10,9 C 30,6 km/h (5 Bft) 100,00 %
10.08.2017 21:48 16,1 C 23,9 C 91 % 1015,3 hPa 0,0 l/m 20,3 km/h (4 Bft) S-SW 212 0 min 0,000 mm 0,0 UV-I 0 W/m 14,6 C 11,1 C 29,0 km/h (5 Bft) 94,29 %
10.08.2017 21:50 15,8 C 23,9 C 91 % 1015,3 hPa 0,0 l/m 22,9 km/h (4 Bft) W-NW 286 0 min 0,000 mm 0,0 UV-I 0 W/m 14,3 C 10,1 C 30,6 km/h (5 Bft) 100,00 %
10.08.2017 21:52 15,8 C 23,9 C 92 % 1015,5 hPa 0,0 l/m 22,3 km/h (4 Bft) SW 233 0 min 0,000 mm 0,0 UV-I 0 W/m 14,5 C 10,2 C 30,6 km/h (5 Bft) 98,15 %
10.08.2017 21:54 15,7 C 23,9 C 92 % 1015,5 hPa 0,0 l/m 22,1 km/h (4 Bft) W-SW 243 0 min 0,000 mm 0,0 UV-I 0 W/m 14,4 C 10,2 C 33,8 km/h (5 Bft) 100,00 %
10.08.2017 21:56 15,6 C 23,9 C 91 % 1015,6 hPa 0,0 l/m 17,0 km/h (3 Bft) W-SW 258 0 min 0,000 mm 0,0 UV-I 0 W/m 14,1 C 11,3 C 27,4 km/h (4 Bft) 100,00 %
10.08.2017 21:58 15,4 C 23,9 C 92 % 1015,6 hPa 0,0 l/m 17,1 km/h (3 Bft) SW 227 0 min 0,000 mm 0,0 UV-I 0 W/m 14,1 C 11,0 C 27,4 km/h (4 Bft) 100,00 %
10.08.2017 22:00 15,4 C 23,9 C 92 % 1015,7 hPa 0,0 l/m 17,8 km/h (3 Bft) S-SW 192 0 min 0,000 mm 0,0 UV-I 0 W/m 14,1 C 10,8 C 25,7 km/h (4 Bft) 100,00 %
10.08.2017 22:02 15,3 C 23,9 C 92 % 1015,8 hPa 0,0 l/m 16,7 km/h (3 Bft) SW 225 0 min 0,025 mm 0,0 UV-I 0 W/m 14,0 C 11,0 C 30,6 km/h (5 Bft) 98,11 %
10.08.2017 22:04 15,2 C 23,9 C 91 % 1015,8 hPa 0,0 l/m 22,2 km/h (4 Bft) W-SW 242 0 min 0,000 mm 0,0 UV-I 0 W/m 13,7 C 9,5 C 32,2 km/h (5 Bft) 96,00 %
10.08.2017 22:06 15,2 C 23,9 C 91 % 1015,7 hPa 0,0 l/m 20,3 km/h (4 Bft) S-SW 211 0 min 0,000 mm 0,0 UV-I 0 W/m 13,7 C 9,9 C 35,4 km/h (5 Bft) 100,00 %
10.08.2017 22:08 15,1 C 23,9 C 91 % 1015,6 hPa 0,0 l/m 21,5 km/h (4 Bft) W-SW 249 0 min 0,000 mm 0,0 UV-I 0 W/m 13,6 C 9,5 C 33,8 km/h (5 Bft) 100,00 %
10.08.2017 22:10 15,0 C 23,9 C 91 % 1015,8 hPa 0,0 l/m 23,8 km/h (4 Bft) W-SW 252 0 min 0,000 mm 0,0 UV-I 0 W/m 13,5 C 8,9 C 33,8 km/h (5 Bft) 100,00 %
10.08.2017 22:12 14,9 C 23,9 C 91 % 1015,5 hPa 0,0 l/m 19,5 km/h (3 Bft) SW 216 0 min 0,000 mm 0,0 UV-I 0 W/m 13,4 C 9,7 C 32,2 km/h (5 Bft) 97,87 %
10.08.2017 22:14 14,9 C 23,9 C 91 % 1015,5 hPa 0,0 l/m 22,9 km/h (4 Bft) W-SW 245 0 min 0,000 mm 0,0 UV-I 0 W/m 13,4 C 8,9 C 33,8 km/h (5 Bft) 100,00 %
10.08.2017 22:16 14,8 C 23,9 C 91 % 1015,7 hPa 0,0 l/m 23,4 km/h (4 Bft) W-SW 253 0 min 0,000 mm 0,0 UV-I 0 W/m 13,3 C 8,7 C 30,6 km/h (5 Bft) 100,00 %
10.08.2017 22:18 14,8 C 23,9 C 91 % 1015,8 hPa 0,0 l/m 20,2 km/h (4 Bft) W-SW 252 0 min 0,000 mm 0,0 UV-I 0 W/m 13,3 C 9,4 C 30,6 km/h (5 Bft) 100,00 %
10.08.2017 22:20 14,7 C 23,9 C 91 % 1015,8 hPa 0,0 l/m 17,3 km/h (3 Bft) W-SW 248 0 min 0,000 mm 0,0 UV-I 0 W/m 13,2 C 10,1 C 29,0 km/h (5 Bft) 100,00 %
10.08.2017 22:22 14,7 C 23,9 C 91 % 1015,9 hPa 0,0 l/m 18,7 km/h (3 Bft) W-SW 245 0 min 0,000 mm 0,0 UV-I 0 W/m 13,2 C 9,7 C 30,6 km/h (5 Bft) 100,00 %
10.08.2017 22:24 14,7 C 23,9 C 91 % 1015,8 hPa 0,0 l/m 23,6 km/h (4 Bft) SW 221 0 min 0,000 mm 0,0 UV-I 0 W/m 13,2 C 8,5 C 33,8 km/h (5 Bft) 100,00 %
10.08.2017 22:26 14,7 C 23,9 C 91 % 1015,7 hPa 0,0 l/m 20,3 km/h (4 Bft) W-SW 254 0 min 0,000 mm 0,0 UV-I 0 W/m 13,2 C 9,3 C 25,7 km/h (4 Bft) 100,00 %
10.08.2017 22:28 14,7 C 23,9 C 91 % 1015,7 hPa 0,0 l/m 21,8 km/h (4 Bft) W 259 0 min 0,000 mm 0,0 UV-I 0 W/m 13,2 C 8,9 C 33,8 km/h (5 Bft) 100,00 %
10.08.2017 22:30 14,6 C 23,9 C 91 % 1015,8 hPa 0,0 l/m 19,0 km/h (3 Bft) W-SW 242 0 min 0,000 mm 0,0 UV-I 0 W/m 13,1 C 9,5 C 30,6 km/h (5 Bft) 100,00 %
10.08.2017 22:32 14,6 C 23,9 C 91 % 1015,8 hPa 0,0 l/m 18,7 km/h (3 Bft) W-SW 239 0 min 0,000 mm 0,0 UV-I 0 W/m 13,1 C 9,6 C 29,0 km/h (5 Bft) 100,00 %
10.08.2017 22:34 14,6 C 23,9 C 91 % 1015,8 hPa 0,0 l/m 20,7 km/h (4 Bft) W-SW 248 0 min 0,000 mm 0,0 UV-I 0 W/m 13,1 C 9,1 C 30,6 km/h (5 Bft) 100,00 %
10.08.2017 22:36 14,6 C 23,9 C 91 % 1015,8 hPa 0,0 l/m 16,8 km/h (3 Bft) W-SW 248 0 min 0,000 mm 0,0 UV-I 0 W/m 13,1 C 10,1 C 25,7 km/h (4 Bft) 100,00 %
10.08.2017 22:38 14,5 C 23,9 C 91 % 1015,8 hPa 0,0 l/m 17,7 km/h (3 Bft) SW 236 0 min 0,000 mm 0,0 UV-I 0 W/m 13,0 C 9,7 C 22,5 km/h (4 Bft) 100,00 %
10.08.2017 22:40 14,5 C 23,9 C 91 % 1015,8 hPa 0,0 l/m 18,9 km/h (3 Bft) SW 227 0 min 0,000 mm 0,0 UV-I 0 W/m 13,0 C 9,4 C 29,0 km/h (5 Bft) 100,00 %
10.08.2017 22:42 14,5 C 23,9 C 91 % 1015,8 hPa 0,0 l/m 17,5 km/h (3 Bft) W-SW 255 0 min 0,000 mm 0,0 UV-I 0 W/m 13,0 C 9,8 C 27,4 km/h (4 Bft) 100,00 %
10.08.2017 22:44 14,5 C 23,9 C 91 % 1015,7 hPa 0,0 l/m 14,4 km/h (3 Bft) SW 234 0 min 0,000 mm 0,0 UV-I 0 W/m 13,0 C 10,8 C 24,1 km/h (4 Bft) 100,00 %
10.08.2017 22:46 14,5 C 23,9 C 91 % 1015,6 hPa 0,0 l/m 16,4 km/h (3 Bft) SW 229 0 min 0,000 mm 0,0 UV-I 0 W/m 13,0 C 10,1 C 22,5 km/h (4 Bft) 100,00 %
10.08.2017 22:48 14,4 C 23,9 C 91 % 1015,6 hPa 0,0 l/m 15,4 km/h (3 Bft) W 261 0 min 0,000 mm 0,0 UV-I 0 W/m 12,9 C 10,3 C 25,7 km/h (4 Bft) 97,56 %
10.08.2017 22:50 14,4 C 23,9 C 91 % 1015,5 hPa 0,0 l/m 17,9 km/h (3 Bft) W-SW 244 0 min 0,000 mm 0,0 UV-I 0 W/m 12,9 C 9,6 C 25,7 km/h (4 Bft) 100,00 %
10.08.2017 22:52 14,4 C 23,9 C 91 % 1015,4 hPa 0,0 l/m 16,0 km/h (3 Bft) S-SW 211 0 min 0,000 mm 0,0 UV-I 0 W/m 12,9 C 10,1 C 22,5 km/h (4 Bft) 100,00 %
10.08.2017 22:54 14,4 C 23,9 C 91 % 1015,5 hPa 0,0 l/m 14,5 km/h (3 Bft) SW 225 0 min 0,000 mm 0,0 UV-I 0 W/m 12,9 C 10,6 C 22,5 km/h (4 Bft) 100,00 %
10.08.2017 22:56 14,4 C 23,9 C 91 % 1015,5 hPa 0,0 l/m 15,9 km/h (3 Bft) SW 230 0 min 0,000 mm 0,0 UV-I 0 W/m 12,9 C 10,2 C 22,5 km/h (4 Bft) 97,56 %
10.08.2017 22:58 14,4 C 23,9 C 92 % 1015,5 hPa 0,0 l/m 17,2 km/h (3 Bft) W-SW 255 0 min 0,000 mm 0,0 UV-I 0 W/m 13,1 C 9,8 C 30,6 km/h (5 Bft) 98,21 %
10.08.2017 23:00 14,3 C 23,9 C 92 % 1015,6 hPa 0,0 l/m 16,3 km/h (3 Bft) W-SW 244 0 min 0,000 mm 0,0 UV-I 0 W/m 13,0 C 9,9 C 27,4 km/h (4 Bft) 97,56 %
10.08.2017 23:02 14,3 C 23,9 C 92 % 1015,6 hPa 0,0 l/m 14,6 km/h (3 Bft) S-SW 199 0 min 0,025 mm 0,0 UV-I 0 W/m 13,0 C 10,5 C 25,7 km/h (4 Bft) 96,23 %
10.08.2017 23:04 14,3 C 23,9 C 92 % 1015,5 hPa 0,0 l/m 19,4 km/h (3 Bft) SW 234 0 min 0,000 mm 0,0 UV-I 0 W/m 13,0 C 9,0 C 33,8 km/h (5 Bft) 97,87 %
10.08.2017 23:06 14,2 C 23,9 C 92 % 1015,7 hPa 0,0 l/m 15,9 km/h (3 Bft) SW 228 0 min 0,000 mm 0,0 UV-I 0 W/m 12,9 C 9,9 C 27,4 km/h (4 Bft) 97,37 %
10.08.2017 23:08 14,2 C 23,9 C 92 % 1015,7 hPa 0,0 l/m 16,6 km/h (3 Bft) W 268 0 min 0,000 mm 0,0 UV-I 0 W/m 12,9 C 9,7 C 22,5 km/h (4 Bft) 98,11 %
10.08.2017 23:10 14,2 C 23,9 C 92 % 1015,8 hPa 0,0 l/m 14,5 km/h (3 Bft) W-SW 247 0 min 0,000 mm 0,0 UV-I 0 W/m 12,9 C 10,4 C 22,5 km/h (4 Bft) 98,00 %
10.08.2017 23:12 14,1 C 23,9 C 92 % 1015,8 hPa 0,0 l/m 14,8 km/h (3 Bft) W-SW 238 0 min 0,000 mm 0,0 UV-I 0 W/m 12,8 C 10,2 C 25,7 km/h (4 Bft) 98,00 %
10.08.2017 23:14 14,1 C 23,9 C 92 % 1015,9 hPa 0,0 l/m 19,0 km/h (3 Bft) SW 232 0 min 0,000 mm 0,0 UV-I 0 W/m 12,8 C 8,9 C 25,7 km/h (4 Bft) 95,12 %
10.08.2017 23:16 14,1 C 23,9 C 92 % 1016,1 hPa 0,0 l/m 15,9 km/h (3 Bft) SW 215 0 min 0,000 mm 0,0 UV-I 0 W/m 12,8 C 9,8 C 24,1 km/h (4 Bft) 94,34 %
10.08.2017 23:18 14,1 C 23,9 C 92 % 1016,1 hPa 0,0 l/m 17,7 km/h (3 Bft) W-SW 245 0 min 0,000 mm 0,0 UV-I 0 W/m 12,8 C 9,2 C 29,0 km/h (5 Bft) 92,68 %
10.08.2017 23:20 14,0 C 23,9 C 92 % 1016,1 hPa 0,0 l/m 19,1 km/h (3 Bft) W-SW 239 0 min 0,000 mm 0,0 UV-I 0 W/m 12,7 C 8,7 C 32,2 km/h (5 Bft) 93,18 %
10.08.2017 23:22 14,0 C 23,9 C 91 % 1016,1 hPa 0,0 l/m 18,8 km/h (3 Bft) W-SW 243 0 min 0,000 mm 0,0 UV-I 0 W/m 12,6 C 8,8 C 27,4 km/h (4 Bft) 96,23 %
10.08.2017 23:24 13,9 C 23,9 C 91 % 1016,0 hPa 0,0 l/m 17,9 km/h (3 Bft) S-SW 200 0 min 0,000 mm 0,0 UV-I 0 W/m 12,5 C 8,9 C 27,4 km/h (4 Bft) 95,74 %
10.08.2017 23:26 13,9 C 23,9 C 91 % 1016,2 hPa 0,0 l/m 16,0 km/h (3 Bft) SW 217 0 min 0,000 mm 0,0 UV-I 0 W/m 12,5 C 9,5 C 27,4 km/h (4 Bft) 95,12 %
10.08.2017 23:28 13,9 C 23,9 C 91 % 1016,3 hPa 0,0 l/m 20,3 km/h (4 Bft) SW 229 0 min 0,000 mm 0,0 UV-I 0 W/m 12,5 C 8,2 C 30,6 km/h (5 Bft) 94,34 %
10.08.2017 23:30 13,9 C 23,9 C 91 % 1016,4 hPa 0,0 l/m 15,9 km/h (3 Bft) S-SW 207 0 min 0,000 mm 0,0 UV-I 0 W/m 12,5 C 9,6 C 22,5 km/h (4 Bft) 94,74 %
10.08.2017 23:32 13,9 C 23,9 C 91 % 1016,4 hPa 0,0 l/m 16,0 km/h (3 Bft) W-SW 237 0 min 0,000 mm 0,0 UV-I 0 W/m 12,5 C 9,5 C 25,7 km/h (4 Bft) 96,23 %
10.08.2017 23:34 13,8 C 23,9 C 91 % 1016,4 hPa 0,0 l/m 18,6 km/h (3 Bft) SW 215 0 min 0,000 mm 0,0 UV-I 0 W/m 12,4 C 8,6 C 30,6 km/h (5 Bft) 95,24 %
10.08.2017 23:36 13,8 C 23,9 C 91 % 1016,3 hPa 0,0 l/m 16,1 km/h (3 Bft) W-SW 249 0 min 0,000 mm 0,0 UV-I 0 W/m 12,4 C 9,4 C 24,1 km/h (4 Bft) 94,34 %
10.08.2017 23:38 13,8 C 23,9 C 91 % 1016,5 hPa 0,0 l/m 18,0 km/h (3 Bft) SW 219 0 min 0,000 mm 0,0 UV-I 0 W/m 12,4 C 8,8 C 27,4 km/h (4 Bft) 97,96 %
10.08.2017 23:40 13,8 C 23,9 C 91 % 1016,6 hPa 0,0 l/m 16,7 km/h (3 Bft) SW 217 0 min 0,000 mm 0,0 UV-I 0 W/m 12,4 C 9,2 C 24,1 km/h (4 Bft) 97,44 %
10.08.2017 23:42 13,8 C 23,3 C 91 % 1016,5 hPa 0,0 l/m 21,0 km/h (4 Bft) W-SW 241 0 min 0,000 mm 0,0 UV-I 0 W/m 12,4 C 7,9 C 37,0 km/h (5 Bft) 96,00 %
10.08.2017 23:44 13,8 C 23,3 C 91 % 1016,6 hPa 0,0 l/m 24,2 km/h (4 Bft) W 262 0 min 0,000 mm 0,0 UV-I 0 W/m 12,4 C 7,2 C 32,2 km/h (5 Bft) 98,00 %
10.08.2017 23:46 13,8 C 23,3 C 91 % 1016,6 hPa 0,0 l/m 19,6 km/h (3 Bft) SW 231 0 min 0,000 mm 0,0 UV-I 0 W/m 12,4 C 8,3 C 27,4 km/h (4 Bft) 97,56 %
10.08.2017 23:48 13,8 C 23,3 C 91 % 1016,4 hPa 0,0 l/m 17,7 km/h (3 Bft) SW 219 0 min 0,000 mm 0,0 UV-I 0 W/m 12,4 C 8,9 C 25,7 km/h (4 Bft) 96,00 %
10.08.2017 23:50 13,8 C 23,3 C 91 % 1016,5 hPa 0,0 l/m 17,7 km/h (3 Bft) SW 235 0 min 0,000 mm 0,0 UV-I 0 W/m 12,4 C 8,9 C 29,0 km/h (5 Bft) 97,56 %
10.08.2017 23:52 13,8 C 23,3 C 91 % 1016,6 hPa 0,0 l/m 21,7 km/h (4 Bft) SW 218 0 min 0,000 mm 0,0 UV-I 0 W/m 12,4 C 7,8 C 27,4 km/h (4 Bft) 96,23 %
10.08.2017 23:54 13,7 C 23,3 C 91 % 1016,7 hPa 0,0 l/m 18,4 km/h (3 Bft) W-SW 247 0 min 0,000 mm 0,0 UV-I 0 W/m 12,3 C 8,5 C 29,0 km/h (5 Bft) 98,00 %
10.08.2017 23:56 13,7 C 23,3 C 91 % 1016,6 hPa 0,0 l/m 15,5 km/h (3 Bft) S-SW 207 0 min 0,000 mm 0,0 UV-I 0 W/m 12,3 C 9,4 C 24,1 km/h (4 Bft) 97,87 %
10.08.2017 23:58 13,7 C 23,3 C 90 % 1016,6 hPa 0,0 l/m 19,8 km/h (3 Bft) S-SW 208 0 min 0,000 mm 0,0 UV-I 0 W/m 12,1 C 8,1 C 30,6 km/h (5 Bft) 95,12 %
_ Min-Zeit 23:52 23:42 14:02 15:58 - 04:12 - - - - - - 23:58 23:44 04:12 11:30
Minimum _ 13,7 C 23,3 C 73 % 1009,4 hPa - 0,0 km/h (0 Bft) - - - - - - 12,1 C 7,2 C 0,0 km/h (0 Bft) 90,00 %
_ Max-Zeit 14:20 00:00 20:10 23:54 19:10 21:44 - - 06:04 14:00 13:48 13:48 16:38 14:18 21:44 00:28
Maximum _ 23,9 C 24,4 C 95 % 1016,7 hPa 1,2 l/m 26,7 km/h
SW (4 Bft)
- - 2 min 0,305 mm 6,0 UV-I 953 W/m 19,9 C 23,8 C 38,6 km/h
W-SW (5 Bft)
100,00 %
Durchschnitt _ 19,5 C 24,1 C 87 % 1013,3 hPa #9,0 l/m 7,0 km/h (2 Bft) W-SW - #4:26 h #2,184 mm 2,1 UV-I 213 W/m 17,3 C 18,5 C 11,5 km/h (2 Bft) 98,08 %